[[{"header":{"parameterUnit":"m.s-1","parameterCategory":1,"la1":31.0,"la2":29.5877,"lo1":-88.7671,"lo2":-86.6584,"dy":0.0162,"dx":0.0185,"nx":115,"ny":88,"refTime":"2023-09-27T18:00:00:Z","depth":0,"parameterNumber":2,"parameterNumberName":"U-component_of_WINDS"},"data":[0.0,0.0,0.0,0.0,0.0,0.0,0.0,0.0,0.0,0.0,0.0,0.0,0.0,0.0,0.0,0.0,0.0,0.0,0.0,0.0,0.0,0.0,0.0,0.0,0.0,0.0,0.0,0.0,0.0,0.0,0.0,0.0,0.0,0.0,0.0,0.0,0.0,0.0,0.0,0.0,0.0,0.0,0.0,0.0,0.0,0.0,0.0,0.0,0.0,0.0,0.0,0.0,0.0,0.0,0.0,0.0,0.0,0.0,0.0,0.0,0.0,0.0,0.0,0.0,0.0,0.0,0.0,0.0,0.0,0.0,0.0,0.0,0.0,0.0,0.0,0.0,0.0,0.0,0.0,0.0,0.0,0.0,0.0,0.0,0.0,0.0,0.0,0.0,0.0,0.0,0.0,0.0,0.0,0.0,0.0,0.0,0.0,0.0,0.0,0.0,0.0,0.0,0.0,0.0,0.0,0.0,0.0,0.0,0.0,0.0,0.0,0.0,0.0,0.0,0.0,0.0,0.0,0.0,0.0,0.0,0.0,0.0,0.0,0.0,0.0,0.0,0.0,0.0,0.0,0.0,0.0,0.0,0.0,0.0,0.0,0.0,0.0,0.0,0.0,0.0,0.0,0.0,0.0,0.0,0.0,0.0,0.0,0.0,0.0,0.0,0.0,0.0,0.0,0.0,0.0,0.0,0.0,0.0,0.0,0.0,0.0,0.0,0.0,0.0,0.0,0.0,0.0,0.0,0.0,0.0,0.0,0.0,0.0,0.0,0.0,0.0,0.0,0.0,0.0,0.0,0.0,0.0,0.0,0.0,0.0,0.0,0.0,0.0,0.0,0.0,0.0,0.0,0.0,0.0,0.0,0.0,0.0,0.0,0.0,0.0,0.0,0.0,0.0,0.0,0.0,0.0,0.0,0.0,0.0,0.0,0.0,0.0,0.0,0.0,0.0,0.0,0.0,0.0,0.0,0.0,0.0,0.0,0.0,0.0,0.0,0.0,0.0,0.0,0.0,0.0,0.0,0.0,0.0,0.0,0.0,0.0,0.0,0.0,0.0,0.0,0.0,0.0,0.0,0.0,0.0,0.0,0.0,0.0,0.0,0.0,0.0,0.0,0.0,0.0,0.0,0.0,0.0,0.0,0.0,0.0,0.0,0.0,0.0,0.0,0.0,0.0,0.0,0.0,0.0,0.0,0.0,0.0,0.0,0.0,0.0,0.0,0.0,0.0,0.0,0.0,0.0,0.0,0.0,0.0,0.0,0.0,0.0,0.0,0.0,0.0,0.0,0.0,0.0,0.0,0.0,0.0,0.0,0.0,0.0,0.0,0.0,0.0,0.0,0.0,0.0,0.0,0.0,0.0,0.0,0.0,0.0,0.0,0.0,0.0,0.0,0.0,0.0,0.0,0.0,0.0,0.0,0.0,0.0,0.0,0.0,0.0,0.0,0.0,0.0,0.0,0.0,0.0,0.0,0.0,0.0,0.0,0.0,0.0,0.0,0.0,0.0,0.0,0.0,0.0,0.0,0.0,0.0,0.0,0.0,0.0,0.0,0.0,0.0,0.0,0.0,0.0,0.0,0.0,0.0,0.0,0.0,0.0,0.0,0.0,0.0,0.0,0.0,0.0,0.0,0.0,0.0,0.0,0.0,0.0,0.0,0.0,0.0,0.0,0.0,0.0,0.0,0.0,0.0,0.0,0.0,0.0,0.0,0.0,0.0,0.0,0.0,0.0,0.0,0.0,0.0,0.0,0.0,0.0,0.0,0.0,0.0,0.0,0.0,0.0,0.0,0.0,0.0,0.0,0.0,0.0,0.0,0.0,0.0,0.0,0.0,0.0,0.0,0.0,0.0,0.0,0.0,0.0,0.0,0.0,0.0,0.0,0.0,0.0,0.0,0.0,0.0,0.0,0.0,0.0,0.0,0.0,0.0,0.0,0.0,0.0,0.0,0.0,0.0,0.0,0.0,0.0,0.0,0.0,0.0,0.0,0.0,0.0,0.0,0.0,0.0,0.0,0.0,0.0,0.0,0.0,0.0,0.0,0.0,0.0,0.0,0.0,0.0,0.0,0.0,0.0,0.0,0.0,0.0,0.0,0.0,0.0,0.0,0.0,0.0,0.0,0.0,0.0,0.0,0.0,0.0,0.0,0.0,0.0,0.0,0.0,0.0,0.0,0.0,0.0,0.0,0.0,0.0,0.0,0.0,0.0,0.0,0.0,0.0,0.0,0.0,0.0,0.0,0.0,0.0,0.0,0.0,0.0,0.0,0.0,0.0,0.0,0.0,0.0,0.0,0.0,0.0,0.0,0.0,0.0,0.0,0.0,0.0,0.0,0.0,0.0,0.0,0.0,0.0,0.0,0.0,0.0,0.0,0.0,0.0,0.0,0.0,0.0,0.0,0.0,0.0,0.0,0.0,0.0,0.0,0.0,0.0,0.0,0.0,0.0,0.0,0.0,0.0,0.0,0.0,0.0,0.0,0.0,0.0,0.0,0.0,0.0,0.0,0.0,0.0,0.0,0.0,0.0,0.0,0.0,0.0,0.0,0.0,0.0,0.0,0.0,0.0,0.0,0.0,0.0,0.0,0.0,0.0,0.0,0.0,0.0,0.0,0.0,0.0,0.0,0.0,0.0,0.0,0.0,0.0,0.0,0.0,0.0,0.0,0.0,0.0,0.0,0.0,0.0,0.0,0.0,0.0,0.0,0.0,0.0,0.0,0.0,0.0,0.0,0.0,0.0,0.0,0.0,0.0,0.0,0.0,0.0,0.0,0.0,0.0,0.0,0.0,0.0,0.0,0.0,0.0,0.0,0.0,0.0,0.0,0.0,0.0,0.0,0.0,0.0,0.0,0.0,0.0,0.0,0.0,0.0,0.0,0.0,0.0,0.0,0.0,0.0,0.0,0.0,0.0,0.0,0.0,0.0,0.0,0.0,0.0,0.0,0.0,0.0,0.0,0.0,0.0,0.0,0.0,0.0,0.0,0.0,0.0,0.0,0.0,0.0,0.0,0.0,0.0,0.0,0.0,0.0,0.0,0.0,0.0,0.0,0.0,0.0,0.0,0.0,0.0,0.0,0.0,0.0,0.0,0.0,0.0,0.0,0.0,0.0,0.0,0.0,0.0,0.0,0.0,0.0,0.0,0.0,0.0,0.0,0.0,0.0,0.0,0.0,0.0,0.0,0.0,0.0,0.0,0.0,0.0,0.0,0.0,0.0,0.0,0.0,0.0,0.0,0.0,0.0,0.0,0.0,0.0,0.0,0.0,0.0,0.0,0.0,0.0,0.0,0.0,0.0,0.0,0.0,0.0,0.0,0.0,0.0,0.0,0.0,0.0,0.0,0.0,0.0,0.0,0.0,0.0,0.0,0.0,0.0,0.0,0.0,0.0,0.0,0.0,0.0,0.0,0.0,0.0,0.0,0.0,0.0,0.0,0.0,0.0,0.0,0.0,0.0,0.0,0.0,0.0,0.0,0.0,0.0,0.0,0.0,0.0,0.0,0.0,0.0,0.0,0.0,0.0,0.0,0.0,0.0,0.0,0.0,0.0,0.0,0.0,0.0,0.0,0.0,0.0,0.0,0.0,0.0,0.0,0.0,0.0,0.0,0.0,0.0,0.0,0.0,0.0,0.0,0.0,0.0,0.0,0.0,0.0,0.0,0.0,0.0,0.0,0.0,0.0,0.0,0.0,0.0,0.0,0.0,0.0,0.0,0.0,0.0,0.0,0.0,0.0,0.0,0.0,0.0,0.0,0.0,0.0,0.0,0.0,0.0,0.0,0.0,0.0,0.0,0.0,0.0,0.0,0.0,0.0,0.0,0.0,0.0,0.0,0.0,0.0,0.0,0.0,0.0,0.0,0.0,0.0,0.0,0.0,0.0,0.0,0.0,0.0,0.0,0.0,0.0,0.0,0.0,0.0,0.0,0.0,0.0,0.0,0.0,0.0,0.0,0.0,0.0,0.0,0.0,0.0,0.0,0.0,0.0,0.0,0.0,0.0,0.0,0.0,0.0,0.0,0.0,0.0,0.0,0.0,0.0,0.0,0.0,0.0,0.0,0.0,0.0,0.0,0.0,0.0,0.0,0.0,0.0,0.0,0.0,0.0,0.0,0.0,0.0,0.0,0.0,0.0,0.0,0.0,0.0,0.0,0.0,0.0,0.0,0.0,0.0,0.0,0.0,0.0,0.0,0.0,0.0,0.0,0.0,0.0,0.0,0.0,0.0,0.0,0.0,0.0,0.0,0.0,0.0,0.0,0.0,0.0,0.0,0.2448,0.0,0.0,0.0,0.0,0.0,0.0,0.0,0.0,0.0,0.0,0.0,0.0,0.0,0.0,0.0,0.0,0.0,0.0,0.0,0.0,0.0,0.0,0.0,0.0,0.0,0.0,0.0,0.0,0.0,0.0,0.0,0.0,0.0,0.0,0.0,0.0,0.0,0.0,0.0,0.0,0.0,0.0,0.0,0.0,0.0,0.0,0.0,0.0,0.0,0.0,0.0,0.0,0.0,0.0,0.0,0.0,0.0,0.0,0.0,0.0,0.0,0.0,0.0,0.0,0.0,0.0,0.0,0.0,0.0,0.0,0.0,0.0,0.0,0.0,0.0,0.0,0.0,0.0,0.0,0.0,0.0,0.0,0.0,0.0,0.0,0.0,0.0,0.0,0.0,0.0,0.0,0.0,0.0,0.0,0.0,0.0,0.0,0.0,0.0,0.0,0.0,0.0,0.0,0.0,0.0,0.0,0.0,0.0,0.0,0.0,0.2756,0.2601,0.2606,0.2594,0.2613,0.0,0.0,0.0,0.0,0.0,0.0,0.0,0.0,0.0,0.0,0.0,0.0,0.0,0.0,0.0,0.0,0.0,0.0,0.0,0.0,0.0,0.0,0.0,0.0,0.0,0.0,0.0,0.0,0.0,0.0,0.0,0.0,0.0,0.0,0.0,0.0,0.0,0.0,0.0,0.0,0.0,0.0,0.0,0.0,0.0,0.0,0.0,0.0,0.0,0.0,0.0,0.0,0.0,0.0,0.0,0.0,0.0,0.0,0.0,0.0,0.0,0.0,0.0,0.0,0.0,0.0,0.0,0.0,0.0,0.0,0.0,0.0,0.0,0.0,0.0,0.0,0.0,0.0,0.0,0.0,0.0,0.0,0.0,0.0,0.0,0.0,0.0,0.0,0.0,0.0,0.0,0.0,0.0,0.0,0.0,0.0,0.0,0.0,0.0,0.0,0.0,0.0,0.0,0.0,0.0,0.0,0.0,0.0,0.0,0.0,0.0,0.0,0.2807,0.2797,0.2737,0.0,0.0,0.0,0.0,0.0,0.0,0.0,0.0,0.0,0.0,0.0,0.0,0.0,0.0,0.0,0.0,0.0,0.0,0.0,0.0,0.0,0.0,0.0,0.0,0.0,0.0,0.0,0.0,0.0,0.0,0.0,0.0,0.0,0.0,0.0,0.0,0.0,0.0,0.0,0.0,0.0,0.0,0.0,0.0,0.0,0.0,0.0,0.0,0.0,0.0,0.0,0.0,0.0,0.0,0.0,0.0,0.0,0.0,0.0,0.0,0.0,0.0,0.0,0.0,0.0,0.0,0.0,0.0,0.0,0.0,0.0,0.0,0.0,0.0,0.0,0.0,0.0,0.0,0.0,0.0,0.0,0.0,0.0,0.0,0.0,0.0,0.0,0.0,0.0,0.0,0.0,0.0,0.0,0.0,0.0,0.0,0.0,0.0,0.0,0.0,0.0,0.0,0.0,0.0,0.0,0.0,0.0,0.0,0.0,0.0,0.3039,0.3152,0.3152,0.0,0.2896,0.0,0.0,0.0,0.0,0.0,0.0,0.0,0.0,0.0,0.0,0.0,0.0,0.0,0.0,0.0,0.0,0.0,0.0,0.0,0.0,0.0,0.0,0.0,0.0,0.0,0.0,0.0,0.0,0.0,0.0,0.0,0.0,0.0,0.0,0.0,0.0,0.0,0.0,0.0,0.0,0.0,0.0,0.0,0.0,0.0,0.0,0.0,0.0,0.0,0.0,0.0,0.0,0.0,0.0,0.0,0.0,0.0,0.0,0.0,0.0,0.0,0.0,0.0,0.0,0.0,0.0,0.0,0.0,0.0,0.0,0.0,0.0,0.0,0.0,0.0,0.0,0.0,0.0,0.0,0.0,0.0,0.0,0.0,0.0,0.0,0.0,0.0,0.0,0.0,0.0,0.0,0.0,0.0,0.0,0.0,0.0,0.0,0.0,0.0,0.0,0.0,0.0,0.0,0.0,0.0,0.0,0.0,0.0,0.0,0.0,0.317,0.3309,0.3244,0.3115,0.0,0.0,0.0,0.0,0.0,0.0,0.0,0.0,0.0,0.0,0.0,0.0,0.0,0.0,0.0,0.0,0.0,0.0,0.0,0.0,0.0,0.0,0.0,0.0,0.0,0.0,0.0,0.0,0.0,0.0,0.0,0.0,0.0,0.0,0.0,0.0,0.0,0.0,0.0,0.0,0.0,0.0,0.0,0.0,0.0,0.0,0.0,0.0,0.0,0.0,0.0,0.0,0.0,0.0,0.0,0.0,0.0,0.0,0.0,0.0,0.0,0.0,0.0,0.0,0.0,0.0,0.0,0.0,0.0,0.0,0.0,0.0,0.0,0.0,0.0,0.0,0.0,0.0,0.0,0.0,0.0,0.0,0.0,0.0,0.0,0.0,0.0,0.0,0.0,0.0,0.0,0.0,0.0,0.0,0.0,0.0,0.0,0.0,0.0,0.0,0.0,0.0,0.0,0.0,0.0,0.0,0.0,0.0,0.0,0.0,0.3195,0.3314,0.3449,0.332,0.3188,0.3063,0.0,0.0,0.0,0.0,0.0,0.0,0.0,0.0,0.0,0.0,0.0,0.0,0.0,0.0,0.0,0.0,0.0,0.0,0.0,0.0,0.0,0.0,0.0,0.0,0.0,0.0,0.0,0.0,0.0,0.0,0.0,0.0,0.0,0.0,0.0,0.0,0.0,0.0,0.0,0.0,0.0,0.0,0.0,0.0,0.0,0.0,0.0,0.0,0.0,0.0,0.0,0.0,0.0,0.0,0.0,0.0,0.0,0.0,0.0,0.0,0.0,0.0,0.0,0.0,0.0,0.0,0.0,0.0,0.0,0.0,0.0,0.0,0.0,0.0,0.0,0.0,0.0,0.0,0.0,0.0,0.0,0.0,0.0,0.0,0.0,0.0,0.0,0.0,0.0,0.0,0.0,0.0,0.0,0.0,0.0,0.0,0.0,0.0,0.0,0.0,0.0,0.0,0.0,0.0,0.0,0.0,0.0,0.0,0.3183,0.3327,0.3466,0.358,0.3458,0.3338,0.0,0.0,0.0,0.0,0.0,0.0,0.0,0.0,0.0,0.0,0.0,0.0,0.0,0.0,0.0,0.0,0.0,0.0,0.0,0.0,0.0,0.0,0.0,0.0,0.0,0.0,0.0,0.0,0.0,0.0,0.0,0.0,0.0,0.0,0.0,0.0,0.0,0.0,0.0,0.0,0.0,0.0,0.0,0.0,0.0,0.0,0.0,0.0,0.0,0.0,0.0,0.0,0.0,0.0,0.0,0.0,0.0,0.0,0.0,0.0,0.0,0.0,0.0,0.0,0.0,0.0,0.0,0.0,0.0,0.0,0.0,0.0,0.0,0.0,0.0,0.0,0.0,0.0,0.0,0.0,0.0,0.0,0.0,0.0,0.0,0.0,0.0,0.0,0.0,0.0,0.0,0.0,0.0,0.0,0.0,0.0,0.0,0.0,0.0,0.0,0.0,0.0,0.0,0.0,0.0,0.0,0.0,0.0,0.0,0.3199,0.3427,0.3553,0.3605,0.3468,0.333,0.0,0.0,0.0,0.0,0.0,0.0,0.0,0.0,0.0,0.0,0.0,0.0,0.0,0.0,0.0,0.0,0.0,0.0,0.0,0.0,0.0,0.0,0.0,0.0,0.0,0.0,0.0,0.0,0.0,0.0,0.0,0.0,0.0,0.0,0.0,0.0,0.0,0.0,0.0,0.0,0.0,0.0,0.0,0.0,0.0,0.0,0.0,0.0,0.0,0.0,0.0,0.0,0.0,0.0,0.0,0.0,0.0,0.0,0.0,0.0,0.0,0.0,0.0,0.0,0.0,0.0,0.0,0.0,0.0,0.0,0.0,0.0,0.0,0.0,0.0,0.0,0.0,0.0,0.0,0.0,0.0,0.0,0.0,0.0,0.0,0.0,0.0,0.0,0.0,0.0,0.0,0.0,0.0,0.0,0.0,0.0,0.0,0.0,0.0,0.0,0.0,0.0,0.0,0.0,0.0,0.0,0.0,0.0,0.0,0.332,0.0,0.3602,0.3597,0.3507,0.3381,0.0,0.0,0.0,0.0,0.0,0.0,0.0,0.0,0.0,0.0,0.0,0.0,0.0,0.0,0.0,0.0,0.0,0.0,0.0,0.0,0.0,0.0,0.0,0.0,0.0,0.0,0.0,0.0,0.0,0.0,0.0,0.0,0.0,0.0,0.0,0.0,0.0,0.0,0.0,0.0,0.0,0.0,0.0,0.0,0.0,0.0,0.0,0.0,0.0,0.0,0.0,0.0,0.0,0.0,0.0,0.0,0.0,0.0,0.0,0.0,0.0,0.0,0.0,0.0,0.0,0.0,0.0,0.0,0.0,0.0,0.0,0.0,0.0,0.0,0.0,0.0,0.0,0.0,0.0,0.0,0.0,0.0,0.0,0.0,0.0,0.0,0.0,0.0,0.0,0.0,0.0,0.0,0.0,0.0,0.0,0.0,0.0,0.0,0.0,0.0,0.0,0.0,0.0,0.0,0.0,0.0,0.0,0.0,0.3338,0.3586,0.3597,0.3602,0.3602,0.3597,0.3468,0.0,0.0,0.0,0.0,0.0,0.0,0.0,0.0,0.0,0.0,0.0,0.0,0.0,0.0,0.0,0.0,0.0,0.0,0.0,0.0,0.0,0.0,0.0,0.0,0.0,0.0,0.0,0.0,0.0,0.0,0.0,0.0,0.0,0.0,0.0,0.0,0.0,0.0,0.0,0.0,0.0,0.0,0.0,0.0,0.0,0.0,0.0,0.0,0.0,0.0,0.0,0.0,0.0,0.0,0.0,0.0,0.0,0.0,0.0,0.0,0.0,0.0,0.0,0.0,0.0,0.0,0.0,0.0,0.0,0.0,0.0,0.0,0.0,0.0,0.0,0.0,0.0,0.0,0.0,0.0,0.0,0.0,0.0,0.0,0.0,0.0,0.0,0.0,0.0,0.0,0.0,0.0,0.0,0.0,0.0,0.0,0.0,0.0,0.0,0.0,0.0,0.0,0.0,0.0,0.0,0.0,0.0,0.0,0.0,0.3591,0.3602,0.3602,0.3602,0.3602,0.352,0.0,0.0,0.0,0.0,0.0,0.0,0.0,0.0,0.0,0.0,0.0,0.0,0.0,0.0,0.0,0.0,0.0,0.0,0.0,0.0,0.0,0.0,0.0,0.0,0.0,0.0,0.0,0.0,0.0,0.0,0.0,0.0,0.0,0.0,0.0,0.0,0.0,0.0,0.0,0.0,0.0,0.0,0.0,0.0,0.0,0.0,0.0,0.0,0.0,0.0,0.0,0.0,0.0,0.0,0.0,0.0,0.0,0.0,0.0,0.0,0.0,0.0,0.0,0.0,0.0,0.0,0.0,0.0,0.0,0.0,0.0,0.0,0.0,0.0,0.0,0.0,0.0,0.0,0.0,0.0,0.0,0.0,0.0,0.0,0.0,0.0,0.0,0.0,0.0,0.0,0.0,0.0,0.0,0.0,0.0,0.0,0.0,0.0,0.0,0.0,0.0,0.0,0.0,0.0,0.0,0.0,0.0,0.0,0.0,0.3671,0.369,0.3684,0.3727,0.3698,0.3602,0.3474,0.0,0.0,0.0,0.0,0.0,0.0,0.0,0.0,0.0,0.0,0.0,0.0,0.0,0.0,0.0,0.0,0.0,0.0,0.0,0.0,0.0,0.0,0.0,0.0,0.0,0.0,0.0,0.0,0.0,0.0,0.0,0.0,0.0,0.0,0.0,0.0,0.0,0.0,0.0,0.0,0.0,0.0,0.0,0.0,0.0,0.0,0.0,0.0,0.0,0.0,0.0,0.0,0.0,0.0,0.0,0.0,0.0,0.0,0.0,0.0,0.0,0.0,0.0,0.0,0.0,0.0,0.0,0.0,0.0,0.0,0.0,0.0,0.0,0.0,0.0,0.0,0.0,0.0,0.0,0.0,0.0,0.0,0.0,0.0,0.0,0.0,0.0,0.0,0.0,0.0,0.0,0.0,0.0,0.0,0.0,0.0,0.0,0.0,0.0,0.0,0.0,0.0,0.0,0.0,0.0,0.0,0.0,0.0,0.3817,0.3817,0.3842,0.3895,0.3837,0.3756,0.0,0.0,0.0,0.0,0.0,0.0,0.0,0.0,0.0,0.0,0.0,0.0,0.0,0.0,0.0,0.0,0.0,0.0,0.0,0.0,0.0,0.0,0.0,0.0,0.0,0.0,0.0,0.0,0.0,0.0,0.0,0.0,0.0,0.0,0.0,0.0,0.0,0.0,0.0,0.0,0.0,0.0,0.0,0.0,0.0,0.0,0.0,0.0,0.0,0.0,0.0,0.0,0.0,0.0,0.0,0.0,0.0,0.0,0.0,0.0,0.0,0.0,0.0,0.0,0.0,0.0,0.0,0.0,0.0,0.0,0.0,0.0,0.0,0.0,0.0,0.0,0.0,0.0,0.0,0.0,0.0,0.0,0.0,0.0,0.0,0.0,0.0,0.0,0.0,0.0,0.0,0.0,0.0,0.0,0.0,0.0,0.0,0.0,0.0,0.0,0.0,0.0,0.0,0.0,0.0,0.0,0.0,0.0,0.0,0.4012,0.4023,0.3996,0.3905,0.3873,0.3833,0.0,0.0,0.0,0.0,0.0,0.0,0.0,0.0,0.0,0.0,0.0,0.0,0.0,0.0,0.0,0.0,0.0,0.0,0.0,0.0,0.0,0.0,0.0,0.0,0.0,0.0,0.0,0.0,0.0,0.0,0.0,0.0,0.0,0.0,0.0,0.0,0.0,0.0,0.0,0.0,0.0,0.0,0.0,0.0,0.0,0.0,0.0,0.0,0.0,0.0,0.0,0.0,0.0,0.0,0.0,0.0,0.0,0.0,0.0,0.0,0.0,0.0,0.0,0.0,0.0,0.0,0.0,0.0,0.0,0.0,0.0,0.0,0.0,0.0,0.0,0.0,0.0,0.0,0.0,0.0,0.0,0.0,0.0,0.0,0.0,0.0,0.0,0.0,0.0,0.0,0.0,0.0,0.0,0.0,0.0,0.0,0.0,0.0,0.0,0.0,0.0,0.0,0.0,0.0,0.0,0.0,0.0,0.0,0.4017,0.4191,0.424,0.4251,0.4164,0.4045,0.3937,0.0,0.0,0.0,0.0,0.0,0.0,0.0,0.0,0.0,0.0,0.0,0.0,0.0,0.0,0.0,0.0,0.0,0.0,0.0,0.0,0.0,0.0,0.0,0.0,0.0,0.0,0.0,0.0,0.0,0.0,0.0,0.0,0.0,0.0,0.0,0.0,0.0,0.0,0.0,0.0,0.0,0.0,0.0,0.0,0.0,0.0,0.0,0.0,0.0,0.0,0.0,0.0,0.0,0.0,0.0,0.0,0.0,0.0,0.0,0.0,0.0,0.0,0.0,0.0,0.0,0.0,0.0,0.0,0.0,0.0,0.0,0.0,0.0,0.0,0.0,0.0,0.0,0.0,0.0,0.0,0.0,0.0,0.0,0.0,0.0,0.0,0.0,0.0,0.0,0.0,0.0,0.0,0.0,0.0,0.0,0.0,0.0,0.0,0.0,0.0,0.0,0.0,0.0,0.0,0.0,0.0,0.0,0.0,0.4181,0.4333,0.4448,0.4508,0.452,0.4273,0.4078,0.0,0.0,0.0,0.0,0.0,0.0,0.0,0.0,0.0,0.0,0.0,0.0,0.0,0.0,0.0,0.0,0.0,0.0,0.0,0.0,0.0,0.0,0.0,0.0,0.0,0.0,0.0,0.0,0.0,0.0,0.0,0.0,0.0,0.0,0.0,0.0,0.0,0.0,0.0,0.0,0.0,0.0,0.0,0.0,0.0,0.0,0.0,0.0,0.0,0.0,0.0,0.0,0.0,0.0,0.0,0.0,0.0,0.0,0.0,0.0,0.0,0.0,0.0,0.0,0.0,0.0,0.0,0.0,0.0,0.0,0.0,0.0,0.0,0.0,0.0,0.0,0.0,0.0,0.0,0.0,0.0,0.0,0.0,0.0,0.0,0.0,0.0,0.0,0.0,0.0,0.0,0.0,0.0,0.0,0.0,0.0,0.0,0.0,0.0,0.0,0.0,0.0,0.0,0.0,0.0,0.0,0.0,0.0,0.4317,0.4448,0.4586,0.4669,0.4669,0.4509,0.4295,0.0,0.0,0.0,0.0,0.0,0.0,0.0,0.0,0.0,0.0,0.0,0.0,0.0,0.0,0.0,0.0,0.0,0.0,0.0,0.0,0.0,0.0,0.0,0.0,0.0,0.0,0.0,0.0,0.0,0.0,0.0,0.0,0.0,0.0,0.0,0.0,0.0,0.0,0.0,0.0,0.0,0.0,0.0,0.0,0.0,0.0,0.0,0.0,0.9014,0.0,0.0,0.0,0.0,0.0,0.0,0.0,0.0,0.0,0.0,0.0,0.0,0.0,0.0,0.0,0.0,0.0,0.0,0.0,0.0,0.0,0.0,0.0,0.0,0.0,0.0,0.0,0.0,0.0,0.0,0.0,0.0,0.0,0.0,0.0,0.0,0.0,0.0,0.0,0.0,0.0,0.0,0.0,0.0,0.0,0.0,0.0,0.0,0.0,0.0,0.0,0.0,0.0,0.0,0.0,0.0,0.0,0.0,0.0,0.4453,0.4609,0.4693,0.4735,0.4754,0.4657,0.4464,0.0,0.0,0.0,0.0,0.0,0.0,0.0,0.0,0.0,0.0,0.0,0.0,0.0,0.0,0.0,0.0,0.0,0.0,0.0,0.0,0.0,0.0,0.0,0.0,0.0,0.0,0.0,0.0,0.0,0.0,0.0,0.0,0.0,0.0,0.0,0.0,0.0,0.0,0.0,0.0,0.0,0.0,0.0,0.0,0.0,0.0,0.0,0.0,0.0,0.0,0.0,0.0,0.0,0.0,0.0,0.0,0.0,0.0,0.0,0.0,0.0,0.0,0.0,0.0,0.0,0.0,0.0,0.0,0.0,0.0,0.0,0.0,0.0,0.0,0.0,0.0,0.0,0.0,0.0,0.0,0.0,0.0,0.0,0.0,0.0,0.0,0.0,0.0,0.0,0.0,0.0,0.0,0.0,0.0,0.0,0.0,0.0,0.0,0.0,0.0,0.0,0.0,0.0,0.0,0.0,0.0,0.0,0.4333,0.4598,0.4708,0.479,0.4822,0.4841,0.4743,0.4614,0.4377,0.0,0.0,0.0,0.0,0.0,0.0,0.0,0.0,0.0,0.0,0.0,0.0,0.0,0.0,0.0,0.0,0.0,0.0,0.0,0.0,0.0,0.0,0.0,0.0,0.0,0.0,0.0,0.0,0.0,0.0,0.0,0.0,0.0,0.0,0.0,0.0,0.0,0.0,0.8292,0.879,0.0,0.0,0.0,0.0,0.0,0.0,0.0,0.0,0.9422,0.0,0.0,0.0,0.0,0.0,0.0,0.0,0.0,0.0,0.0,0.0,0.0,0.0,0.0,0.0,0.0,0.0,0.0,0.0,0.0,0.0,0.0,0.0,0.0,0.0,0.0,0.0,0.0,0.0,0.0,0.0,0.0,0.0,0.0,0.0,0.0,0.0,0.0,0.0,0.0,0.0,0.0,0.0,0.0,0.0,0.0,0.0,0.0,0.0,0.0,0.0,0.0,0.0,0.0,0.0,0.0,0.4056,0.4459,0.4668,0.469,0.4871,0.4966,0.496,0.4805,0.4691,0.4613,0.0,0.0,0.0,0.0,0.0,0.0,0.0,0.0,0.0,0.0,0.0,0.0,0.0,0.0,0.0,0.0,0.0,0.0,0.0,0.0,0.0,0.0,0.0,0.0,0.0,0.0,0.0,0.0,0.0,0.0,0.0,0.0,0.0,0.0,0.0,0.0,0.0,0.0,0.0,0.9528,0.9664,0.0,0.0,0.0,0.0,0.0,0.0,0.0,0.0,0.9802,0.0,0.0,0.0,0.0,0.0,0.0,0.0,0.0,0.0,0.0,0.0,0.0,0.0,0.0,0.0,0.0,0.0,0.0,0.0,0.0,0.0,0.0,0.0,0.0,0.0,0.0,0.0,0.0,0.0,0.0,0.0,0.0,0.0,0.0,0.0,0.0,0.0,0.0,0.0,0.0,0.0,0.0,0.0,0.0,0.0,0.0,0.0,0.0,0.0,0.0,0.0,0.0,0.0,0.0,0.0,0.4197,0.4536,0.4723,0.4746,0.4906,0.4998,0.4993,0.4844,0.4732,0.0,0.0,0.0,0.0,0.0,0.0,0.0,0.0,0.0,0.0,0.0,0.0,0.0,0.0,0.0,0.0,0.0,0.0,0.0,0.0,0.0,0.0,0.0,0.0,0.0,0.0,0.0,0.0,0.0,0.0,0.0,0.0,0.0,0.0,0.0,0.0,0.0,0.0,0.0,0.0,0.9683,0.9877,1.0113,0.0,0.0,0.0,0.0,0.0,0.0,1.0016,0.9966,0.0,0.0,0.0,0.0,0.0,0.0,0.0,0.0,0.0,0.0,0.0,0.0,0.0,0.0,0.0,0.0,0.0,0.0,0.0,0.0,0.0,0.0,0.0,0.0,0.0,0.0,0.0,0.0,0.0,0.0,0.0,0.0,0.0,0.0,0.0,0.0,0.0,0.0,0.0,0.0,0.0,0.0,0.0,0.0,0.0,0.0,0.0,0.0,0.0,0.0,0.0,0.0,0.0,0.0,0.0,0.4333,0.458,0.4732,0.4814,0.4933,0.4998,0.4998,0.486,0.476,0.0,0.0,0.0,0.0,0.0,0.0,0.0,0.0,0.0,0.0,0.0,0.0,0.0,0.0,0.0,0.0,0.0,0.0,0.0,0.0,0.0,0.0,0.0,0.0,0.0,0.0,0.0,0.0,0.0,0.0,0.0,0.0,0.0,0.0,0.0,0.0,0.0,0.0,0.0,0.0,0.0,1.0107,1.0338,1.0221,0.0,0.0,0.0,0.0,1.0118,1.0089,0.0,0.0,0.0,0.0,0.0,0.0,0.0,0.0,0.0,0.0,0.0,0.0,0.0,0.0,0.0,0.0,0.0,0.0,0.0,0.0,0.0,0.0,0.0,0.0,0.0,0.0,0.0,0.0,0.0,0.0,0.0,0.0,0.0,0.0,0.0,0.0,0.0,0.0,0.0,0.0,0.0,0.0,0.0,0.0,0.0,0.0,0.0,0.0,0.0,0.0,0.0,0.0,0.0,0.0,0.0,0.0,0.4459,0.4636,0.4732,0.4814,0.4933,0.4998,0.4998,0.4879,0.476,0.0,0.0,0.0,0.0,0.0,0.0,0.0,0.0,0.0,0.0,0.0,0.0,0.0,0.0,0.0,0.0,0.0,0.0,0.0,0.0,0.0,0.0,0.0,0.0,0.0,0.0,0.0,0.0,0.0,0.0,0.0,0.0,0.0,0.0,0.0,0.0,0.0,0.0,0.0,0.0,0.0,1.0563,1.0659,1.0567,1.0614,0.0,0.0,1.0522,1.0522,1.038,0.0,0.0,0.0,0.0,0.0,0.0,0.0,0.0,0.0,0.0,0.0,0.0,0.0,0.0,0.0,0.0,0.0,0.0,0.0,0.0,0.0,0.0,0.0,0.0,0.0,0.0,0.0,0.0,0.0,0.0,0.0,0.0,0.0,0.0,0.0,0.0,0.0,0.0,0.0,0.0,0.0,0.0,0.0,0.0,0.0,0.0,0.0,0.0,0.0,0.0,0.0,0.0,0.0,0.0,0.0,0.4197,0.4614,0.4781,0.4915,0.5034,0.5174,0.5206,0.5116,0.5061,0.4928,0.0,0.0,0.0,0.0,0.0,0.0,0.0,0.0,0.0,0.0,0.0,0.0,0.0,0.0,0.0,0.0,0.0,0.0,0.0,0.0,0.0,0.0,0.0,0.0,0.0,0.0,0.0,0.0,0.0,0.0,0.0,0.0,0.0,0.0,0.0,0.0,0.0,0.0,0.0,0.0,0.0,0.0,1.0788,1.0679,0.0,0.0,0.0,1.0598,1.0598,0.0,0.0,0.0,0.0,0.0,0.0,0.0,0.0,0.0,0.0,0.0,0.0,0.0,0.0,0.0,0.0,0.0,0.0,0.0,0.0,0.0,0.0,0.0,0.0,0.0,0.0,0.0,0.0,0.0,0.0,0.0,0.0,0.0,0.0,0.0,0.0,0.0,0.0,0.0,0.0,0.0,0.0,0.0,0.0,0.0,0.0,0.0,0.0,0.0,0.0,0.0,0.0,0.0,0.0,0.0,0.0,0.0,0.471,0.4909,0.5069,0.525,0.5343,0.5348,0.5256,0.5223,0.0,0.0,0.0,0.0,0.0,0.0,0.0,0.0,0.0,0.0,0.0,0.0,0.0,0.0,0.0,0.0,0.0,0.0,0.0,0.0,0.0,0.0,0.0,0.0,0.0,0.0,0.0,0.7375,0.0,0.0,0.0,0.0,0.0,0.0,0.0,0.0,0.0,0.0,0.0,0.0,0.0,0.0,1.0671,1.1034,1.0962,1.0982,0.0,0.0,1.0886,1.0815,1.0698,1.0608,0.0,0.0,0.0,0.0,0.0,0.0,0.0,0.0,0.0,0.0,0.0,0.0,0.0,0.0,0.0,0.0,0.0,0.0,0.0,0.0,0.0,0.0,0.0,0.0,0.0,0.0,0.0,0.0,0.0,0.0,0.0,0.0,0.0,0.0,0.0,0.0,0.0,0.0,0.0,0.0,0.0,0.0,0.0,0.0,0.0,0.0,0.0,0.0,0.0,0.0,0.0,0.0,0.0,0.0,0.4446,0.4774,0.4933,0.5132,0.537,0.5407,0.5407,0.5396,0.5246,0.5152,0.0,0.0,0.0,0.0,0.0,0.0,0.0,0.0,0.0,0.0,0.0,0.0,0.0,0.0,0.0,0.0,0.0,0.0,0.0,0.0,0.0,0.0,0.0,0.0,0.0,0.0,0.0,0.0,0.0,0.0,0.0,0.0,0.0,0.0,0.0,0.0,0.0,0.0,0.0,0.0,0.0,1.1239,1.1517,1.1632,1.1804,0.0,1.1891,1.1634,1.1394,1.1032,1.0785,1.0767,0.0,0.0,0.0,0.0,0.0,0.0,0.0,0.0,0.0,0.0,0.0,0.0,0.0,0.0,0.0,0.0,0.0,0.0,0.0,0.0,0.0,0.0,0.0,0.0,0.0,0.0,0.0,0.0,0.0,0.0,0.0,0.0,0.0,0.0,0.0,0.0,0.0,0.0,0.0,0.0,0.0,0.0,0.0,0.0,0.0,0.0,0.0,0.0,0.0,0.0,0.0,0.0,0.0,0.4583,0.4923,0.5137,0.5317,0.5453,0.5534,0.5556,0.5464,0.5394,0.5296,0.0,0.0,0.0,0.0,0.0,0.0,0.0,0.0,0.0,0.0,0.0,0.0,0.0,0.0,0.0,0.0,0.0,0.0,0.0,0.0,0.0,0.0,0.0,0.0,0.0,0.0,0.0,0.0,0.8816,0.9071,0.9062,0.0,0.0,0.0,0.0,0.0,0.0,0.0,0.0,0.0,0.0,1.1333,1.1665,1.1769,0.0,0.0,1.1874,1.1761,1.1667,1.1527,1.1387,1.1241,1.1117,0.0,0.0,0.0,0.0,0.0,0.0,0.0,0.0,0.0,0.0,0.0,0.0,0.0,0.0,0.0,0.0,0.0,0.0,0.0,0.0,0.0,0.0,0.0,0.0,0.0,0.0,0.0,0.0,0.0,0.0,0.0,0.0,0.0,0.0,0.0,0.0,0.0,0.0,0.0,0.0,0.0,0.0,0.0,0.0,0.0,0.0,0.0,0.0,0.0,0.0,0.0,0.0,0.4779,0.5067,0.5339,0.5534,0.561,0.5757,0.5757,0.5637,0.5578,0.5486,0.0,0.0,0.0,0.0,0.0,0.0,0.0,0.0,0.0,0.0,0.0,0.0,0.0,0.0,0.0,0.0,0.0,0.0,0.0,0.0,0.0,0.0,0.0,0.0,0.0,0.0,0.0,0.0,0.9124,0.9305,0.9319,0.0,0.0,0.0,0.0,0.0,0.0,0.0,0.0,0.0,0.0,1.1325,1.1657,1.1768,1.1806,1.1888,1.1897,1.187,1.1781,1.1824,1.1785,1.162,0.0,0.0,0.0,0.0,0.0,0.0,0.0,0.0,0.0,0.0,0.0,0.0,0.0,0.0,0.0,0.0,0.0,0.0,0.0,0.0,0.0,0.0,0.0,0.0,0.0,0.0,0.0,0.5193,0.0,0.0,0.5002,0.0,0.0,0.0,0.0,0.0,0.0,0.0,0.0,0.0,0.0,0.0,0.0,0.0,0.0,0.0,0.0,0.0,0.0,0.0,0.0,0.0,0.0,0.5061,0.5186,0.5497,0.5729,0.587,0.6013,0.5995,0.5876,0.5767,0.5626,0.5524,0.0,0.0,0.0,0.0,0.0,0.0,0.0,0.0,0.0,0.0,0.0,0.0,0.0,0.0,0.0,0.0,0.0,0.0,0.0,0.0,0.0,0.0,0.0,0.0,0.0,0.0,0.9239,0.9308,0.9307,0.0,0.0,0.0,0.0,0.0,0.0,0.0,0.0,0.0,1.043,1.0939,1.1362,1.1501,1.1667,1.1861,1.2074,1.2109,1.1994,1.1757,1.1818,1.1873,0.0,0.0,0.0,0.0,0.0,0.0,0.0,0.0,0.0,0.0,0.0,0.0,0.0,0.0,0.0,0.0,0.0,0.0,0.0,0.0,0.0,0.0,0.0,0.0,0.0,0.0,0.0,0.5631,0.5591,0.0,0.0,0.0,0.0,0.0,0.0,0.0,0.0,0.0,0.0,0.0,0.5217,0.5295,0.0,0.0,0.0,0.0,0.0,0.0,0.0,0.0,0.0,0.0,0.0,0.0,0.4723,0.5056,0.5181,0.5325,0.5504,0.5549,0.5549,0.5509,0.5642,0.5831,0.6088,0.0,0.0,0.0,0.0,0.0,0.0,0.0,0.0,0.0,0.0,0.0,0.0,0.0,0.0,0.0,0.0,0.0,0.0,0.0,0.0,0.0,0.0,0.0,0.0,0.0,0.8989,0.0,0.0,0.0,0.0,0.0,0.0,0.0,0.0,0.0,0.0,0.0,1.0836,1.1089,1.1404,1.1712,1.1868,1.1946,1.2089,0.0,0.0,0.0,0.0,0.0,0.0,0.0,0.0,0.0,0.0,0.0,0.0,0.0,0.0,1.1282,1.1211,1.1204,1.1362,1.1889,0.0,0.0,0.0,0.0,0.0,0.0,0.0,0.0,0.0,0.0,0.0,0.0,0.0,0.0,0.5882,0.5763,0.5627,0.0,0.0,0.0,0.0,0.0,0.0,0.0,0.0,0.5368,0.5496,0.5583,0.5681,0.5676,0.0,0.5491,0.5246,0.0,0.0,0.0,0.0,0.0,0.0,0.0,0.0,0.4695,0.4976,0.5118,0.5241,0.5355,0.5393,0.5393,0.536,0.5565,0.5966,0.6507,0.6402,0.6621,0.0,0.0,0.0,0.0,0.0,0.0,0.0,0.0,0.0,0.0,0.0,0.0,0.0,0.0,0.0,0.0,0.0,0.0,0.0,0.0,0.0,0.0,0.0,0.9101,0.0,0.0,0.0,0.0,0.0,0.0,0.0,0.0,0.0,1.001,1.0334,1.0667,1.1103,1.1304,1.1543,1.1941,0.0,0.0,0.0,0.0,0.0,0.0,0.0,1.2496,1.2366,1.2534,1.2651,1.2569,1.246,1.2331,1.2024,0.0,0.0,1.1834,1.1807,1.1968,1.2589,1.2674,1.2843,1.3443,1.3895,1.4384,0.0,0.0,0.0,0.0,0.6126,0.0,0.0,0.0,0.6147,0.6026,0.0,0.5727,0.0,0.0,0.0,0.0,0.5305,0.5381,0.0,0.0,0.5741,0.5892,0.5903,0.6016,0.6011,0.5885,0.5632,0.5438,0.528,0.4889,0.0,0.0,0.0,0.0,0.0,0.0,0.5,0.5001,0.5289,0.5474,0.5483,0.5549,0.5549,0.5528,0.5643,0.6029,0.675,0.6675,0.6882,0.748,0.7218,0.0,0.0,0.0,0.0,0.0,0.0,0.0,0.0,0.0,0.0,0.0,0.0,0.0,0.0,0.0,0.0,0.0,0.0,0.0,0.0,0.9303,0.0,0.0,0.0,0.0,0.0,0.0,0.0,0.0,0.0,0.0,0.9564,0.9729,1.0017,1.048,0.0,0.0,0.0,0.0,1.1914,1.2224,1.2281,1.2273,1.2273,1.2565,1.2786,1.2769,0.0,0.0,1.2857,1.2803,1.2716,1.24,1.2345,1.2325,1.2264,1.2254,1.2432,1.3054,1.3165,1.3403,1.3982,1.447,1.5064,0.615,0.0,0.0,0.0,0.0,0.6294,0.6291,0.6205,0.6263,0.6219,0.614,0.5983,0.0,0.0,0.0,0.0,0.0,0.0,0.5769,0.5763,0.5763,0.5841,0.5948,0.5812,0.5748,0.5737,0.5692,0.559,0.5485,0.5148,0.4853,0.4626,0.0,0.0,0.0,0.0,0.4674,0.4841,0.4954,0.509,0.5227,0.5222,0.5399,0.5713,0.5653,0.6032,0.6894,0.69,0.7152,0.7752,0.7593,0.0,0.0,0.0,0.0,0.0,0.0,0.0,0.0,0.0,0.0,0.0,0.0,0.0,0.0,0.0,0.0,0.0,0.0,0.0,0.866,0.8744,0.8802,0.0,0.0,0.0,0.0,0.0,0.0,0.0,0.0,0.0,0.9834,1.0258,1.0606,0.0,0.0,1.1263,1.1736,1.1565,1.154,1.2003,1.1881,0.0,1.2034,1.217,1.2283,1.2423,1.2656,1.2789,1.2791,1.2923,1.2964,1.2865,1.3012,1.3094,1.3046,1.2811,1.2776,1.3168,1.3252,1.3478,1.4106,1.4402,1.4737,0.6235,0.6339,0.6338,0.6339,0.6339,0.6391,0.6437,0.6419,0.6465,0.6465,0.6414,0.6296,0.6215,0.6147,0.6007,0.0,0.0,0.0,0.6019,0.6,0.5876,0.5847,0.5939,0.5795,0.5747,0.5777,0.5652,0.5598,0.5539,0.5247,0.5005,0.4786,0.0,0.457,0.4521,0.4553,0.4667,0.4854,0.4899,0.4972,0.5104,0.5108,0.5294,0.5683,0.5747,0.6164,0.7033,0.7129,0.7389,0.7894,0.7813,0.7747,0.0,0.0,0.0,0.0,0.0,0.0,0.0,0.0,0.0,0.0,0.0,0.7155,0.7082,0.0,0.0,0.0,0.8027,0.8298,0.8529,0.8675,0.0,0.0,0.0,0.0,0.0,0.0,0.0,0.9829,0.9735,0.9788,1.0136,1.0493,1.0755,1.0885,1.0973,1.1187,1.1629,0.0,1.1496,1.1916,1.1823,1.178,1.2038,1.2086,1.2114,1.2252,1.2347,1.2474,1.2551,1.266,1.2723,1.2773,1.2851,1.2922,1.2922,1.271,1.2792,1.3403,1.3533,1.3728,1.4224,1.4549,1.4943,0.6141,0.6419,0.6411,0.6396,0.6425,0.6558,0.6632,0.6618,0.6752,0.6715,0.6632,0.6632,0.6547,0.6414,0.6364,0.0,0.6369,0.6231,0.6169,0.6179,0.5965,0.5881,0.5885,0.5859,0.5837,0.5846,0.5612,0.5505,0.5479,0.5231,0.509,0.5081,0.4806,0.4683,0.4741,0.4793,0.4874,0.4994,0.5049,0.512,0.5102,0.5124,0.5253,0.5496,0.5828,0.6347,0.7133,0.7329,0.7591,0.794,0.7891,0.7794,0.7719,0.0,0.0,0.0,0.0,0.0,0.0,0.0,0.0,0.0,0.0,0.0,0.0,0.0,0.0,0.7987,0.8481,0.0,0.865,0.8933,0.0,0.0,0.0,0.9095,0.9408,0.9464,0.9605,1.0021,0.0,0.0,1.0507,1.0541,1.063,1.0813,1.0817,1.0963,1.1463,1.15,1.1603,1.1933,1.1943,1.1995,1.2091,1.2148,1.2182,1.2201,1.22,1.2239,1.2246,1.2276,1.2241,1.2249,1.2229,1.2279,1.2271,1.2333,1.2582,1.3564,1.3745,1.3899,1.4172,1.4742,1.5242,0.6403,0.6479,0.6433,0.6531,0.6693,0.6747,0.6757,0.6737,0.679,0.6785,0.6757,0.6737,0.661,0.6406,0.614,0.601,0.601,0.5987,0.597,0.597,0.5708,0.5625,0.5665,0.5453,0.541,0.5505,0.5454,0.5427,0.5427,0.5247,0.5187,0.5179,0.5055,0.4994,0.5014,0.5008,0.5061,0.5177,0.5175,0.5247,0.534,0.522,0.5291,0.5588,0.5838,0.6273,0.6875,0.7205,0.7552,0.7826,0.7915,0.7902,0.7784,0.7743,0.0,0.0,0.0,0.0,0.0,0.0,0.0,0.0,0.0,0.7488,0.7574,0.0,0.7855,0.0,0.8339,0.8691,0.9016,0.9222,0.0,0.0,0.9494,0.965,0.9839,0.9859,1.0028,1.0475,1.0529,1.0637,1.1002,1.1036,1.1057,1.109,1.0994,1.1074,1.1586,1.141,1.1397,1.168,1.1592,1.1496,1.1786,1.2054,1.2207,1.22,1.22,1.22,1.22,1.2303,1.242,1.2427,1.2559,1.2662,1.2626,1.2634,1.2705,1.3008,1.3075,1.3162,1.3505,1.3959,1.4438,0.576,0.5873,0.5996,0.6133,0.6282,0.649,0.6586,0.6586,0.6586,0.6558,0.6586,0.6558,0.6504,0.6347,0.6152,0.6098,0.6071,0.5931,0.585,0.5823,0.5583,0.5473,0.552,0.5359,0.5333,0.5409,0.5409,0.5409,0.5405,0.5333,0.5281,0.5276,0.5255,0.523,0.5226,0.5163,0.5187,0.5304,0.5276,0.5328,0.5405,0.5333,0.5359,0.552,0.5909,0.6342,0.6743,0.7269,0.7725,0.8007,0.8162,0.8194,0.8113,0.8052,0.7968,0.0,0.0,0.0,0.0,0.0,0.0,0.0,0.0,0.0,0.0,0.0,0.8228,0.8513,0.8743,0.9043,0.9356,0.9551,0.9713,0.9765,0.9907,1.0107,1.0292,1.0319,1.0461,1.0873,1.0914,1.0982,1.1172,1.12,1.1227,1.1288,1.1192,1.122,1.14,1.1331,1.1289,1.1525,1.1406,1.1364,1.1594,1.1818,1.1924,1.1931,1.1924,1.1924,1.1931,1.2037,1.2094,1.2101,1.2201,1.2259,1.2259,1.2259,1.2259,1.2273,1.2406,1.271,1.3184,1.3604,1.4127,0.4854,0.5123,0.5373,0.5487,0.5504,0.5939,0.6144,0.62,0.62,0.6228,0.6261,0.6261,0.6256,0.6256,0.6228,0.62,0.62,0.5915,0.5775,0.5775,0.5527,0.5414,0.5414,0.5442,0.5442,0.5414,0.5442,0.5442,0.5442,0.5442,0.5442,0.5414,0.5442,0.5414,0.541,0.5309,0.5305,0.5414,0.5442,0.5442,0.5414,0.5414,0.541,0.5426,0.6014,0.6428,0.6659,0.7395,0.7921,0.8224,0.8408,0.8505,0.8505,0.841,0.8349,0.0,0.8196,0.0,0.0,0.0,0.0,0.0,0.0,0.0,0.0,0.8628,0.8804,0.926,0.9417,0.953,0.968,0.9913,1.0082,1.0078,1.0276,1.0473,1.0738,1.0778,1.0887,1.1193,1.1227,1.1234,1.1261,1.1254,1.1315,1.1396,1.1416,1.1369,1.1295,1.1274,1.1322,1.1409,1.1423,1.1463,1.1558,1.1599,1.1642,1.1633,1.1669,1.1617,1.171,1.1674,1.1717,1.1717,1.173,1.1723,1.1674,1.1681,1.1687,1.173,1.2013,1.2424,1.2998,1.3527,1.4088,0.4892,0.4946,0.4944,0.4946,0.4969,0.4998,0.5274,0.5739,0.5739,0.5855,0.6063,0.6121,0.6121,0.6121,0.5855,0.5739,0.5739,0.5681,0.5652,0.5652,0.5594,0.5565,0.5565,0.5565,0.5565,0.5565,0.5565,0.5565,0.5565,0.5565,0.5565,0.5565,0.5565,0.5565,0.5565,0.0,0.0,0.0,0.5565,0.5565,0.5565,0.5565,0.5528,0.5488,0.6081,0.0,0.6414,0.7286,0.784,0.7921,0.8269,0.0,0.0,0.0,0.0,0.0,0.0,0.0,0.0,0.0,0.0,0.0,0.909,0.9097,0.9063,0.9252,0.953,0.9812,0.9873,0.9954,1.0172,1.0304,1.046,1.0549,1.0698,1.0887,1.1091,1.1111,1.1186,1.1321,1.1348,1.1396,1.1497,1.1531,1.1538,1.1558,1.1572,1.1565,1.1538,1.1518,1.1538,1.1536,1.1536,1.1586,1.1613,1.159,1.1687,1.1719,1.1753,1.1837,1.1975,1.2002,1.2009,1.2002,1.2016,1.2009,1.2009,1.2016,1.1996,1.2016,1.2083,1.2234,1.251,1.3136,1.3837,0.3973,0.3976,0.4099,0.4054,0.0,0.405,0.4186,0.4361,0.4913,0.5233,0.5383,0.5383,0.55,0.5647,0.5471,0.5471,0.5584,0.5584,0.5584,0.5584,0.5584,0.5584,0.5584,0.5584,0.5584,0.5584,0.5584,0.5584,0.5584,0.5584,0.5584,0.5584,0.5584,0.5584,0.5588,0.5658,0.5658,0.5588,0.5584,0.5584,0.5584,0.5584,0.5593,0.5578,0.6152,0.0,0.0,0.0,0.0,0.0,0.0,0.0,0.0,0.9001,0.0,0.9042,0.911,0.9157,0.9164,0.9197,0.9334,0.9505,0.9693,0.9791,0.9612,0.9808,1.0005,1.0116,1.0222,1.0299,1.048,1.0596,1.0772,1.0921,1.1009,1.1111,1.1246,1.1308,1.137,1.147,1.1504,1.1538,1.157,1.1584,1.1584,1.1584,1.1584,1.1611,1.1701,1.1624,1.164,1.1671,1.1692,1.1719,1.1823,1.1837,1.185,1.1932,1.1945,1.1979,1.2084,1.2098,1.2098,1.2098,1.2098,1.2098,1.2098,1.2098,1.2098,1.2098,1.2098,1.2149,1.2345,1.2926,1.359,0.302,0.3047,0.3326,0.3264,0.3047,0.3329,0.3264,0.3072,0.406,0.0,0.0,0.4628,0.4838,0.5134,0.5223,0.5341,0.5574,0.5633,0.5662,0.5662,0.5662,0.5662,0.5662,0.5662,0.5633,0.5662,0.5662,0.5662,0.5662,0.5662,0.5662,0.5662,0.5662,0.5633,0.5666,0.5765,0.5769,0.5666,0.5662,0.5633,0.5662,0.5662,0.5654,0.5638,0.6285,0.6774,0.7076,0.7915,0.8561,0.8887,0.9207,0.941,0.941,0.9437,0.9435,0.9485,0.9483,0.951,0.9567,0.9659,0.9788,0.993,1.0175,1.0263,1.0103,1.0243,1.0344,1.0392,1.0507,1.0636,1.0785,1.0874,1.1043,1.122,1.124,1.1295,1.1402,1.143,1.1484,1.1556,1.1613,1.159,1.1653,1.1631,1.1674,1.1694,1.1721,1.1735,1.183,1.1789,1.1762,1.185,1.187,1.1918,1.2057,1.2084,1.2111,1.2132,1.2139,1.2145,1.2173,1.2179,1.2179,1.2162,1.2179,1.2149,1.2179,1.22,1.2179,1.2173,1.2179,1.2213,1.2353,1.2835,1.3506,0.3083,0.3079,0.3143,0.3111,0.3077,0.3143,0.3143,0.3103,0.351,0.3799,0.4041,0.4319,0.4624,0.4964,0.5235,0.5388,0.5449,0.5723,0.5849,0.588,0.588,0.5849,0.5849,0.588,0.5849,0.5849,0.588,0.5849,0.5849,0.5845,0.588,0.5849,0.5849,0.5849,0.5849,0.5892,0.5892,0.588,0.5849,0.588,0.5849,0.5849,0.5843,0.5795,0.6359,0.6822,0.7105,0.795,0.8561,0.8887,0.9207,0.941,0.9388,0.9517,0.9632,0.9754,0.9852,0.9981,1.0172,1.0175,1.0281,1.0385,1.0439,1.0453,1.0432,1.0446,1.0568,1.0786,1.0833,1.0907,1.1111,1.1118,1.1227,1.1335,1.1355,1.1423,1.1536,1.1586,1.1599,1.164,1.1584,1.1644,1.1746,1.1766,1.1843,1.1959,1.1972,1.2043,1.205,1.205,1.2043,1.2064,1.207,1.2077,1.2125,1.2104,1.2173,1.2237,1.2257,1.2329,1.2386,1.24,1.24,1.2427,1.2406,1.2413,1.242,1.244,1.2413,1.2406,1.2406,1.244,1.2474,1.307,1.367,0.2274,0.2194,0.2032,0.1967,0.1967,0.1967,0.2064,0.2222,0.2353,0.2813,0.3476,0.382,0.417,0.4485,0.48,0.5147,0.5525,0.565,0.5871,0.6059,0.6059,0.6059,0.6059,0.6059,0.6035,0.5963,0.5959,0.5959,0.5959,0.5959,0.5983,0.6055,0.6059,0.6059,0.6059,0.6059,0.6059,0.6055,0.5965,0.5886,0.5886,0.5886,0.5988,0.6098,0.6584,0.7135,0.7799,0.8437,0.8986,0.9476,0.9731,0.99,0.9869,0.9937,0.9998,1.0066,1.0134,1.0209,1.0276,1.0351,1.0493,1.0717,1.0738,1.0778,1.0887,1.0785,1.0799,1.1036,1.1063,1.1124,1.1302,1.1322,1.1383,1.1504,1.1511,1.1579,1.1665,1.1698,1.1769,1.1843,1.1894,1.1884,1.1952,1.1959,1.1972,1.2098,1.2159,1.222,1.2189,1.225,1.2271,1.2241,1.2189,1.2261,1.2315,1.2298,1.2332,1.2393,1.2406,1.2433,1.2494,1.2501,1.2508,1.2501,1.2501,1.2501,1.2508,1.2501,1.2501,1.2508,1.2583,1.261,1.2708,1.3312,1.4203,0.148,0.1401,0.1139,0.1042,0.1009,0.1009,0.1172,0.1401,0.1497,0.1987,0.2766,0.3267,0.3675,0.3997,0.4415,0.4929,0.5476,0.5576,0.5829,0.6182,0.6182,0.6182,0.6182,0.6182,0.6145,0.6056,0.6052,0.6052,0.6048,0.6048,0.6112,0.6206,0.6182,0.6182,0.6182,0.6182,0.6182,0.6174,0.6047,0.5974,0.5978,0.5978,0.6133,0.6469,0.6784,0.7428,0.8422,0.8919,0.9418,1.0013,1.0215,1.0308,1.0308,1.0308,1.0329,1.0324,1.0331,1.039,1.0432,1.0534,1.0711,1.0941,1.0961,1.1063,1.122,1.1111,1.109,1.1227,1.1247,1.1274,1.1409,1.1443,1.1504,1.1647,1.1631,1.1692,1.1857,1.1884,1.1925,1.2077,1.2098,1.2104,1.2139,1.2152,1.2173,1.222,1.2264,1.2332,1.2352,1.244,1.244,1.2379,1.2338,1.2366,1.2481,1.2488,1.2501,1.2535,1.2549,1.2583,1.261,1.2617,1.261,1.263,1.2617,1.263,1.2617,1.2617,1.2623,1.2644,1.2718,1.2819,1.2977,1.3609,1.4582,0.1141,0.114,0.1038,0.1073,0.1072,0.1072,0.1105,0.1172,0.1441,0.1609,0.187,0.2741,0.3325,0.3705,0.4292,0.4843,0.5258,0.5479,0.5801,0.6186,0.6182,0.6182,0.6222,0.6186,0.621,0.617,0.617,0.617,0.617,0.6206,0.621,0.6182,0.6182,0.6186,0.6186,0.6186,0.6218,0.6182,0.6198,0.6189,0.6153,0.6157,0.6349,0.6673,0.6987,0.7657,0.8727,0.91,0.9583,1.0199,1.0308,1.0315,1.0315,1.0315,1.0344,1.0466,1.0512,1.0588,1.0813,1.0867,1.0934,1.1152,1.1179,1.124,1.139,1.1355,1.1348,1.1375,1.1375,1.1436,1.1572,1.1563,1.166,1.1759,1.178,1.187,1.2043,1.2077,1.2084,1.2091,1.2132,1.2152,1.2244,1.2271,1.2318,1.24,1.2433,1.2454,1.2461,1.2481,1.2494,1.2481,1.2481,1.2474,1.2501,1.2501,1.2562,1.2671,1.2665,1.2752,1.2867,1.2921,1.2955,1.2867,1.2921,1.2907,1.2921,1.2955,1.2935,1.2894,1.2935,1.3062,1.3448,1.3884,1.4611,0.0438,0.0404,-0.0034,-0.0067,0.0168,0.037,0.0572,0.0774,0.1144,0.1414,0.1714,0.2691,0.3241,0.3404,0.41,0.4727,0.532,0.5452,0.5814,0.6341,0.6374,0.6378,0.6374,0.6374,0.6317,0.6264,0.6264,0.6259,0.6268,0.6345,0.6374,0.6374,0.6374,0.6374,0.6374,0.6378,0.6374,0.6374,0.6374,0.6374,0.6362,0.6267,0.6438,0.6951,0.7143,0.7815,0.8939,0.9293,0.9729,1.0348,1.0493,1.0541,1.0541,1.0622,1.0664,1.0725,1.0839,1.0941,1.1063,1.1077,1.1172,1.1322,1.1301,1.1362,1.1504,1.1525,1.1523,1.1626,1.1579,1.1586,1.1721,1.1712,1.1803,1.1932,1.1965,1.2026,1.2213,1.2234,1.2223,1.2305,1.2363,1.2338,1.24,1.2413,1.244,1.2494,1.2501,1.2501,1.2501,1.2501,1.2501,1.2501,1.2501,1.2501,1.2508,1.2589,1.2657,1.2686,1.2807,1.2908,1.2982,1.3003,1.2996,1.3009,1.3023,1.3023,1.2982,1.3003,1.3003,1.3023,1.3098,1.3193,1.3438,1.403,1.4682,-0.034,-0.0409,-0.0919,-0.0953,-0.0647,-0.0306,-0.0034,0.0272,0.0851,0.1226,0.1566,0.2721,0.3265,0.3365,0.3984,0.4711,0.5346,0.5413,0.5815,0.6455,0.6489,0.6489,0.6489,0.6489,0.6452,0.6366,0.6353,0.6353,0.6362,0.6448,0.6489,0.6489,0.6489,0.6489,0.6489,0.6489,0.6501,0.6522,0.6526,0.6538,0.6542,0.6398,0.6636,0.7205,0.7298,0.7941,0.9335,0.9555,0.9892,1.059,1.0758,1.0839,1.0846,1.0948,1.0975,1.0982,1.1138,1.122,1.1254,1.1261,1.1329,1.1436,1.1484,1.1523,1.1624,1.1714,1.1782,1.1864,1.1803,1.1796,1.187,1.1898,1.1959,1.2139,1.2159,1.222,1.2325,1.2345,1.2386,1.2481,1.2474,1.2501,1.2501,1.2494,1.2494,1.2501,1.2501,1.2501,1.2501,1.2501,1.2501,1.2501,1.2535,1.2549,1.2528,1.2623,1.2679,1.282,1.2922,1.3071,1.3105,1.3125,1.3125,1.3166,1.3105,1.3091,1.3139,1.3152,1.3118,1.3139,1.3207,1.3302,1.3418,1.412,1.4788,-0.1155,-0.1155,-0.119,-0.1189,-0.1155,-0.0734,-0.056,-0.0384,0.0629,0.1119,0.1363,0.2725,0.3392,0.3418,0.4022,0.4714,0.5352,0.5393,0.5796,0.6472,0.6501,0.6493,0.6489,0.6489,0.6489,0.6493,0.6493,0.6493,0.6489,0.6493,0.6489,0.6493,0.6505,0.6497,0.6501,0.6509,0.6534,0.6578,0.6586,0.6623,0.6692,0.6662,0.6906,0.7431,0.7479,0.8179,0.9489,0.9799,1.0204,1.086,1.105,1.1166,1.1172,1.1179,1.1193,1.12,1.1206,1.1274,1.1362,1.1389,1.1457,1.1563,1.1692,1.1773,1.1786,1.1932,1.205,1.2091,1.207,1.2077,1.2098,1.2098,1.2152,1.2257,1.2277,1.2345,1.2467,1.2467,1.2488,1.2501,1.2501,1.2501,1.2501,1.2501,1.2463,1.2463,1.2463,1.2431,1.2412,1.2437,1.2444,1.2446,1.2506,1.2632,1.2517,1.2698,1.2834,1.2889,1.3024,1.32,1.3308,1.3383,1.3321,1.3356,1.3322,1.3315,1.3363,1.3363,1.3336,1.3329,1.3322,1.339,1.3562,1.4176,1.4886,-0.1649,-0.1824,-0.1614,-0.1509,-0.1439,-0.0877,-0.0596,-0.0491,0.0596,0.1087,0.1368,0.2735,0.34,0.3433,0.413,0.4833,0.5491,0.5526,0.5904,0.6558,0.6627,0.6627,0.6627,0.6627,0.6627,0.6627,0.6627,0.6627,0.6631,0.6627,0.6627,0.6627,0.6627,0.6627,0.6627,0.6627,0.6647,0.6641,0.6676,0.6658,0.669,0.6725,0.7005,0.7628,0.7687,0.8407,0.9912,0.9995,1.0363,1.1049,1.1172,1.12,1.1206,1.1295,1.139,1.1443,1.1457,1.1477,1.1538,1.1619,1.1658,1.1719,1.1891,1.1979,1.2023,1.207,1.2139,1.222,1.2247,1.2244,1.2305,1.2302,1.2302,1.2393,1.2427,1.244,1.2481,1.2501,1.2501,1.2501,1.2501,1.2501,1.2405,1.2269,1.2114,1.2076,1.1921,1.1811,1.1803,1.1822,1.1886,1.1936,1.1959,1.1978,1.194,1.2602,1.3044,1.299,1.3084,1.3124,1.3224,1.3065,1.2962,1.3252,1.3314,1.3397,1.339,1.339,1.3397,1.3397,1.3397,1.3528,1.3776,1.439,1.5133,-0.2025,-0.2203,-0.199,-0.1883,-0.1812,-0.1101,-0.0817,-0.064,0.0568,0.1137,0.1421,0.2734,0.3443,0.3585,0.4223,0.4861,0.5424,0.5561,0.5922,0.6516,0.6655,0.6725,0.6725,0.6725,0.6725,0.6725,0.6725,0.6725,0.6725,0.6725,0.6725,0.6725,0.6725,0.6725,0.6725,0.6725,0.6702,0.6762,0.6766,0.6782,0.6803,0.6811,0.7164,0.7759,0.7901,0.8564,1.0036,1.0136,1.0509,1.1135,1.1315,1.1342,1.1363,1.145,1.1579,1.1638,1.1735,1.1762,1.1775,1.1857,1.1904,1.1911,1.2047,1.2173,1.2173,1.2213,1.2257,1.2332,1.2359,1.242,1.2515,1.2488,1.2454,1.2508,1.2542,1.2576,1.2576,1.2467,1.2377,1.2194,1.2155,1.2187,1.2181,1.1985,1.1834,1.1789,1.1553,1.1439,1.1467,1.1458,1.1476,1.1573,1.1702,1.1726,1.1813,1.2306,1.2529,1.254,1.2611,1.2784,1.2899,1.2733,1.2816,1.3106,1.3272,1.3355,1.3397,1.3397,1.3397,1.3397,1.3445,1.3528,1.3976,1.4555,1.5422,-0.2293,-0.2292,-0.2296,-0.2253,-0.2107,-0.1454,-0.1166,-0.0801,0.0546,0.1199,0.1452,0.2839,0.3486,0.3676,0.4317,0.4911,0.5174,0.5437,0.5771,0.6189,0.6539,0.6679,0.6754,0.6758,0.6718,0.6754,0.6737,0.6706,0.6754,0.6718,0.6754,0.6741,0.6754,0.6762,0.6737,0.6723,0.6782,0.6875,0.6891,0.6932,0.6974,0.697,0.7327,0.7986,0.8059,0.8683,1.0025,1.0234,1.0648,1.1303,1.1531,1.1577,1.1633,1.1705,1.1793,1.185,1.1965,1.2077,1.2084,1.2084,1.2098,1.2125,1.2203,1.2291,1.2305,1.2406,1.2488,1.2501,1.2522,1.2537,1.2626,1.264,1.2586,1.2556,1.2579,1.2607,1.2555,1.2423,1.2107,1.1761,1.1709,1.1619,1.1619,1.1589,1.153,1.1536,1.1462,1.1388,1.1378,1.139,1.1511,1.1553,1.1509,1.1452,1.1711,1.1959,1.1893,1.1887,1.2043,1.2193,1.2401,1.2401,1.2609,1.2858,1.3279,1.3362,1.3397,1.3397,1.3397,1.3397,1.3445,1.3652,1.4183,1.4844,1.5752,-0.2296,-0.2296,-0.2296,-0.215,-0.1932,-0.1422,-0.0912,-0.0292,0.0766,0.1349,0.1824,0.2953,0.3502,0.3682,0.4337,0.4774,0.488,0.5201,0.5689,0.6223,0.6403,0.6654,0.6865,0.6905,0.6905,0.6909,0.6909,0.6905,0.6905,0.6905,0.6909,0.6909,0.6905,0.6909,0.69,0.6909,0.6961,0.6977,0.6981,0.6962,0.6986,0.699,0.7353,0.8005,0.8082,0.8688,0.9876,1.0269,1.0794,1.148,1.1687,1.1809,1.1911,1.1965,1.1993,1.1999,1.2064,1.2098,1.2111,1.22,1.2261,1.2244,1.2352,1.2427,1.2454,1.2569,1.2651,1.2632,1.2752,1.2768,1.2516,1.2409,1.2383,1.2344,1.2423,1.229,1.2063,1.1894,1.1746,1.1631,1.1591,1.1591,1.1517,1.1402,1.1212,1.1166,1.1005,1.0861,1.0929,1.0992,1.0909,1.0982,1.1033,1.1116,1.1257,1.1351,1.134,1.1364,1.1493,1.1778,1.1944,1.2235,1.2443,1.2775,1.3155,1.3362,1.3397,1.3397,1.3397,1.3521,1.3652,1.4018,1.4473,1.5257,1.6163,-0.2296,-0.2296,-0.2187,-0.2005,-0.175,-0.1204,-0.062,0.0073,0.0839,0.1422,0.1968,0.299,0.3502,0.3682,0.4337,0.4701,0.4738,0.4922,0.5359,0.5905,0.6119,0.6337,0.6551,0.6555,0.6555,0.6555,0.6551,0.6627,0.6773,0.6773,0.6845,0.695,0.699,0.6986,0.699,0.699,0.699,0.699,0.6986,0.699,0.699,0.699,0.7297,0.7874,0.8098,0.8737,0.9725,1.017,1.073,1.1408,1.1763,1.1959,1.2091,1.2145,1.2186,1.2193,1.2234,1.223,1.2237,1.2325,1.2372,1.2386,1.2454,1.2535,1.2583,1.2652,1.2699,1.2827,1.2735,1.2655,1.2419,1.2189,1.2087,1.1981,1.2053,1.1931,1.1597,1.1533,1.1417,1.1306,1.126,1.1289,1.1207,1.1085,1.0881,1.084,1.0683,1.053,1.0606,1.0664,1.0677,1.0715,1.0798,1.084,1.0768,1.0773,1.0773,1.0851,1.1023,1.132,1.1653,1.1986,1.2276,1.2858,1.3321,1.3362,1.3397,1.3397,1.3397,1.3611,1.3776,1.4183,1.4638,1.5628,1.6575,-0.2296,-0.2223,-0.1932,-0.175,-0.1604,-0.0875,-0.0292,0.0182,0.0912,0.1495,0.2041,0.2953,0.3427,0.3609,0.4228,0.4592,0.4665,0.4738,0.492,0.5247,0.5538,0.5792,0.5898,0.5934,0.597,0.5898,0.5898,0.6047,0.6373,0.6377,0.6555,0.6881,0.6918,0.699,0.699,0.699,0.699,0.699,0.6998,0.7007,0.7007,0.7019,0.7271,0.7716,0.8053,0.8647,0.9462,1.0018,1.058,1.1271,1.1864,1.2125,1.2159,1.2268,1.2298,1.2305,1.2427,1.2461,1.2488,1.2467,1.2494,1.2515,1.2535,1.2583,1.2725,1.2786,1.2814,1.2876,1.2601,1.237,1.2297,1.2037,1.1682,1.144,1.1529,1.1523,1.1416,1.1339,1.115,1.087,1.0732,1.0726,1.0782,1.0746,1.0746,1.071,1.0699,1.0657,1.0663,1.0704,1.0726,1.0695,1.0695,1.0695,1.0695,1.0695,1.0737,1.0987,1.107,1.1237,1.157,1.1944,1.2401,1.2989,1.3362,1.3403,1.3397,1.3397,1.3397,1.348,1.3769,1.4225,1.4968,1.5958,1.7067,-0.215,-0.1932,-0.1822,-0.1458,-0.0875,-0.0365,0.0255,0.0912,0.1387,0.1827,0.2261,0.2808,0.3068,0.3136,0.3903,0.4262,0.434,0.4558,0.4701,0.4847,0.492,0.532,0.5716,0.5789,0.5789,0.5752,0.5716,0.5861,0.5938,0.5974,0.6155,0.6522,0.6591,0.6704,0.6954,0.6994,0.699,0.7003,0.7064,0.7092,0.7101,0.7191,0.7385,0.7743,0.7897,0.8361,0.9151,0.998,1.081,1.1535,1.2014,1.2284,1.2359,1.2413,1.2433,1.244,1.2474,1.2508,1.2508,1.2515,1.2556,1.2618,1.2671,1.2732,1.2888,1.2996,1.2903,1.2726,1.2553,1.2301,1.1836,1.1594,1.1327,1.097,1.1025,1.1025,1.097,1.0904,1.082,1.0695,1.0695,1.0695,1.0695,1.0695,1.0695,1.0695,1.0695,1.0695,1.0695,1.0695,1.0695,1.0695,1.0695,1.0695,1.0695,1.0695,1.0862,1.1195,1.132,1.1362,1.1736,1.211,1.2692,1.3279,1.3362,1.3397,1.3397,1.3397,1.3397,1.3438,1.4018,1.4555,1.534,1.6287,1.756,-0.2131,-0.1802,-0.1625,-0.1186,-0.0556,0.0,0.0593,0.1186,0.163,0.2,0.2371,0.278,0.2928,0.3002,0.3592,0.3985,0.4116,0.4334,0.4541,0.4701,0.4738,0.4956,0.5247,0.5353,0.532,0.5356,0.532,0.5392,0.5538,0.5538,0.5756,0.6119,0.6301,0.6534,0.6791,0.6974,0.7068,0.7146,0.7158,0.7182,0.719,0.7273,0.7394,0.7642,0.781,0.8279,0.9132,0.9883,1.0724,1.1568,1.1996,1.2228,1.2449,1.2501,1.2501,1.2501,1.2556,1.2596,1.261,1.2651,1.2732,1.2807,1.2827,1.2908,1.2983,1.301,1.2731,1.2652,1.2357,1.1896,1.1528,1.1237,1.0987,1.0779,1.0695,1.0695,1.0695,1.0737,1.0695,1.0695,1.0695,1.0695,1.0695,1.0695,1.0695,1.0695,1.0695,1.0695,1.0695,1.0695,1.0695,1.0695,1.0737,1.0737,1.0862,1.0904,1.1112,1.1403,1.1861,1.1861,1.2069,1.2443,1.2858,1.3314,1.3355,1.3397,1.3397,1.3438,1.3569,1.3811,1.4341,1.4961,1.5711,1.6699,1.7964,-0.2084,-0.1714,-0.1318,-0.0909,-0.0416,0.0265,0.0793,0.1211,0.1624,0.2002,0.2379,0.2761,0.2868,0.2954,0.3313,0.3683,0.3945,0.4094,0.4401,0.4601,0.4661,0.4664,0.47,0.4819,0.4813,0.4813,0.4704,0.4898,0.5128,0.5165,0.5384,0.5763,0.6162,0.6404,0.664,0.6915,0.7186,0.7269,0.7297,0.7272,0.728,0.7343,0.7388,0.751,0.7868,0.8327,0.9041,0.9698,1.0436,1.1605,1.1805,1.2069,1.2385,1.2469,1.2535,1.2569,1.2632,1.2752,1.2773,1.2901,1.2996,1.2969,1.2943,1.3004,1.2996,1.2729,1.2481,1.2363,1.1855,1.1486,1.1237,1.0945,1.0779,1.0695,1.0695,1.0695,1.0695,1.0695,1.0695,1.0695,1.0695,1.0695,1.0695,1.0695,1.0695,1.0695,1.0695,1.0695,1.0695,1.0695,1.0695,1.0695,1.0737,1.0737,1.0945,1.1153,1.1403,1.1736,1.2359,1.2609,1.2692,1.2941,1.3189,1.3397,1.3397,1.3397,1.3397,1.3486,1.3694,1.4025,1.4514,1.5175,1.5925,1.7104,1.8334,-0.1697,-0.1282,-0.0908,-0.0492,-0.0076,0.0379,0.0833,0.1212,0.1629,0.1973,0.2349,0.2501,0.254,0.254,0.296,0.3176,0.3394,0.3842,0.4402,0.4699,0.4429,0.4317,0.4369,0.4496,0.4673,0.4681,0.4754,0.4807,0.4892,0.496,0.5104,0.5509,0.5911,0.6312,0.6586,0.6969,0.7239,0.731,0.7329,0.7362,0.7378,0.7423,0.746,0.7527,0.7881,0.821,0.8535,0.9168,0.9786,1.0486,1.1268,1.1863,1.2108,1.2428,1.2638,1.2672,1.282,1.2908,1.2962,1.2996,1.3057,1.3078,1.2848,1.2656,1.2751,1.2392,1.2032,1.1778,1.1486,1.1195,1.0945,1.0779,1.0695,1.0695,1.0695,1.0695,1.0695,1.0695,1.0695,1.0695,1.0695,1.0695,1.0695,1.0695,1.0695,1.0695,1.0695,1.0695,1.0695,1.0695,1.0695,1.0695,1.0862,1.0904,1.1153,1.1486,1.1902,1.2152,1.2733,1.3106,1.3155,1.3196,1.3355,1.3397,1.3397,1.3397,1.348,1.3735,1.3991,1.4315,1.4784,1.5601,1.651,1.7637,1.8661,-0.1566,-0.1147,-0.0769,-0.0385,0.0039,0.0424,0.0732,0.0963,0.1387,0.1772,0.2081,0.2158,0.2274,0.2466,0.2659,0.2845,0.313,0.3641,0.4011,0.416,0.4009,0.3933,0.3931,0.4076,0.4265,0.4419,0.4481,0.4609,0.4734,0.4791,0.4915,0.5147,0.5566,0.5995,0.6405,0.6869,0.7159,0.7352,0.7427,0.7452,0.7464,0.7497,0.7525,0.7525,0.7764,0.7959,0.8237,0.8583,0.9159,0.9816,1.0616,1.1399,1.1926,1.2318,1.2589,1.2821,1.2976,1.3091,1.3105,1.3132,1.3125,1.2939,1.2699,1.2573,1.2382,1.2027,1.1694,1.1403,1.1195,1.0945,1.0737,1.0695,1.0695,1.0695,1.0695,1.0695,1.0695,1.0695,1.0695,1.0695,1.0695,1.0695,1.0695,1.0695,1.0695,1.0695,1.0695,1.0695,1.0695,1.0695,1.0695,1.0779,1.0945,1.1153,1.1403,1.1819,1.2401,1.2692,1.3106,1.3272,1.3314,1.3355,1.3397,1.3438,1.3486,1.3611,1.3735,1.3991,1.4448,1.4965,1.5578,1.626,1.7193,1.8351,1.9275,-0.1509,-0.1083,-0.0665,-0.0314,0.0039,0.0353,0.0549,0.0667,0.1021,0.1449,0.1845,0.1886,0.2152,0.2433,0.251,0.2732,0.3094,0.3337,0.3629,0.3746,0.3629,0.3553,0.3511,0.3505,0.3615,0.3995,0.4214,0.4441,0.4634,0.4793,0.4894,0.4916,0.5255,0.5787,0.6253,0.6649,0.7053,0.7415,0.7505,0.7474,0.7474,0.7521,0.7525,0.7525,0.7525,0.772,0.7968,0.8259,0.8609,0.9367,0.98,1.0651,1.1555,1.2143,1.2427,1.2876,1.2963,1.3037,1.3022,1.3096,1.3045,1.265,1.2478,1.2312,1.1986,1.1611,1.132,1.1153,1.0987,1.0779,1.0695,1.0695,1.0695,1.0695,1.0695,1.0695,1.0695,1.0695,1.0695,1.0695,1.0695,1.0695,1.0695,1.0695,1.0695,1.0695,1.0695,1.0695,1.0695,1.0737,1.0779,1.0904,1.1112,1.157,1.1861,1.2276,1.2858,1.303,1.3362,1.341,1.3452,1.3611,1.3652,1.3611,1.3652,1.3825,1.4136,1.4504,1.5021,1.5622,1.6231,1.6793,1.7854,1.9086,1.9874,-0.1096,-0.0666,-0.0275,0.0,0.0,0.0,0.0275,0.0589,0.0707,0.1178,0.1807,0.1886,0.2121,0.2435,0.2514,0.2706,0.3008,0.315,0.3344,0.3541,0.3344,0.3148,0.3147,0.2953,0.2996,0.3385,0.3826,0.4228,0.447,0.4768,0.489,0.5062,0.5372,0.5812,0.6279,0.6686,0.7033,0.7443,0.7525,0.7525,0.7525,0.7525,0.7525,0.7525,0.7525,0.7572,0.7706,0.8032,0.8357,0.8548,0.9062,0.9861,1.0731,1.1446,1.2034,1.2514,1.2686,1.2758,1.2764,1.279,1.2609,1.2235,1.1902,1.1653,1.1445,1.1153,1.0945,1.0862,1.082,1.0695,1.0695,1.0695,1.0695,1.0695,1.0695,1.0695,1.0695,1.0695,1.0695,1.0695,1.0695,1.0695,1.0695,1.0695,1.0695,1.0695,1.0695,1.0695,1.0695,1.082,1.0904,1.1112,1.132,1.1861,1.2401,1.2816,1.3279,1.3244,1.3417,1.3444,1.3562,1.3825,1.3908,1.4027,1.4089,1.4268,1.4595,1.4987,1.5504,1.6042,1.6648,1.7298,1.8311,1.9367,2.0216,-0.1021,-0.055,-0.0157,0.0,0.0,0.0,0.0118,0.0314,0.051,0.0982,0.1492,0.1807,0.2121,0.2435,0.2514,0.2632,0.2749,0.2787,0.2944,0.3063,0.2905,0.2787,0.2826,0.2592,0.2632,0.29,0.3394,0.3966,0.4323,0.4576,0.4826,0.5019,0.5257,0.5648,0.6196,0.6506,0.6939,0.733,0.7486,0.7525,0.7525,0.7525,0.7525,0.7525,0.7533,0.755,0.7638,0.7786,0.8149,0.8446,0.8743,0.9264,0.9927,1.0603,1.1346,1.2059,1.2322,1.2401,1.2359,1.2359,1.2193,1.1819,1.1486,1.1278,1.107,1.0862,1.0742,1.0701,1.0695,1.0695,1.0695,1.0695,1.0695,1.0695,1.0695,1.0695,1.0695,1.0695,1.0695,1.0695,1.0695,1.0695,1.0695,1.0695,1.0695,1.0695,1.0695,1.0737,1.0737,1.0904,1.1112,1.1486,1.1778,1.2318,1.2788,1.3133,1.3437,1.3437,1.3527,1.3512,1.3748,1.4055,1.4406,1.4689,1.4757,1.485,1.5074,1.5493,1.5982,1.6467,1.7196,1.7939,1.8732,1.9598,2.0478,-0.0903,-0.0471,-0.0118,0.0,0.0,0.0,0.0039,0.0157,0.0471,0.0942,0.1413,0.1768,0.2121,0.2396,0.2514,0.2514,0.2514,0.2514,0.2553,0.2592,0.2553,0.2514,0.2514,0.2514,0.2514,0.2632,0.2825,0.3454,0.4116,0.4395,0.463,0.4904,0.5022,0.5335,0.6001,0.6275,0.6744,0.7174,0.7486,0.7525,0.7525,0.7525,0.7525,0.7533,0.7502,0.7591,0.7683,0.7797,0.7997,0.8294,0.8532,0.8741,0.9221,0.9611,1.0362,1.1362,1.1778,1.1944,1.1944,1.1778,1.1528,1.1112,1.1112,1.0904,1.0795,1.0686,1.0755,1.0755,1.0744,1.0744,1.0744,1.0712,1.0695,1.0695,1.0695,1.0695,1.0695,1.0695,1.0695,1.0695,1.0695,1.0695,1.0695,1.0695,1.0695,1.0695,1.0737,1.0904,1.0945,1.1153,1.1403,1.1861,1.2276,1.2816,1.3175,1.3305,1.3485,1.3463,1.3635,1.371,1.4005,1.438,1.477,1.5175,1.5531,1.5682,1.5809,1.5987,1.6446,1.7031,1.7785,1.8433,1.9015,1.9928,2.0909,-0.0471,0.0,0.0,0.0,0.0,0.0,0.0196,0.0511,0.0629,0.1099,0.1768,0.1925,0.216,0.2435,0.2514,0.2514,0.2514,0.2514,0.2514,0.2514,0.2514,0.2514,0.2514,0.2514,0.2514,0.2514,0.2553,0.3063,0.3809,0.4241,0.4591,0.4904,0.5022,0.5257,0.5769,0.6157,0.6509,0.6978,0.733,0.7525,0.7525,0.7525,0.7525,0.755,0.7595,0.7696,0.7745,0.7803,0.7946,0.8016,0.8136,0.8382,0.8738,0.8822,0.9156,0.9861,1.0654,1.1445,1.132,1.107,1.0737,1.0409,1.0331,1.0242,1.033,1.0609,1.0853,1.1052,1.0965,1.0905,1.0836,1.0766,1.0717,1.0706,1.0722,1.0712,1.0701,1.0695,1.0695,1.0695,1.0695,1.0695,1.0695,1.0695,1.0695,1.0695,1.0779,1.0945,1.1237,1.1486,1.1861,1.2359,1.2663,1.3126,1.3346,1.3477,1.3573,1.3551,1.3751,1.3945,1.4329,1.4743,1.525,1.5658,1.6039,1.6328,1.6382,1.6585,1.6976,1.7482,1.8165,1.867,1.909,2.0129,2.1259,-0.0158,0.0,0.0,0.0,0.0,0.028,0.0479,0.0675,0.1111,0.1541,0.1887,0.216,0.2357,0.2475,0.2514,0.2514,0.2514,0.2514,0.2514,0.2514,0.2514,0.2514,0.2514,0.2514,0.2514,0.2514,0.2592,0.3024,0.3613,0.4003,0.4356,0.4944,0.5022,0.5218,0.5612,0.6079,0.6509,0.69,0.7256,0.7486,0.7525,0.749,0.755,0.7599,0.7683,0.7753,0.7811,0.7876,0.7962,0.7995,0.8094,0.8144,0.8399,0.8571,0.8863,0.9031,0.9778,1.0195,1.0195,1.0028,0.9866,0.9803,0.9753,0.9906,1.0206,1.0475,1.0779,1.1047,1.1058,1.1025,1.1025,1.0976,1.0869,1.0831,1.0798,1.0755,1.0733,1.0701,1.0695,1.0695,1.0706,1.0775,1.0786,1.0744,1.0728,1.0695,1.082,1.1029,1.1486,1.1944,1.2401,1.2982,1.3168,1.3354,1.3477,1.3545,1.3632,1.3693,1.3921,1.4182,1.4649,1.5104,1.5622,1.6101,1.6491,1.6708,1.6877,1.7169,1.7453,1.7974,1.8497,1.9055,1.9597,2.0424,2.1605,0.0,0.0,0.0,0.008,0.0201,0.0527,0.081,0.1045,0.1606,0.1955,0.2134,0.2362,0.2475,0.2514,0.2514,0.2514,0.2514,0.2514,0.2514,0.2514,0.2514,0.2514,0.2514,0.2514,0.2514,0.2514,0.2514,0.2985,0.3574,0.3925,0.4238,0.4944,0.5022,0.5179,0.5531,0.604,0.6548,0.7099,0.7369,0.7486,0.7529,0.7554,0.7599,0.7652,0.7713,0.7795,0.7872,0.7966,0.8007,0.8081,0.8098,0.8102,0.8186,0.8357,0.8399,0.8441,0.8775,0.8775,0.8859,0.8863,0.904,0.9174,0.9371,0.9597,1.0163,1.0322,1.0565,1.0949,1.1118,1.1107,1.1139,1.1118,1.1041,1.0987,1.0965,1.09,1.0857,1.0857,1.0867,1.0895,1.09,1.0878,1.0884,1.0814,1.0777,1.0712,1.0862,1.1153,1.17,1.2372,1.2788,1.3292,1.3401,1.3512,1.3545,1.3626,1.3714,1.3921,1.4107,1.4495,1.5002,1.5527,1.6038,1.6494,1.6849,1.708,1.726,1.7588,1.7954,1.8322,1.875,1.95,2.0216,2.1042,2.1995,0.0,0.0,0.0,0.0244,0.061,0.0691,0.1139,0.1788,0.1951,0.222,0.2435,0.253,0.2518,0.2515,0.2515,0.2514,0.2514,0.2514,0.2514,0.2514,0.2514,0.2514,0.2514,0.2514,0.2514,0.2514,0.2514,0.2985,0.3613,0.3807,0.4277,0.4904,0.4983,0.5022,0.5335,0.5922,0.6662,0.7213,0.7486,0.7494,0.7558,0.7599,0.7696,0.7709,0.7819,0.7884,0.7896,0.8003,0.8081,0.8102,0.8102,0.8102,0.8102,0.8186,0.8106,0.7855,0.7771,0.7687,0.7478,0.7833,0.8202,0.8399,0.8744,0.923,0.9849,1.0346,1.0605,1.0794,1.1083,1.127,1.1232,1.1177,1.115,1.1101,1.1079,1.1047,1.1014,1.102,1.1036,1.1063,1.1047,1.0998,1.1072,1.1098,1.1097,1.1078,1.1545,1.1837,1.2272,1.2807,1.3091,1.3409,1.3511,1.3572,1.3626,1.3727,1.3926,1.4158,1.4398,1.4913,1.544,1.5969,1.6357,1.6709,1.7024,1.7332,1.7603,1.7866,1.8173,1.8471,1.903,1.9911,2.0815,2.1692,2.2643,0.0,0.0,0.0331,0.0538,0.0699,0.0953,0.1407,0.1973,0.2261,0.245,0.2585,0.2596,0.2542,0.2538,0.2521,0.2514,0.2514,0.2514,0.2517,0.2514,0.2514,0.2514,0.2514,0.2518,0.2514,0.2517,0.2556,0.2946,0.3729,0.3817,0.4319,0.4748,0.4994,0.5022,0.5296,0.5883,0.6705,0.7295,0.7494,0.7506,0.7611,0.7683,0.7757,0.784,0.7868,0.7966,0.8007,0.8081,0.8098,0.8102,0.8102,0.8102,0.8102,0.8102,0.7855,0.7436,0.7352,0.6979,0.6534,0.6983,0.744,0.7901,0.8181,0.8628,0.9414,0.9969,1.0382,1.0712,1.1101,1.1323,1.1412,1.1384,1.1352,1.1286,1.1199,1.1172,1.1161,1.1161,1.1156,1.1166,1.1128,1.1079,1.1208,1.1386,1.1427,1.1456,1.2011,1.2527,1.2891,1.3164,1.338,1.3546,1.3605,1.377,1.3831,1.3966,1.4153,1.4396,1.4685,1.5191,1.5749,1.6093,1.6489,1.6841,1.72,1.7419,1.7735,1.8042,1.8383,1.8777,1.9519,2.0477,2.1389,2.2341,2.3204,0.0082,0.0249,0.0545,0.0796,0.0916,0.13,0.1758,0.2205,0.2494,0.2602,0.2613,0.2586,0.2613,0.2566,0.2553,0.2542,0.2545,0.2545,0.2542,0.2544,0.2545,0.2541,0.2541,0.2542,0.2549,0.254,0.262,0.2979,0.3819,0.3811,0.4331,0.4849,0.5071,0.5068,0.5218,0.5844,0.6716,0.7362,0.7574,0.7611,0.7728,0.7782,0.7782,0.788,0.7958,0.7999,0.804,0.8102,0.8102,0.8102,0.8102,0.8102,0.8102,0.8018,0.7771,0.7436,0.7105,0.6776,0.6307,0.6407,0.6838,0.7239,0.7784,0.8224,0.8805,0.9406,0.9937,1.0426,1.0916,1.1321,1.141,1.1472,1.1444,1.1379,1.1374,1.1352,1.1281,1.127,1.1259,1.1253,1.1313,1.1537,1.1804,1.2027,1.228,1.23,1.2508,1.2926,1.3258,1.345,1.3556,1.3688,1.3727,1.3899,1.4027,1.4116,1.4285,1.4701,1.5022,1.5469,1.5925,1.6269,1.6621,1.698,1.7244,1.7507,1.7945,1.8427,1.8777,1.9074,2.0008,2.0985,2.1952,2.2859,2.3548,0.0248,0.0663,0.0713,0.0926,0.1344,0.1808,0.2228,0.256,0.2645,0.2672,0.2602,0.2615,0.2601,0.26,0.259,0.2585,0.2586,0.2589,0.259,0.2586,0.2582,0.2592,0.2592,0.2589,0.2582,0.2596,0.267,0.3029,0.3888,0.3878,0.4367,0.4935,0.5158,0.5211,0.5111,0.5847,0.6748,0.7568,0.77,0.7753,0.7791,0.786,0.7864,0.7958,0.8007,0.8048,0.8098,0.8102,0.8102,0.8102,0.8102,0.806,0.7976,0.798,0.7604,0.6808,0.6734,0.6307,0.5688,0.6046,0.6379,0.6712,0.7344,0.7914,0.8153,0.8782,0.9629,1.0164,1.0565,1.1054,1.1277,1.1499,1.1488,1.1477,1.1466,1.1455,1.1423,1.1406,1.139,1.1467,1.1853,1.2231,1.2497,1.2814,1.3129,1.3244,1.3191,1.3366,1.3617,1.3705,1.3714,1.3831,1.3899,1.4,1.4122,1.4217,1.4411,1.4866,1.5308,1.5704,1.6145,1.6577,1.6892,1.7112,1.7419,1.7726,1.8296,1.8864,1.9418,2.0062,2.0589,2.1483,2.2492,2.3356,2.4094,0.0291,0.0712,0.0966,0.1346,0.1766,0.1934,0.2271,0.265,0.2691,0.2687,0.2672,0.2603,0.259,0.2586,0.2613,0.2605,0.2604,0.2601,0.2601,0.2604,0.2607,0.2601,0.2604,0.2608,0.2605,0.2602,0.2684,0.3054,0.3901,0.3913,0.4395,0.4958,0.5259,0.5503,0.5916,0.6424,0.6887,0.7585,0.7762,0.7795,0.788,0.7884,0.7962,0.8011,0.809,0.8102,0.8102,0.8102,0.8102,0.806,0.806,0.7939,0.7729,0.7646,0.7227,0.6531,0.6298,0.609,0.5732,0.5882,0.6086,0.6494,0.7016,0.7576,0.7929,0.8782,0.9406,0.9941,1.0387,1.0876,1.1366,1.1499,1.1494,1.1494,1.1488,1.1488,1.1472,1.1472,1.15,1.167,1.1989,1.2577,1.2973,1.3249,1.3575,1.3786,1.3693,1.3697,1.3907,1.3856,1.3802,1.3946,1.4034,1.4116,1.4204,1.4265,1.4557,1.5043,1.544,1.5785,1.6269,1.6805,1.7024,1.72,1.7551,1.7954,1.8699,1.9473,2.0416,2.1126,2.1571,2.2264,2.3315,2.4039,2.46,0.0502,0.0926,0.1346,0.1808,0.2187,0.2229,0.2439,0.265,0.2692,0.2692,0.2687,0.2671,0.2621,0.2615,0.2643,0.2634,0.2634,0.2634,0.2634,0.2632,0.2634,0.2638,0.2637,0.2631,0.2641,0.2632,0.2715,0.3088,0.3917,0.3952,0.445,0.507,0.5264,0.5766,0.6236,0.6618,0.6915,0.7584,0.7852,0.7889,0.7954,0.7991,0.8007,0.8044,0.8102,0.8102,0.8102,0.8102,0.8102,0.806,0.7935,0.7729,0.7436,0.7147,0.6808,0.6324,0.5975,0.5848,0.575,0.5717,0.5923,0.6177,0.6815,0.7307,0.7754,0.8469,0.9273,0.9852,1.0298,1.0832,1.1321,1.1455,1.1499,1.1499,1.1543,1.1543,1.1754,1.1799,1.1858,1.2036,1.2358,1.2892,1.3371,1.367,1.3956,1.4106,1.4211,1.4177,1.4136,1.4055,1.398,1.4068,1.418,1.4197,1.4245,1.4278,1.4646,1.5175,1.5572,1.5961,1.6445,1.698,1.7112,1.7332,1.7822,1.8427,1.9228,2.0097,2.0998,2.175,2.2351,2.3164,2.4163,2.4674,2.5108,0.0926,0.1346,0.1808,0.2229,0.265,0.265,0.2692,0.2692,0.2692,0.2692,0.2691,0.2691,0.2687,0.269,0.2688,0.2684,0.2682,0.2683,0.2682,0.2683,0.2675,0.268,0.2682,0.2682,0.2675,0.2683,0.2767,0.3089,0.3902,0.4264,0.4728,0.5198,0.5352,0.5894,0.6362,0.6691,0.7069,0.7675,0.7942,0.7974,0.8065,0.8044,0.809,0.8102,0.8102,0.8102,0.8102,0.8102,0.8064,0.7897,0.7646,0.7436,0.7189,0.6937,0.6518,0.6141,0.5765,0.5717,0.5698,0.5709,0.5814,0.6097,0.6726,0.7084,0.7531,0.825,0.9183,0.9808,1.0253,1.0787,1.1277,1.141,1.1543,1.1543,1.1588,1.1804,1.2098,1.2229,1.231,1.2532,1.2884,1.3322,1.3724,1.4055,1.4122,1.4197,1.4258,1.4258,1.4231,1.4238,1.4183,1.4197,1.4251,1.4272,1.4343,1.4387,1.4829,1.5352,1.5704,1.6093,1.6621,1.7112,1.7244,1.7559,1.8182,1.8919,1.9895,2.076,2.1511,2.2276,2.3046,2.3801,2.4744,2.499,2.538,0.0926,0.1346,0.1808,0.2271,0.265,0.2692,0.2692,0.2692,0.2692,0.2692,0.2692,0.2692,0.2692,0.2692,0.2692,0.2692,0.2692,0.2692,0.2691,0.2692,0.2692,0.2692,0.2692,0.2692,0.2692,0.2692,0.2819,0.3153,0.3992,0.45,0.4962,0.5382,0.5384,0.593,0.6376,0.6638,0.7259,0.7758,0.8011,0.8032,0.8094,0.8102,0.8102,0.8102,0.8102,0.8102,0.8102,0.8102,0.798,0.7604,0.7478,0.7227,0.643,0.6353,0.6117,0.5808,0.567,0.5695,0.5703,0.573,0.5831,0.6231,0.6905,0.7084,0.7531,0.8335,0.9317,0.9852,1.0298,1.0832,1.1321,1.1499,1.1677,1.181,1.1943,1.2204,1.2491,1.2633,1.2717,1.2953,1.33,1.3568,1.3964,1.4163,1.4255,1.4299,1.4299,1.4299,1.4299,1.4299,1.4299,1.4299,1.4299,1.4299,1.4476,1.4557,1.5043,1.5528,1.5881,1.6269,1.6805,1.7156,1.7375,1.7909,1.869,1.9683,2.0769,2.1476,2.2091,2.3007,2.3774,2.4537,2.5184,2.5454,2.578,0.1223,0.1651,0.2075,0.2456,0.2668,0.2668,0.2705,0.2694,0.2692,0.2692,0.2692,0.2692,0.2692,0.2692,0.2692,0.2692,0.2692,0.2692,0.2692,0.2692,0.2692,0.2692,0.2692,0.2692,0.2692,0.2692,0.2819,0.3153,0.4036,0.4836,0.5384,0.5384,0.5384,0.593,0.643,0.6759,0.7219,0.7763,0.8098,0.8102,0.8102,0.8102,0.8102,0.8102,0.8102,0.8102,0.8102,0.8102,0.7813,0.7394,0.7314,0.6828,0.6174,0.5993,0.5916,0.567,0.5709,0.5676,0.5722,0.5959,0.6186,0.6633,0.7259,0.7706,0.8067,0.8737,0.954,1.0164,1.052,1.0921,1.1277,1.1677,1.1899,1.2165,1.2432,1.2654,1.2858,1.3004,1.3202,1.3382,1.3621,1.3796,1.4041,1.4204,1.4299,1.4299,1.4299,1.4299,1.4299,1.4299,1.4299,1.4299,1.4299,1.4343,1.452,1.4734,1.5175,1.5616,1.6049,1.6445,1.6936,1.7444,1.7812,1.8496,1.9302,2.0278,2.1231,2.1955,2.2612,2.3504,2.4372,2.5104,2.5616,2.5922,2.6285,0.1653,0.2138,0.2526,0.2696,0.2695,0.2692,0.2676,0.2694,0.2692,0.2692,0.2692,0.2692,0.2692,0.2692,0.2692,0.2692,0.2692,0.2692,0.2692,0.2692,0.2692,0.2692,0.2692,0.2692,0.2692,0.2692,0.2819,0.3153,0.4036,0.4878,0.5384,0.5384,0.551,0.5972,0.6601,0.6811,0.7311,0.7893,0.8102,0.8102,0.8102,0.8102,0.8102,0.8102,0.8102,0.8102,0.8102,0.798,0.7813,0.736,0.6916,0.644,0.6072,0.5831,0.5722,0.5758,0.5833,0.5914,0.604,0.6276,0.6633,0.717,0.784,0.8465,0.8956,0.9313,1.0075,1.0431,1.0787,1.1188,1.1632,1.1899,1.2165,1.252,1.2875,1.3192,1.347,1.3543,1.3537,1.371,1.3817,1.3994,1.4048,1.4204,1.4299,1.4299,1.4299,1.4299,1.4299,1.4299,1.4299,1.4299,1.4299,1.4343,1.452,1.4778,1.5219,1.566,1.6181,1.6577,1.7024,1.7637,1.8312,1.9026,1.9811,2.0708,2.1598,2.2287,2.3096,2.3962,2.4783,2.556,2.6061,2.63,2.6573,0.1963,0.2141,0.2589,0.2759,0.2696,0.2695,0.2679,0.2692,0.2692,0.2692,0.2692,0.2692,0.2692,0.2692,0.2692,0.2692,0.2692,0.2692,0.2692,0.2692,0.2692,0.2692,0.2692,0.2692,0.2692,0.2692,0.2819,0.3237,0.4036,0.4836,0.5426,0.5426,0.5636,0.6179,0.6685,0.6933,0.7478,0.806,0.8118,0.8118,0.8118,0.811,0.8102,0.8102,0.8102,0.811,0.8026,0.7779,0.7393,0.6961,0.6509,0.6081,0.575,0.5684,0.5676,0.5786,0.6089,0.6207,0.6445,0.6812,0.7304,0.784,0.8554,0.9268,0.9803,1.0159,1.0476,1.0787,1.1099,1.1543,1.1899,1.2165,1.2476,1.292,1.3363,1.3723,1.4033,1.3988,1.3891,1.3927,1.4027,1.4061,1.4116,1.4177,1.4265,1.4299,1.4299,1.4299,1.4299,1.4299,1.4299,1.4299,1.4299,1.4387,1.452,1.4911,1.5396,1.5925,1.6409,1.6761,1.7112,1.7863,1.8628,1.9489,2.0334,2.1193,2.1979,2.2714,2.355,2.4452,2.5103,2.5833,2.63,2.6573,2.6755,0.2238,0.2432,0.2722,0.2806,0.2735,0.2722,0.274,0.2714,0.2698,0.2692,0.2692,0.2692,0.2692,0.2692,0.2692,0.2692,0.2692,0.2692,0.2692,0.2692,0.2692,0.2692,0.2692,0.2692,0.2692,0.2734,0.3153,0.3658,0.412,0.4878,0.5426,0.5468,0.5846,0.6308,0.6727,0.7189,0.7653,0.8064,0.8101,0.8121,0.8117,0.8139,0.811,0.8102,0.8106,0.8122,0.7991,0.7708,0.7287,0.6791,0.6271,0.5952,0.5695,0.5701,0.582,0.6053,0.6344,0.6589,0.6902,0.7438,0.8019,0.8554,0.9402,1.0159,1.0337,1.0698,1.0965,1.1277,1.1588,1.1988,1.2254,1.252,1.2926,1.3369,1.3723,1.4033,1.4166,1.415,1.4119,1.4119,1.417,1.4183,1.4224,1.4231,1.4299,1.4299,1.4299,1.4299,1.4299,1.4299,1.4299,1.4343,1.4387,1.4513,1.4778,1.5175,1.566,1.6189,1.6629,1.72,1.7699,1.8284,1.9009,1.9956,2.0817,2.1537,2.2363,2.3162,2.4064,2.5001,2.556,2.6106,2.6436,2.6755,2.6891,0.2436,0.2791,0.2861,0.2856,0.2826,0.2795,0.2765,0.2692,0.2706,0.2692,0.2692,0.2692,0.2692,0.2692,0.2692,0.2692,0.2692,0.2692,0.2692,0.2692,0.2692,0.2692,0.2692,0.2692,0.2777,0.3071,0.3532,0.3868,0.4204,0.4962,0.5426,0.551,0.5894,0.6401,0.6783,0.726,0.7788,0.8061,0.8179,0.8211,0.8183,0.8142,0.8125,0.8151,0.8143,0.8138,0.8063,0.7715,0.7238,0.6869,0.6323,0.6042,0.5974,0.6014,0.6252,0.6538,0.6933,0.717,0.7527,0.8287,0.8688,0.9224,1.0204,1.0743,1.0921,1.1232,1.1499,1.181,1.2121,1.2387,1.2654,1.292,1.3369,1.3723,1.4033,1.4255,1.4299,1.4292,1.4285,1.4278,1.4278,1.4285,1.4292,1.4299,1.4299,1.4299,1.4299,1.4299,1.4299,1.4299,1.4299,1.4387,1.4476,1.469,1.4948,1.5389,1.5837,1.6269,1.6753,1.7551,1.826,1.8805,1.9508,2.0462,2.1284,2.2039,2.279,2.356,2.4509,2.5423,2.5833,2.6243,2.6664,2.6891,2.6936,0.2743,0.291,0.2917,0.2857,0.2827,0.2796,0.2766,0.2693,0.2706,0.2692,0.2692,0.2692,0.2692,0.2692,0.2692,0.2692,0.2692,0.2692,0.2692,0.2692,0.2692,0.2692,0.2692,0.2692,0.2945,0.3323,0.3742,0.412,0.4418,0.5051,0.5387,0.5432,0.6375,0.6773,0.695,0.7486,0.8085,0.8264,0.8277,0.8266,0.8309,0.8289,0.8246,0.8238,0.8281,0.8293,0.809,0.7446,0.7146,0.6858,0.6612,0.6373,0.6388,0.6576,0.6854,0.7218,0.7617,0.8019,0.851,0.9179,0.958,1.0115,1.0921,1.1232,1.1499,1.1899,1.2165,1.2476,1.2742,1.2831,1.3053,1.3325,1.3723,1.3989,1.4299,1.4299,1.4299,1.4299,1.4292,1.4292,1.4292,1.4292,1.4299,1.4299,1.4299,1.4299,1.4299,1.4299,1.4299,1.4299,1.4299,1.4431,1.4564,1.4778,1.5036,1.5484,1.5969,1.6357,1.6884,1.7639,1.84,1.9178,1.9967,2.0779,2.1718,2.2546,2.3271,2.4005,2.4783,2.556,2.597,2.6391,2.68,2.7027,2.7027]},{"header":{"parameterUnit":"m.s-1","parameterCategory":1,"la1":31.0,"la2":29.5877,"lo1":-88.7671,"lo2":-86.6584,"dy":0.0162,"dx":0.0185,"nx":115,"ny":88,"refTime":"2023-09-27T18:00:00:Z","depth":0,"parameterNumber":3,"parameterNumberName":"V-component_of_WINDS"},"data":[0.0,0.0,0.0,0.0,0.0,0.0,0.0,0.0,0.0,0.0,0.0,0.0,0.0,0.0,0.0,0.0,0.0,0.0,0.0,0.0,0.0,0.0,0.0,0.0,0.0,0.0,0.0,0.0,0.0,0.0,0.0,0.0,0.0,0.0,0.0,0.0,0.0,0.0,0.0,0.0,0.0,0.0,0.0,0.0,0.0,0.0,0.0,0.0,0.0,0.0,0.0,0.0,0.0,0.0,0.0,0.0,0.0,0.0,0.0,0.0,0.0,0.0,0.0,0.0,0.0,0.0,0.0,0.0,0.0,0.0,0.0,0.0,0.0,0.0,0.0,0.0,0.0,0.0,0.0,0.0,0.0,0.0,0.0,0.0,0.0,0.0,0.0,0.0,0.0,0.0,0.0,0.0,0.0,0.0,0.0,0.0,0.0,0.0,0.0,0.0,0.0,0.0,0.0,0.0,0.0,0.0,0.0,0.0,0.0,0.0,0.0,0.0,0.0,0.0,0.0,0.0,0.0,0.0,0.0,0.0,0.0,0.0,0.0,0.0,0.0,0.0,0.0,0.0,0.0,0.0,0.0,0.0,0.0,0.0,0.0,0.0,0.0,0.0,0.0,0.0,0.0,0.0,0.0,0.0,0.0,0.0,0.0,0.0,0.0,0.0,0.0,0.0,0.0,0.0,0.0,0.0,0.0,0.0,0.0,0.0,0.0,0.0,0.0,0.0,0.0,0.0,0.0,0.0,0.0,0.0,0.0,0.0,0.0,0.0,0.0,0.0,0.0,0.0,0.0,0.0,0.0,0.0,0.0,0.0,0.0,0.0,0.0,0.0,0.0,0.0,0.0,0.0,0.0,0.0,0.0,0.0,0.0,0.0,0.0,0.0,0.0,0.0,0.0,0.0,0.0,0.0,0.0,0.0,0.0,0.0,0.0,0.0,0.0,0.0,0.0,0.0,0.0,0.0,0.0,0.0,0.0,0.0,0.0,0.0,0.0,0.0,0.0,0.0,0.0,0.0,0.0,0.0,0.0,0.0,0.0,0.0,0.0,0.0,0.0,0.0,0.0,0.0,0.0,0.0,0.0,0.0,0.0,0.0,0.0,0.0,0.0,0.0,0.0,0.0,0.0,0.0,0.0,0.0,0.0,0.0,0.0,0.0,0.0,0.0,0.0,0.0,0.0,0.0,0.0,0.0,0.0,0.0,0.0,0.0,0.0,0.0,0.0,0.0,0.0,0.0,0.0,0.0,0.0,0.0,0.0,0.0,0.0,0.0,0.0,0.0,0.0,0.0,0.0,0.0,0.0,0.0,0.0,0.0,0.0,0.0,0.0,0.0,0.0,0.0,0.0,0.0,0.0,0.0,0.0,0.0,0.0,0.0,0.0,0.0,0.0,0.0,0.0,0.0,0.0,0.0,0.0,0.0,0.0,0.0,0.0,0.0,0.0,0.0,0.0,0.0,0.0,0.0,0.0,0.0,0.0,0.0,0.0,0.0,0.0,0.0,0.0,0.0,0.0,0.0,0.0,0.0,0.0,0.0,0.0,0.0,0.0,0.0,0.0,0.0,0.0,0.0,0.0,0.0,0.0,0.0,0.0,0.0,0.0,0.0,0.0,0.0,0.0,0.0,0.0,0.0,0.0,0.0,0.0,0.0,0.0,0.0,0.0,0.0,0.0,0.0,0.0,0.0,0.0,0.0,0.0,0.0,0.0,0.0,0.0,0.0,0.0,0.0,0.0,0.0,0.0,0.0,0.0,0.0,0.0,0.0,0.0,0.0,0.0,0.0,0.0,0.0,0.0,0.0,0.0,0.0,0.0,0.0,0.0,0.0,0.0,0.0,0.0,0.0,0.0,0.0,0.0,0.0,0.0,0.0,0.0,0.0,0.0,0.0,0.0,0.0,0.0,0.0,0.0,0.0,0.0,0.0,0.0,0.0,0.0,0.0,0.0,0.0,0.0,0.0,0.0,0.0,0.0,0.0,0.0,0.0,0.0,0.0,0.0,0.0,0.0,0.0,0.0,0.0,0.0,0.0,0.0,0.0,0.0,0.0,0.0,0.0,0.0,0.0,0.0,0.0,0.0,0.0,0.0,0.0,0.0,0.0,0.0,0.0,0.0,0.0,0.0,0.0,0.0,0.0,0.0,0.0,0.0,0.0,0.0,0.0,0.0,0.0,0.0,0.0,0.0,0.0,0.0,0.0,0.0,0.0,0.0,0.0,0.0,0.0,0.0,0.0,0.0,0.0,0.0,0.0,0.0,0.0,0.0,0.0,0.0,0.0,0.0,0.0,0.0,0.0,0.0,0.0,0.0,0.0,0.0,0.0,0.0,0.0,0.0,0.0,0.0,0.0,0.0,0.0,0.0,0.0,0.0,0.0,0.0,0.0,0.0,0.0,0.0,0.0,0.0,0.0,0.0,0.0,0.0,0.0,0.0,0.0,0.0,0.0,0.0,0.0,0.0,0.0,0.0,0.0,0.0,0.0,0.0,0.0,0.0,0.0,0.0,0.0,0.0,0.0,0.0,0.0,0.0,0.0,0.0,0.0,0.0,0.0,0.0,0.0,0.0,0.0,0.0,0.0,0.0,0.0,0.0,0.0,0.0,0.0,0.0,0.0,0.0,0.0,0.0,0.0,0.0,0.0,0.0,0.0,0.0,0.0,0.0,0.0,0.0,0.0,0.0,0.0,0.0,0.0,0.0,0.0,0.0,0.0,0.0,0.0,0.0,0.0,0.0,0.0,0.0,0.0,0.0,0.0,0.0,0.0,0.0,0.0,0.0,0.0,0.0,0.0,0.0,0.0,0.0,0.0,0.0,0.0,0.0,0.0,0.0,0.0,0.0,0.0,0.0,0.0,0.0,0.0,0.0,0.0,0.0,0.0,0.0,0.0,0.0,0.0,0.0,0.0,0.0,0.0,0.0,0.0,0.0,0.0,0.0,0.0,0.0,0.0,0.0,0.0,0.0,0.0,0.0,0.0,0.0,0.0,0.0,0.0,0.0,0.0,0.0,0.0,0.0,0.0,0.0,0.0,0.0,0.0,0.0,0.0,0.0,0.0,0.0,0.0,0.0,0.0,0.0,0.0,0.0,0.0,0.0,0.0,0.0,0.0,0.0,0.0,0.0,0.0,0.0,0.0,0.0,0.0,0.0,0.0,0.0,0.0,0.0,0.0,0.0,0.0,0.0,0.0,0.0,0.0,0.0,0.0,0.0,0.0,0.0,0.0,0.0,0.0,0.0,0.0,0.0,0.0,0.0,0.0,0.0,0.0,0.0,0.0,0.0,0.0,0.0,0.0,0.0,0.0,0.0,0.0,0.0,0.0,0.0,0.0,0.0,0.0,0.0,0.0,0.0,0.0,0.0,0.0,0.0,0.0,0.0,0.0,0.0,0.0,0.0,0.0,0.0,0.0,0.0,0.0,0.0,0.0,0.0,0.0,0.0,0.0,0.0,0.0,0.0,0.0,0.0,0.0,0.0,0.0,0.0,0.0,0.0,0.0,0.0,0.0,0.0,0.0,0.0,0.0,0.0,0.0,0.0,0.0,0.0,0.0,0.0,0.0,0.0,0.0,0.0,0.0,0.0,0.0,0.0,0.0,0.0,0.0,0.0,0.0,0.0,0.0,0.0,0.0,0.0,0.0,0.0,0.0,0.0,0.0,0.0,0.0,0.0,0.0,0.0,0.0,0.0,0.0,0.0,0.0,0.0,0.0,0.0,0.0,0.0,0.0,0.0,0.0,0.0,0.0,0.0,0.0,0.0,0.0,0.0,0.0,0.0,0.0,0.0,0.0,0.0,0.0,0.0,0.0,0.0,0.0,0.0,0.0,0.0,0.0,0.0,0.0,0.0,0.0,0.0,0.0,0.0,0.0,0.0,0.0,0.0,0.0,0.0,0.0,0.0,0.0,0.0,0.0,0.0,0.0,0.0,0.0,0.0,0.0,0.0,0.0,0.0,0.0,0.0,0.0,0.0,0.0,0.0,0.0,0.0,0.0,0.0,0.0,0.0,0.0,0.0,0.0,0.0,0.0,0.0,0.0,0.0,0.0,0.0,0.0,0.0,0.0,0.0,0.0,0.0,0.0,0.0,0.0,0.0,0.0,0.0,0.0,0.0,0.0,0.0,0.0,0.0,0.0,0.0,0.0,0.0,0.0,0.0,0.0,0.0,0.0,0.0,0.0,0.0,0.0,0.0,0.0,0.0,0.0,0.0,0.0,0.0,0.0,0.0,0.0,0.0,0.0,0.0,0.0,0.0,0.0,0.0,0.0,2.04,0.0,0.0,0.0,0.0,0.0,0.0,0.0,0.0,0.0,0.0,0.0,0.0,0.0,0.0,0.0,0.0,0.0,0.0,0.0,0.0,0.0,0.0,0.0,0.0,0.0,0.0,0.0,0.0,0.0,0.0,0.0,0.0,0.0,0.0,0.0,0.0,0.0,0.0,0.0,0.0,0.0,0.0,0.0,0.0,0.0,0.0,0.0,0.0,0.0,0.0,0.0,0.0,0.0,0.0,0.0,0.0,0.0,0.0,0.0,0.0,0.0,0.0,0.0,0.0,0.0,0.0,0.0,0.0,0.0,0.0,0.0,0.0,0.0,0.0,0.0,0.0,0.0,0.0,0.0,0.0,0.0,0.0,0.0,0.0,0.0,0.0,0.0,0.0,0.0,0.0,0.0,0.0,0.0,0.0,0.0,0.0,0.0,0.0,0.0,0.0,0.0,0.0,0.0,0.0,0.0,0.0,0.0,0.0,0.0,0.0,2.111,2.109,2.1129,2.113,2.1089,0.0,0.0,0.0,0.0,0.0,0.0,0.0,0.0,0.0,0.0,0.0,0.0,0.0,0.0,0.0,0.0,0.0,0.0,0.0,0.0,0.0,0.0,0.0,0.0,0.0,0.0,0.0,0.0,0.0,0.0,0.0,0.0,0.0,0.0,0.0,0.0,0.0,0.0,0.0,0.0,0.0,0.0,0.0,0.0,0.0,0.0,0.0,0.0,0.0,0.0,0.0,0.0,0.0,0.0,0.0,0.0,0.0,0.0,0.0,0.0,0.0,0.0,0.0,0.0,0.0,0.0,0.0,0.0,0.0,0.0,0.0,0.0,0.0,0.0,0.0,0.0,0.0,0.0,0.0,0.0,0.0,0.0,0.0,0.0,0.0,0.0,0.0,0.0,0.0,0.0,0.0,0.0,0.0,0.0,0.0,0.0,0.0,0.0,0.0,0.0,0.0,0.0,0.0,0.0,0.0,0.0,0.0,0.0,0.0,0.0,0.0,0.0,2.197,2.1892,2.1703,0.0,0.0,0.0,0.0,0.0,0.0,0.0,0.0,0.0,0.0,0.0,0.0,0.0,0.0,0.0,0.0,0.0,0.0,0.0,0.0,0.0,0.0,0.0,0.0,0.0,0.0,0.0,0.0,0.0,0.0,0.0,0.0,0.0,0.0,0.0,0.0,0.0,0.0,0.0,0.0,0.0,0.0,0.0,0.0,0.0,0.0,0.0,0.0,0.0,0.0,0.0,0.0,0.0,0.0,0.0,0.0,0.0,0.0,0.0,0.0,0.0,0.0,0.0,0.0,0.0,0.0,0.0,0.0,0.0,0.0,0.0,0.0,0.0,0.0,0.0,0.0,0.0,0.0,0.0,0.0,0.0,0.0,0.0,0.0,0.0,0.0,0.0,0.0,0.0,0.0,0.0,0.0,0.0,0.0,0.0,0.0,0.0,0.0,0.0,0.0,0.0,0.0,0.0,0.0,0.0,0.0,0.0,0.0,0.0,0.0,2.2057,2.2791,2.2791,0.0,2.1722,0.0,0.0,0.0,0.0,0.0,0.0,0.0,0.0,0.0,0.0,0.0,0.0,0.0,0.0,0.0,0.0,0.0,0.0,0.0,0.0,0.0,0.0,0.0,0.0,0.0,0.0,0.0,0.0,0.0,0.0,0.0,0.0,0.0,0.0,0.0,0.0,0.0,0.0,0.0,0.0,0.0,0.0,0.0,0.0,0.0,0.0,0.0,0.0,0.0,0.0,0.0,0.0,0.0,0.0,0.0,0.0,0.0,0.0,0.0,0.0,0.0,0.0,0.0,0.0,0.0,0.0,0.0,0.0,0.0,0.0,0.0,0.0,0.0,0.0,0.0,0.0,0.0,0.0,0.0,0.0,0.0,0.0,0.0,0.0,0.0,0.0,0.0,0.0,0.0,0.0,0.0,0.0,0.0,0.0,0.0,0.0,0.0,0.0,0.0,0.0,0.0,0.0,0.0,0.0,0.0,0.0,0.0,0.0,0.0,0.0,2.2828,2.3637,2.3172,2.252,0.0,0.0,0.0,0.0,0.0,0.0,0.0,0.0,0.0,0.0,0.0,0.0,0.0,0.0,0.0,0.0,0.0,0.0,0.0,0.0,0.0,0.0,0.0,0.0,0.0,0.0,0.0,0.0,0.0,0.0,0.0,0.0,0.0,0.0,0.0,0.0,0.0,0.0,0.0,0.0,0.0,0.0,0.0,0.0,0.0,0.0,0.0,0.0,0.0,0.0,0.0,0.0,0.0,0.0,0.0,0.0,0.0,0.0,0.0,0.0,0.0,0.0,0.0,0.0,0.0,0.0,0.0,0.0,0.0,0.0,0.0,0.0,0.0,0.0,0.0,0.0,0.0,0.0,0.0,0.0,0.0,0.0,0.0,0.0,0.0,0.0,0.0,0.0,0.0,0.0,0.0,0.0,0.0,0.0,0.0,0.0,0.0,0.0,0.0,0.0,0.0,0.0,0.0,0.0,0.0,0.0,0.0,0.0,0.0,0.0,2.2824,2.3675,2.4445,2.3714,2.2865,2.2054,0.0,0.0,0.0,0.0,0.0,0.0,0.0,0.0,0.0,0.0,0.0,0.0,0.0,0.0,0.0,0.0,0.0,0.0,0.0,0.0,0.0,0.0,0.0,0.0,0.0,0.0,0.0,0.0,0.0,0.0,0.0,0.0,0.0,0.0,0.0,0.0,0.0,0.0,0.0,0.0,0.0,0.0,0.0,0.0,0.0,0.0,0.0,0.0,0.0,0.0,0.0,0.0,0.0,0.0,0.0,0.0,0.0,0.0,0.0,0.0,0.0,0.0,0.0,0.0,0.0,0.0,0.0,0.0,0.0,0.0,0.0,0.0,0.0,0.0,0.0,0.0,0.0,0.0,0.0,0.0,0.0,0.0,0.0,0.0,0.0,0.0,0.0,0.0,0.0,0.0,0.0,0.0,0.0,0.0,0.0,0.0,0.0,0.0,0.0,0.0,0.0,0.0,0.0,0.0,0.0,0.0,0.0,0.0,2.2826,2.3674,2.4561,2.5374,2.4602,2.3751,0.0,0.0,0.0,0.0,0.0,0.0,0.0,0.0,0.0,0.0,0.0,0.0,0.0,0.0,0.0,0.0,0.0,0.0,0.0,0.0,0.0,0.0,0.0,0.0,0.0,0.0,0.0,0.0,0.0,0.0,0.0,0.0,0.0,0.0,0.0,0.0,0.0,0.0,0.0,0.0,0.0,0.0,0.0,0.0,0.0,0.0,0.0,0.0,0.0,0.0,0.0,0.0,0.0,0.0,0.0,0.0,0.0,0.0,0.0,0.0,0.0,0.0,0.0,0.0,0.0,0.0,0.0,0.0,0.0,0.0,0.0,0.0,0.0,0.0,0.0,0.0,0.0,0.0,0.0,0.0,0.0,0.0,0.0,0.0,0.0,0.0,0.0,0.0,0.0,0.0,0.0,0.0,0.0,0.0,0.0,0.0,0.0,0.0,0.0,0.0,0.0,0.0,0.0,0.0,0.0,0.0,0.0,0.0,0.0,2.2942,2.4291,2.518,2.5449,2.4679,2.3791,0.0,0.0,0.0,0.0,0.0,0.0,0.0,0.0,0.0,0.0,0.0,0.0,0.0,0.0,0.0,0.0,0.0,0.0,0.0,0.0,0.0,0.0,0.0,0.0,0.0,0.0,0.0,0.0,0.0,0.0,0.0,0.0,0.0,0.0,0.0,0.0,0.0,0.0,0.0,0.0,0.0,0.0,0.0,0.0,0.0,0.0,0.0,0.0,0.0,0.0,0.0,0.0,0.0,0.0,0.0,0.0,0.0,0.0,0.0,0.0,0.0,0.0,0.0,0.0,0.0,0.0,0.0,0.0,0.0,0.0,0.0,0.0,0.0,0.0,0.0,0.0,0.0,0.0,0.0,0.0,0.0,0.0,0.0,0.0,0.0,0.0,0.0,0.0,0.0,0.0,0.0,0.0,0.0,0.0,0.0,0.0,0.0,0.0,0.0,0.0,0.0,0.0,0.0,0.0,0.0,0.0,0.0,0.0,0.0,2.3714,0.0,2.5528,2.549,2.495,2.406,0.0,0.0,0.0,0.0,0.0,0.0,0.0,0.0,0.0,0.0,0.0,0.0,0.0,0.0,0.0,0.0,0.0,0.0,0.0,0.0,0.0,0.0,0.0,0.0,0.0,0.0,0.0,0.0,0.0,0.0,0.0,0.0,0.0,0.0,0.0,0.0,0.0,0.0,0.0,0.0,0.0,0.0,0.0,0.0,0.0,0.0,0.0,0.0,0.0,0.0,0.0,0.0,0.0,0.0,0.0,0.0,0.0,0.0,0.0,0.0,0.0,0.0,0.0,0.0,0.0,0.0,0.0,0.0,0.0,0.0,0.0,0.0,0.0,0.0,0.0,0.0,0.0,0.0,0.0,0.0,0.0,0.0,0.0,0.0,0.0,0.0,0.0,0.0,0.0,0.0,0.0,0.0,0.0,0.0,0.0,0.0,0.0,0.0,0.0,0.0,0.0,0.0,0.0,0.0,0.0,0.0,0.0,0.0,2.3751,2.5412,2.549,2.5528,2.5528,2.549,2.4679,0.0,0.0,0.0,0.0,0.0,0.0,0.0,0.0,0.0,0.0,0.0,0.0,0.0,0.0,0.0,0.0,0.0,0.0,0.0,0.0,0.0,0.0,0.0,0.0,0.0,0.0,0.0,0.0,0.0,0.0,0.0,0.0,0.0,0.0,0.0,0.0,0.0,0.0,0.0,0.0,0.0,0.0,0.0,0.0,0.0,0.0,0.0,0.0,0.0,0.0,0.0,0.0,0.0,0.0,0.0,0.0,0.0,0.0,0.0,0.0,0.0,0.0,0.0,0.0,0.0,0.0,0.0,0.0,0.0,0.0,0.0,0.0,0.0,0.0,0.0,0.0,0.0,0.0,0.0,0.0,0.0,0.0,0.0,0.0,0.0,0.0,0.0,0.0,0.0,0.0,0.0,0.0,0.0,0.0,0.0,0.0,0.0,0.0,0.0,0.0,0.0,0.0,0.0,0.0,0.0,0.0,0.0,0.0,0.0,2.5451,2.5528,2.5528,2.5528,2.5528,2.4948,0.0,0.0,0.0,0.0,0.0,0.0,0.0,0.0,0.0,0.0,0.0,0.0,0.0,0.0,0.0,0.0,0.0,0.0,0.0,0.0,0.0,0.0,0.0,0.0,0.0,0.0,0.0,0.0,0.0,0.0,0.0,0.0,0.0,0.0,0.0,0.0,0.0,0.0,0.0,0.0,0.0,0.0,0.0,0.0,0.0,0.0,0.0,0.0,0.0,0.0,0.0,0.0,0.0,0.0,0.0,0.0,0.0,0.0,0.0,0.0,0.0,0.0,0.0,0.0,0.0,0.0,0.0,0.0,0.0,0.0,0.0,0.0,0.0,0.0,0.0,0.0,0.0,0.0,0.0,0.0,0.0,0.0,0.0,0.0,0.0,0.0,0.0,0.0,0.0,0.0,0.0,0.0,0.0,0.0,0.0,0.0,0.0,0.0,0.0,0.0,0.0,0.0,0.0,0.0,0.0,0.0,0.0,0.0,0.0,2.5913,2.595,2.6109,2.6418,2.6107,2.5528,2.4718,0.0,0.0,0.0,0.0,0.0,0.0,0.0,0.0,0.0,0.0,0.0,0.0,0.0,0.0,0.0,0.0,0.0,0.0,0.0,0.0,0.0,0.0,0.0,0.0,0.0,0.0,0.0,0.0,0.0,0.0,0.0,0.0,0.0,0.0,0.0,0.0,0.0,0.0,0.0,0.0,0.0,0.0,0.0,0.0,0.0,0.0,0.0,0.0,0.0,0.0,0.0,0.0,0.0,0.0,0.0,0.0,0.0,0.0,0.0,0.0,0.0,0.0,0.0,0.0,0.0,0.0,0.0,0.0,0.0,0.0,0.0,0.0,0.0,0.0,0.0,0.0,0.0,0.0,0.0,0.0,0.0,0.0,0.0,0.0,0.0,0.0,0.0,0.0,0.0,0.0,0.0,0.0,0.0,0.0,0.0,0.0,0.0,0.0,0.0,0.0,0.0,0.0,0.0,0.0,0.0,0.0,0.0,0.0,2.6839,2.6839,2.723,2.7933,2.7192,2.6414,0.0,0.0,0.0,0.0,0.0,0.0,0.0,0.0,0.0,0.0,0.0,0.0,0.0,0.0,0.0,0.0,0.0,0.0,0.0,0.0,0.0,0.0,0.0,0.0,0.0,0.0,0.0,0.0,0.0,0.0,0.0,0.0,0.0,0.0,0.0,0.0,0.0,0.0,0.0,0.0,0.0,0.0,0.0,0.0,0.0,0.0,0.0,0.0,0.0,0.0,0.0,0.0,0.0,0.0,0.0,0.0,0.0,0.0,0.0,0.0,0.0,0.0,0.0,0.0,0.0,0.0,0.0,0.0,0.0,0.0,0.0,0.0,0.0,0.0,0.0,0.0,0.0,0.0,0.0,0.0,0.0,0.0,0.0,0.0,0.0,0.0,0.0,0.0,0.0,0.0,0.0,0.0,0.0,0.0,0.0,0.0,0.0,0.0,0.0,0.0,0.0,0.0,0.0,0.0,0.0,0.0,0.0,0.0,0.0,2.8548,2.8625,2.8431,2.801,2.7778,2.7271,0.0,0.0,0.0,0.0,0.0,0.0,0.0,0.0,0.0,0.0,0.0,0.0,0.0,0.0,0.0,0.0,0.0,0.0,0.0,0.0,0.0,0.0,0.0,0.0,0.0,0.0,0.0,0.0,0.0,0.0,0.0,0.0,0.0,0.0,0.0,0.0,0.0,0.0,0.0,0.0,0.0,0.0,0.0,0.0,0.0,0.0,0.0,0.0,0.0,0.0,0.0,0.0,0.0,0.0,0.0,0.0,0.0,0.0,0.0,0.0,0.0,0.0,0.0,0.0,0.0,0.0,0.0,0.0,0.0,0.0,0.0,0.0,0.0,0.0,0.0,0.0,0.0,0.0,0.0,0.0,0.0,0.0,0.0,0.0,0.0,0.0,0.0,0.0,0.0,0.0,0.0,0.0,0.0,0.0,0.0,0.0,0.0,0.0,0.0,0.0,0.0,0.0,0.0,0.0,0.0,0.0,0.0,0.0,2.8468,2.9824,3.0172,3.0131,2.9631,2.8898,2.8124,0.0,0.0,0.0,0.0,0.0,0.0,0.0,0.0,0.0,0.0,0.0,0.0,0.0,0.0,0.0,0.0,0.0,0.0,0.0,0.0,0.0,0.0,0.0,0.0,0.0,0.0,0.0,0.0,0.0,0.0,0.0,0.0,0.0,0.0,0.0,0.0,0.0,0.0,0.0,0.0,0.0,0.0,0.0,0.0,0.0,0.0,0.0,0.0,0.0,0.0,0.0,0.0,0.0,0.0,0.0,0.0,0.0,0.0,0.0,0.0,0.0,0.0,0.0,0.0,0.0,0.0,0.0,0.0,0.0,0.0,0.0,0.0,0.0,0.0,0.0,0.0,0.0,0.0,0.0,0.0,0.0,0.0,0.0,0.0,0.0,0.0,0.0,0.0,0.0,0.0,0.0,0.0,0.0,0.0,0.0,0.0,0.0,0.0,0.0,0.0,0.0,0.0,0.0,0.0,0.0,0.0,0.0,0.0,2.9865,3.0711,3.1524,3.1949,3.1908,3.0404,2.913,0.0,0.0,0.0,0.0,0.0,0.0,0.0,0.0,0.0,0.0,0.0,0.0,0.0,0.0,0.0,0.0,0.0,0.0,0.0,0.0,0.0,0.0,0.0,0.0,0.0,0.0,0.0,0.0,0.0,0.0,0.0,0.0,0.0,0.0,0.0,0.0,0.0,0.0,0.0,0.0,0.0,0.0,0.0,0.0,0.0,0.0,0.0,0.0,0.0,0.0,0.0,0.0,0.0,0.0,0.0,0.0,0.0,0.0,0.0,0.0,0.0,0.0,0.0,0.0,0.0,0.0,0.0,0.0,0.0,0.0,0.0,0.0,0.0,0.0,0.0,0.0,0.0,0.0,0.0,0.0,0.0,0.0,0.0,0.0,0.0,0.0,0.0,0.0,0.0,0.0,0.0,0.0,0.0,0.0,0.0,0.0,0.0,0.0,0.0,0.0,0.0,0.0,0.0,0.0,0.0,0.0,0.0,0.0,3.0714,3.1524,3.2372,3.2834,3.2834,3.1831,3.0559,0.0,0.0,0.0,0.0,0.0,0.0,0.0,0.0,0.0,0.0,0.0,0.0,0.0,0.0,0.0,0.0,0.0,0.0,0.0,0.0,0.0,0.0,0.0,0.0,0.0,0.0,0.0,0.0,0.0,0.0,0.0,0.0,0.0,0.0,0.0,0.0,0.0,0.0,0.0,0.0,0.0,0.0,0.0,0.0,0.0,0.0,0.0,0.0,3.6239,0.0,0.0,0.0,0.0,0.0,0.0,0.0,0.0,0.0,0.0,0.0,0.0,0.0,0.0,0.0,0.0,0.0,0.0,0.0,0.0,0.0,0.0,0.0,0.0,0.0,0.0,0.0,0.0,0.0,0.0,0.0,0.0,0.0,0.0,0.0,0.0,0.0,0.0,0.0,0.0,0.0,0.0,0.0,0.0,0.0,0.0,0.0,0.0,0.0,0.0,0.0,0.0,0.0,0.0,0.0,0.0,0.0,0.0,0.0,3.1562,3.2408,3.3264,3.3692,3.369,3.2875,3.164,0.0,0.0,0.0,0.0,0.0,0.0,0.0,0.0,0.0,0.0,0.0,0.0,0.0,0.0,0.0,0.0,0.0,0.0,0.0,0.0,0.0,0.0,0.0,0.0,0.0,0.0,0.0,0.0,0.0,0.0,0.0,0.0,0.0,0.0,0.0,0.0,0.0,0.0,0.0,0.0,0.0,0.0,0.0,0.0,0.0,0.0,0.0,0.0,0.0,0.0,0.0,0.0,0.0,0.0,0.0,0.0,0.0,0.0,0.0,0.0,0.0,0.0,0.0,0.0,0.0,0.0,0.0,0.0,0.0,0.0,0.0,0.0,0.0,0.0,0.0,0.0,0.0,0.0,0.0,0.0,0.0,0.0,0.0,0.0,0.0,0.0,0.0,0.0,0.0,0.0,0.0,0.0,0.0,0.0,0.0,0.0,0.0,0.0,0.0,0.0,0.0,0.0,0.0,0.0,0.0,0.0,0.0,3.0711,3.2331,3.3104,3.4079,3.4587,3.4585,3.3612,3.2447,3.1021,0.0,0.0,0.0,0.0,0.0,0.0,0.0,0.0,0.0,0.0,0.0,0.0,0.0,0.0,0.0,0.0,0.0,0.0,0.0,0.0,0.0,0.0,0.0,0.0,0.0,0.0,0.0,0.0,0.0,0.0,0.0,0.0,0.0,0.0,0.0,0.0,0.0,0.0,3.1707,3.3838,0.0,0.0,0.0,0.0,0.0,0.0,0.0,0.0,3.7788,0.0,0.0,0.0,0.0,0.0,0.0,0.0,0.0,0.0,0.0,0.0,0.0,0.0,0.0,0.0,0.0,0.0,0.0,0.0,0.0,0.0,0.0,0.0,0.0,0.0,0.0,0.0,0.0,0.0,0.0,0.0,0.0,0.0,0.0,0.0,0.0,0.0,0.0,0.0,0.0,0.0,0.0,0.0,0.0,0.0,0.0,0.0,0.0,0.0,0.0,0.0,0.0,0.0,0.0,0.0,0.0,2.9093,3.1601,3.2952,3.3107,3.4659,3.5474,3.5436,3.3919,3.2988,3.2565,0.0,0.0,0.0,0.0,0.0,0.0,0.0,0.0,0.0,0.0,0.0,0.0,0.0,0.0,0.0,0.0,0.0,0.0,0.0,0.0,0.0,0.0,0.0,0.0,0.0,0.0,0.0,0.0,0.0,0.0,0.0,0.0,0.0,0.0,0.0,0.0,0.0,0.0,0.0,3.6189,3.7283,0.0,0.0,0.0,0.0,0.0,0.0,0.0,0.0,3.9223,0.0,0.0,0.0,0.0,0.0,0.0,0.0,0.0,0.0,0.0,0.0,0.0,0.0,0.0,0.0,0.0,0.0,0.0,0.0,0.0,0.0,0.0,0.0,0.0,0.0,0.0,0.0,0.0,0.0,0.0,0.0,0.0,0.0,0.0,0.0,0.0,0.0,0.0,0.0,0.0,0.0,0.0,0.0,0.0,0.0,0.0,0.0,0.0,0.0,0.0,0.0,0.0,0.0,0.0,0.0,2.9981,3.2024,3.3339,3.377,3.5049,3.5706,3.5668,3.4466,3.3535,0.0,0.0,0.0,0.0,0.0,0.0,0.0,0.0,0.0,0.0,0.0,0.0,0.0,0.0,0.0,0.0,0.0,0.0,0.0,0.0,0.0,0.0,0.0,0.0,0.0,0.0,0.0,0.0,0.0,0.0,0.0,0.0,0.0,0.0,0.0,0.0,0.0,0.0,0.0,0.0,3.744,3.8277,3.9104,0.0,0.0,0.0,0.0,0.0,0.0,3.9895,3.9786,0.0,0.0,0.0,0.0,0.0,0.0,0.0,0.0,0.0,0.0,0.0,0.0,0.0,0.0,0.0,0.0,0.0,0.0,0.0,0.0,0.0,0.0,0.0,0.0,0.0,0.0,0.0,0.0,0.0,0.0,0.0,0.0,0.0,0.0,0.0,0.0,0.0,0.0,0.0,0.0,0.0,0.0,0.0,0.0,0.0,0.0,0.0,0.0,0.0,0.0,0.0,0.0,0.0,0.0,0.0,3.083,3.2333,3.3535,3.4391,3.5242,3.5706,3.5706,3.4858,3.4004,0.0,0.0,0.0,0.0,0.0,0.0,0.0,0.0,0.0,0.0,0.0,0.0,0.0,0.0,0.0,0.0,0.0,0.0,0.0,0.0,0.0,0.0,0.0,0.0,0.0,0.0,0.0,0.0,0.0,0.0,0.0,0.0,0.0,0.0,0.0,0.0,0.0,0.0,0.0,0.0,0.0,3.9347,3.9974,4.0246,0.0,0.0,0.0,0.0,4.0393,4.0279,0.0,0.0,0.0,0.0,0.0,0.0,0.0,0.0,0.0,0.0,0.0,0.0,0.0,0.0,0.0,0.0,0.0,0.0,0.0,0.0,0.0,0.0,0.0,0.0,0.0,0.0,0.0,0.0,0.0,0.0,0.0,0.0,0.0,0.0,0.0,0.0,0.0,0.0,0.0,0.0,0.0,0.0,0.0,0.0,0.0,0.0,0.0,0.0,0.0,0.0,0.0,0.0,0.0,0.0,0.0,0.0,3.1601,3.2602,3.3535,3.4391,3.5242,3.5706,3.5706,3.4855,3.4004,0.0,0.0,0.0,0.0,0.0,0.0,0.0,0.0,0.0,0.0,0.0,0.0,0.0,0.0,0.0,0.0,0.0,0.0,0.0,0.0,0.0,0.0,0.0,0.0,0.0,0.0,0.0,0.0,0.0,0.0,0.0,0.0,0.0,0.0,0.0,0.0,0.0,0.0,0.0,0.0,0.0,4.0844,4.094,4.1609,4.208,0.0,0.0,4.2103,4.2103,4.1535,0.0,0.0,0.0,0.0,0.0,0.0,0.0,0.0,0.0,0.0,0.0,0.0,0.0,0.0,0.0,0.0,0.0,0.0,0.0,0.0,0.0,0.0,0.0,0.0,0.0,0.0,0.0,0.0,0.0,0.0,0.0,0.0,0.0,0.0,0.0,0.0,0.0,0.0,0.0,0.0,0.0,0.0,0.0,0.0,0.0,0.0,0.0,0.0,0.0,0.0,0.0,0.0,0.0,0.0,0.0,2.9981,3.2447,3.3883,3.4969,3.582,3.6668,3.69,3.64,3.6013,3.5204,0.0,0.0,0.0,0.0,0.0,0.0,0.0,0.0,0.0,0.0,0.0,0.0,0.0,0.0,0.0,0.0,0.0,0.0,0.0,0.0,0.0,0.0,0.0,0.0,0.0,0.0,0.0,0.0,0.0,0.0,0.0,0.0,0.0,0.0,0.0,0.0,0.0,0.0,0.0,0.0,0.0,0.0,4.1713,4.2145,0.0,0.0,0.0,4.2407,4.2407,0.0,0.0,0.0,0.0,0.0,0.0,0.0,0.0,0.0,0.0,0.0,0.0,0.0,0.0,0.0,0.0,0.0,0.0,0.0,0.0,0.0,0.0,0.0,0.0,0.0,0.0,0.0,0.0,0.0,0.0,0.0,0.0,0.0,0.0,0.0,0.0,0.0,0.0,0.0,0.0,0.0,0.0,0.0,0.0,0.0,0.0,0.0,0.0,0.0,0.0,0.0,0.0,0.0,0.0,0.0,0.0,0.0,3.338,3.493,3.6209,3.7209,3.7867,3.7906,3.7248,3.7016,0.0,0.0,0.0,0.0,0.0,0.0,0.0,0.0,0.0,0.0,0.0,0.0,0.0,0.0,0.0,0.0,0.0,0.0,0.0,0.0,0.0,0.0,0.0,0.0,0.0,0.0,0.0,2.9442,0.0,0.0,0.0,0.0,0.0,0.0,0.0,0.0,0.0,0.0,0.0,0.0,0.0,0.0,4.2308,4.286,4.3362,4.3639,0.0,0.0,4.3663,4.3681,4.3308,4.2847,0.0,0.0,0.0,0.0,0.0,0.0,0.0,0.0,0.0,0.0,0.0,0.0,0.0,0.0,0.0,0.0,0.0,0.0,0.0,0.0,0.0,0.0,0.0,0.0,0.0,0.0,0.0,0.0,0.0,0.0,0.0,0.0,0.0,0.0,0.0,0.0,0.0,0.0,0.0,0.0,0.0,0.0,0.0,0.0,0.0,0.0,0.0,0.0,0.0,0.0,0.0,0.0,0.0,0.0,3.1761,3.4239,3.5242,3.6516,3.806,3.8174,3.8174,3.8096,3.7328,3.6513,0.0,0.0,0.0,0.0,0.0,0.0,0.0,0.0,0.0,0.0,0.0,0.0,0.0,0.0,0.0,0.0,0.0,0.0,0.0,0.0,0.0,0.0,0.0,0.0,0.0,0.0,0.0,0.0,0.0,0.0,0.0,0.0,0.0,0.0,0.0,0.0,0.0,0.0,0.0,0.0,0.0,4.4662,4.4632,4.6013,4.7017,0.0,4.7036,4.71,4.7118,4.584,4.4814,4.4738,0.0,0.0,0.0,0.0,0.0,0.0,0.0,0.0,0.0,0.0,0.0,0.0,0.0,0.0,0.0,0.0,0.0,0.0,0.0,0.0,0.0,0.0,0.0,0.0,0.0,0.0,0.0,0.0,0.0,0.0,0.0,0.0,0.0,0.0,0.0,0.0,0.0,0.0,0.0,0.0,0.0,0.0,0.0,0.0,0.0,0.0,0.0,0.0,0.0,0.0,0.0,0.0,0.0,3.2609,3.5165,3.6555,3.7831,3.8956,3.9536,3.9533,3.9033,3.8688,3.7834,0.0,0.0,0.0,0.0,0.0,0.0,0.0,0.0,0.0,0.0,0.0,0.0,0.0,0.0,0.0,0.0,0.0,0.0,0.0,0.0,0.0,0.0,0.0,0.0,0.0,0.0,0.0,0.0,3.5443,3.6467,3.6429,0.0,0.0,0.0,0.0,0.0,0.0,0.0,0.0,0.0,0.0,4.5243,4.6247,4.6986,0.0,0.0,4.7403,4.739,4.7454,4.6885,4.6316,4.5829,4.5216,0.0,0.0,0.0,0.0,0.0,0.0,0.0,0.0,0.0,0.0,0.0,0.0,0.0,0.0,0.0,0.0,0.0,0.0,0.0,0.0,0.0,0.0,0.0,0.0,0.0,0.0,0.0,0.0,0.0,0.0,0.0,0.0,0.0,0.0,0.0,0.0,0.0,0.0,0.0,0.0,0.0,0.0,0.0,0.0,0.0,0.0,0.0,0.0,0.0,0.0,0.0,0.0,3.4002,3.6052,3.7986,3.9379,4.0236,4.1122,4.1122,4.0271,4.0004,3.9188,0.0,0.0,0.0,0.0,0.0,0.0,0.0,0.0,0.0,0.0,0.0,0.0,0.0,0.0,0.0,0.0,0.0,0.0,0.0,0.0,0.0,0.0,0.0,0.0,0.0,0.0,0.0,0.0,3.6937,3.7938,3.8176,0.0,0.0,0.0,0.0,0.0,0.0,0.0,0.0,0.0,0.0,4.6613,4.7979,4.8435,4.8707,4.8928,4.8966,4.8972,4.8954,4.8783,4.839,4.7827,0.0,0.0,0.0,0.0,0.0,0.0,0.0,0.0,0.0,0.0,0.0,0.0,0.0,0.0,0.0,0.0,0.0,0.0,0.0,0.0,0.0,0.0,0.0,0.0,0.0,0.0,0.0,2.5173,0.0,0.0,2.5291,0.0,0.0,0.0,0.0,0.0,0.0,0.0,0.0,0.0,0.0,0.0,0.0,0.0,0.0,0.0,0.0,0.0,0.0,0.0,0.0,0.0,0.0,3.6013,3.6903,3.9423,4.1087,4.1935,4.2783,4.2825,4.1973,4.12,4.0352,3.9459,0.0,0.0,0.0,0.0,0.0,0.0,0.0,0.0,0.0,0.0,0.0,0.0,0.0,0.0,0.0,0.0,0.0,0.0,0.0,0.0,0.0,0.0,0.0,0.0,0.0,0.0,3.723,3.8219,3.9143,0.0,0.0,0.0,0.0,0.0,0.0,0.0,0.0,0.0,4.5179,4.7266,4.9093,4.9943,5.0786,5.1503,5.2296,5.2448,5.2475,5.2488,5.1834,5.13,0.0,0.0,0.0,0.0,0.0,0.0,0.0,0.0,0.0,0.0,0.0,0.0,0.0,0.0,0.0,0.0,0.0,0.0,0.0,0.0,0.0,0.0,0.0,0.0,0.0,0.0,0.0,2.8552,2.8599,0.0,0.0,0.0,0.0,0.0,0.0,0.0,0.0,0.0,0.0,0.0,3.6543,3.7677,0.0,0.0,0.0,0.0,0.0,0.0,0.0,0.0,0.0,0.0,0.0,0.0,3.6965,3.9403,4.0372,4.1496,4.289,4.3239,4.3239,4.2929,4.2675,4.1822,4.0285,0.0,0.0,0.0,0.0,0.0,0.0,0.0,0.0,0.0,0.0,0.0,0.0,0.0,0.0,0.0,0.0,0.0,0.0,0.0,0.0,0.0,0.0,0.0,0.0,0.0,3.8175,0.0,0.0,0.0,0.0,0.0,0.0,0.0,0.0,0.0,0.0,0.0,4.717,4.8274,4.9644,5.0856,5.1662,5.2005,5.2493,0.0,0.0,0.0,0.0,0.0,0.0,0.0,0.0,0.0,0.0,0.0,0.0,0.0,0.0,5.1553,4.8927,4.8408,4.8371,4.8244,0.0,0.0,0.0,0.0,0.0,0.0,0.0,0.0,0.0,0.0,0.0,0.0,0.0,0.0,3.2837,3.258,3.2643,0.0,0.0,0.0,0.0,0.0,0.0,0.0,0.0,3.7745,3.895,3.9569,4.0423,4.0384,0.0,3.9542,3.8235,0.0,0.0,0.0,0.0,0.0,0.0,0.0,0.0,3.8583,4.0713,4.1679,4.2687,4.3814,4.4125,4.4125,4.3853,4.3552,4.2789,4.1524,4.071,3.9567,0.0,0.0,0.0,0.0,0.0,0.0,0.0,0.0,0.0,0.0,0.0,0.0,0.0,0.0,0.0,0.0,0.0,0.0,0.0,0.0,0.0,0.0,0.0,4.0634,0.0,0.0,0.0,0.0,0.0,0.0,0.0,0.0,0.0,4.6593,4.7722,4.9129,5.0473,5.1388,5.2336,5.3448,0.0,0.0,0.0,0.0,0.0,0.0,0.0,5.5085,5.4513,5.4836,5.521,5.5268,5.5773,5.6202,5.6268,0.0,0.0,5.2431,5.1916,5.1839,5.1692,5.1671,5.163,5.1517,5.2085,5.2762,0.0,0.0,0.0,0.0,3.5768,0.0,0.0,0.0,3.7745,3.7646,0.0,3.6941,0.0,0.0,0.0,0.0,3.5899,3.7546,0.0,0.0,4.0848,4.209,4.2167,4.2979,4.2941,4.2209,4.2243,4.1835,4.0792,3.7613,0.0,0.0,0.0,0.0,0.0,0.0,4.0906,4.1103,4.3468,4.4784,4.4861,4.5601,4.5601,4.4817,4.3975,4.3411,4.3226,4.2447,4.1543,4.0606,3.8946,0.0,0.0,0.0,0.0,0.0,0.0,0.0,0.0,0.0,0.0,0.0,0.0,0.0,0.0,0.0,0.0,0.0,0.0,0.0,0.0,4.1749,0.0,0.0,0.0,0.0,0.0,0.0,0.0,0.0,0.0,0.0,4.9634,5.0199,5.0938,5.1802,0.0,0.0,0.0,0.0,5.6052,5.7664,5.7931,5.7893,5.7893,5.787,5.7822,5.7746,0.0,0.0,5.7846,5.7898,5.7957,5.8026,5.8077,5.7522,5.5897,5.5419,5.5219,5.5035,5.4969,5.5032,5.4928,5.5205,5.5734,4.146,0.0,0.0,0.0,0.0,3.9462,3.9581,3.9595,3.9823,3.983,3.9605,3.9589,0.0,0.0,0.0,0.0,0.0,0.0,4.0884,4.1003,4.2344,4.3634,4.4802,4.5096,4.538,4.5696,4.5741,4.5321,4.4468,4.2895,4.1199,3.9456,0.0,0.0,0.0,0.0,4.2674,4.4424,4.5237,4.6244,4.7487,4.7684,4.7389,4.6525,4.5628,4.487,4.4152,4.3875,4.332,4.2343,4.122,0.0,0.0,0.0,0.0,0.0,0.0,0.0,0.0,0.0,0.0,0.0,0.0,0.0,0.0,0.0,0.0,0.0,0.0,0.0,4.2805,4.3465,4.425,0.0,0.0,0.0,0.0,0.0,0.0,0.0,0.0,0.0,5.455,5.4353,5.4405,0.0,0.0,5.6784,5.7207,5.7321,5.7685,5.8667,5.8891,0.0,5.8821,5.8832,5.857,5.7981,5.829,5.8901,5.954,6.0151,6.0502,6.0523,6.1051,6.1273,6.0724,5.8696,5.7184,5.6894,5.6835,5.6822,5.6709,5.6836,5.7114,4.5631,4.3722,4.3051,4.2735,4.2735,4.3083,4.3234,4.3276,4.3585,4.3585,4.3238,4.3255,4.303,4.2724,4.2744,0.0,0.0,0.0,4.4044,4.4086,4.5009,4.5958,4.6891,4.6988,4.723,4.7698,4.7753,4.7523,4.7019,4.6502,4.5467,4.392,0.0,4.2371,4.3241,4.3552,4.4639,4.6427,4.6854,4.7553,4.8561,4.8599,4.8344,4.7788,4.723,4.6625,4.6028,4.5658,4.5062,4.4064,4.3205,4.2185,0.0,0.0,0.0,0.0,0.0,0.0,0.0,0.0,0.0,0.0,0.0,3.6493,3.6865,0.0,0.0,0.0,4.1536,4.3194,4.5059,4.5827,0.0,0.0,0.0,0.0,0.0,0.0,0.0,5.4353,5.4687,5.5511,5.7671,5.7488,5.7161,5.7335,5.7796,5.8232,5.8464,0.0,5.8968,6.0079,6.0297,6.0425,6.0693,6.0763,6.0558,6.0052,6.0351,6.0804,6.1346,6.1882,6.2188,6.2258,6.2641,6.2985,6.2985,6.1274,5.9859,5.9685,5.9656,5.9611,5.9535,5.9457,5.952,4.8913,4.8759,4.7105,4.6239,4.6078,4.6848,4.7192,4.7273,4.8043,4.797,4.7192,4.7192,4.677,4.6,4.6007,0.0,4.6046,4.6932,4.7255,4.7333,4.8147,4.8551,4.859,4.8593,4.8635,4.8713,4.878,4.8792,4.8795,4.8743,4.868,4.8602,4.5489,4.4323,4.5103,4.5844,4.6621,4.7512,4.8291,4.8716,4.8796,4.8755,4.8702,4.8714,4.8558,4.8414,4.8265,4.7445,4.6612,4.5761,4.4898,4.3645,4.2031,0.0,0.0,0.0,0.0,0.0,0.0,0.0,0.0,0.0,0.0,0.0,0.0,0.0,0.0,4.1942,4.4273,0.0,4.7103,4.864,0.0,0.0,0.0,5.1746,5.3356,5.3505,5.4472,5.7016,0.0,0.0,5.9588,5.9781,5.9527,5.87,5.854,5.8791,5.9491,5.9683,6.022,6.1748,6.1985,6.2253,6.2752,6.286,6.2854,6.277,6.3129,6.2962,6.3,6.3154,6.316,6.3199,6.3282,6.3352,6.3314,6.3262,6.3253,6.297,6.281,6.2696,6.2475,6.2303,6.2142,5.2383,5.2295,5.1238,4.9611,4.7815,4.8005,4.8082,4.8124,4.8314,4.8275,4.8082,4.8124,4.7984,4.7854,4.785,4.7866,4.7866,4.8105,4.8186,4.8186,4.8454,4.8896,4.9481,4.9544,4.9903,5.0521,5.0566,5.0569,5.0569,4.992,4.9612,4.9535,4.8094,4.7512,4.7706,4.7903,4.8408,4.926,4.9496,4.992,5.0539,4.9923,4.9562,4.9529,4.8871,4.8463,4.8342,4.7503,4.6856,4.6613,4.5766,4.4816,4.3727,4.3496,0.0,0.0,0.0,0.0,0.0,0.0,0.0,0.0,0.0,4.0525,4.2018,0.0,4.3714,0.0,4.6405,4.8366,5.049,5.1644,0.0,0.0,5.4016,5.49,5.5978,5.6093,5.7055,5.9594,5.9902,6.0517,6.2198,6.2391,6.2308,6.2103,6.1565,6.1432,6.2132,6.2323,6.2445,6.283,6.2925,6.2983,6.3207,6.3117,6.3167,6.3129,6.3129,6.3129,6.3129,6.3666,6.4081,6.4119,6.4611,6.4949,6.4956,6.4994,6.498,6.4841,6.391,6.2935,6.2862,6.2803,6.2695,5.3676,5.3625,5.3139,5.2062,5.0706,4.9931,4.9604,4.9604,4.9604,4.9607,4.9604,4.9607,4.9614,4.9674,4.9659,4.9666,4.9669,4.9647,4.9657,4.966,4.9726,4.9975,5.0402,5.0458,5.0736,5.1199,5.1199,5.1199,5.116,5.0736,5.0506,5.0467,4.9998,4.9765,4.9726,4.9379,4.9612,5.0464,5.0467,5.0697,5.116,5.0736,5.0458,5.0402,4.9925,4.9635,4.9543,4.8639,4.8094,4.8009,4.719,4.6471,4.6009,4.5663,4.5043,0.0,0.0,0.0,0.0,0.0,0.0,0.0,0.0,0.0,0.0,0.0,4.6663,4.8279,4.9586,5.112,5.289,5.4164,5.5088,5.5555,5.6362,5.7319,5.8555,5.8709,5.9517,6.1666,6.1897,6.2281,6.316,6.3314,6.3468,6.3814,6.3474,6.3231,6.3238,6.3251,6.3417,6.3732,6.3872,6.4038,6.4315,6.4353,6.4334,6.4372,6.4334,6.4334,6.4372,6.475,6.5057,6.5095,6.5434,6.5742,6.5742,6.5742,6.5742,6.562,6.4959,6.4263,6.4087,6.4,6.3886,5.4119,5.4133,5.3952,5.3901,5.3781,5.2124,5.1431,5.1424,5.1424,5.1421,5.1456,5.1456,5.1418,5.1418,5.1421,5.1424,5.1424,5.1419,5.1435,5.1435,5.1501,5.1513,5.1513,5.151,5.151,5.1513,5.151,5.151,5.151,5.151,5.151,5.1513,5.151,5.1513,5.1474,5.0778,5.0739,5.1513,5.151,5.151,5.1513,5.1513,5.1474,5.1355,5.1289,5.1199,5.1012,5.0042,4.9487,4.9477,4.8614,4.8082,4.8082,4.7543,4.7197,0.0,4.6629,0.0,0.0,0.0,0.0,0.0,0.0,0.0,0.0,4.8774,4.9933,5.2351,5.3236,5.4049,5.4895,5.6401,5.7363,5.7522,5.828,5.9396,6.0896,6.1127,6.1743,6.3275,6.3468,6.3506,6.366,6.3622,6.3968,6.4628,6.4743,6.4474,6.3852,6.3737,6.4006,6.4705,6.4782,6.5013,6.5551,6.5782,6.5814,6.5974,6.5968,6.6096,6.6199,6.6205,6.6237,6.6237,6.6314,6.6276,6.6205,6.6244,6.6282,6.6314,6.6224,6.6029,6.5719,6.5572,6.5574,5.5919,5.5836,5.513,5.4816,5.4736,5.3752,5.3255,5.3207,5.3207,5.3194,5.321,5.3204,5.3204,5.3204,5.3194,5.3207,5.3207,5.3213,5.3216,5.3216,5.3222,5.3225,5.3225,5.3225,5.3225,5.3225,5.3225,5.3225,5.3225,5.3225,5.3225,5.3225,5.3225,5.3225,5.3225,0.0,0.0,0.0,5.3225,5.3225,5.3225,5.3225,5.2876,5.2212,5.2107,0.0,5.1083,5.0058,4.95,4.9487,4.8598,0.0,0.0,0.0,0.0,0.0,0.0,0.0,0.0,0.0,0.0,0.0,5.139,5.1428,5.1236,5.2472,5.4049,5.5824,5.617,5.6632,5.7506,5.8434,5.9319,6.0017,6.0864,6.1743,6.2698,6.2814,6.3237,6.4205,6.4359,6.4628,6.5205,6.5397,6.5436,6.5551,6.5628,6.559,6.5436,6.532,6.5436,6.5634,6.5634,6.5705,6.5859,6.5942,6.6282,6.6673,6.6865,6.7128,6.7699,6.7853,6.7891,6.7853,6.793,6.7891,6.7891,6.793,6.7814,6.793,6.7878,6.7653,6.6887,6.6608,6.6705,5.6814,5.6422,5.5983,5.579,0.0,5.5321,5.5115,5.5023,5.4113,5.373,5.3754,5.3754,5.3743,5.3727,5.3746,5.3746,5.3695,5.3695,5.3695,5.3695,5.3695,5.3695,5.3695,5.3695,5.3695,5.3695,5.3695,5.3695,5.3695,5.3695,5.3695,5.3695,5.3695,5.3695,5.3733,5.4119,5.4119,5.3733,5.3695,5.3695,5.3695,5.3695,5.3497,5.3067,5.2964,0.0,0.0,0.0,0.0,0.0,0.0,0.0,0.0,5.1048,0.0,5.1279,5.1664,5.1933,5.1972,5.2323,5.2933,5.3736,5.4972,5.5352,5.4511,5.5626,5.6742,5.7555,5.7973,5.8594,5.9435,6.0287,6.1089,6.1935,6.2435,6.3012,6.3782,6.3929,6.4275,6.5051,6.5243,6.5436,6.5827,6.5904,6.5904,6.5904,6.5904,6.6058,6.6359,6.6134,6.6013,6.6404,6.6519,6.6673,6.7051,6.7128,6.7205,6.7667,6.7744,6.7936,6.8314,6.8391,6.8391,6.8391,6.8391,6.8391,6.8391,6.8391,6.8391,6.8391,6.8391,6.8462,6.8268,6.7882,6.7553,5.7616,5.695,5.6934,5.6938,5.695,5.6973,5.6938,5.6831,5.5046,0.0,0.0,5.4256,5.4277,5.425,5.4241,5.423,5.4167,5.4161,5.4158,5.4158,5.4158,5.4158,5.4158,5.4158,5.4161,5.4158,5.4158,5.4158,5.4158,5.4158,5.4158,5.4158,5.4158,5.4161,5.4197,5.4854,5.4893,5.4197,5.4158,5.4161,5.4158,5.4158,5.408,5.3925,5.3853,5.3715,5.3519,5.3361,5.3301,5.3287,5.3233,5.3197,5.3197,5.3351,5.351,5.3621,5.378,5.3933,5.4082,5.478,5.5511,5.6319,5.7703,5.8204,5.7478,5.8088,5.8665,5.8934,5.9588,6.0319,6.1166,6.1864,6.2627,6.3429,6.3545,6.3852,6.4666,6.482,6.5128,6.575,6.5859,6.5942,6.609,6.6173,6.6205,6.632,6.6474,6.6551,6.709,6.6859,6.6705,6.7205,6.7321,6.759,6.816,6.8314,6.8468,6.8584,6.8622,6.866,6.8814,6.8853,6.8853,6.8975,6.8853,6.8898,6.8853,6.8968,6.8853,6.8814,6.8853,6.9045,6.9615,6.925,6.8684,5.8825,5.8747,5.8744,5.8746,5.8708,5.8744,5.8744,5.859,5.6884,5.6082,5.6026,5.6045,5.602,5.603,5.5967,5.5952,5.5946,5.5919,5.5945,5.5942,5.5942,5.5945,5.5945,5.5942,5.5945,5.5945,5.5942,5.5945,5.5945,5.5906,5.5942,5.5945,5.5945,5.5945,5.5945,5.6058,5.6058,5.5942,5.5945,5.5942,5.5945,5.5945,5.5592,5.4851,5.4749,5.4339,5.3515,5.3396,5.3301,5.3287,5.3233,5.3197,5.3241,5.3972,5.4626,5.5318,5.6055,5.6786,5.7506,5.7703,5.8121,5.8896,5.9204,5.9281,5.9165,5.9242,5.9935,6.1364,6.1633,6.2056,6.2814,6.3051,6.3468,6.4282,6.4397,6.4782,6.5634,6.5705,6.5782,6.6013,6.5904,6.625,6.6827,6.6942,6.7167,6.7821,6.7898,6.8084,6.8122,6.8122,6.8084,6.8199,6.8237,6.8276,6.8545,6.843,6.8814,6.9398,6.9513,6.9699,7.0244,7.0321,7.0321,7.0475,7.036,7.0398,7.0437,7.0552,7.0398,7.036,7.036,7.0552,7.0744,7.0518,7.0324,5.9527,5.9139,5.9106,5.9108,5.9108,5.9108,5.9104,5.9021,5.8273,5.79,5.7864,5.7803,5.7818,5.7795,5.777,5.774,5.7705,5.7693,5.7671,5.7651,5.7651,5.7651,5.7651,5.7651,5.7418,5.7033,5.6994,5.6994,5.6994,5.6994,5.7227,5.7612,5.7651,5.7651,5.7651,5.7651,5.7651,5.7612,5.6758,5.6295,5.6295,5.6295,5.6087,5.5683,5.5627,5.5362,5.4839,5.5218,5.5369,5.5327,5.5719,5.5967,5.5972,5.6357,5.6703,5.7088,5.7473,5.7896,5.828,5.8704,5.9511,6.0781,6.0896,6.1127,6.1544,6.1166,6.1441,6.2589,6.2743,6.3089,6.3891,6.4006,6.4352,6.5243,6.5282,6.5667,6.6365,6.6558,6.6744,6.7167,6.7237,6.7398,6.7782,6.7821,6.7898,6.8391,6.8737,6.9084,6.9129,6.9475,6.959,6.9199,6.9129,6.9314,6.9622,6.9744,6.9937,7.0283,7.036,7.0514,7.086,7.0898,7.0937,7.0898,7.0898,7.0898,7.0937,7.0898,7.0898,7.0937,7.136,7.1514,7.1615,7.1824,7.1812,6.0294,5.971,5.9676,5.9678,5.9679,5.9679,5.9676,5.971,5.9669,5.9693,5.9623,5.9246,5.9026,5.9005,5.8975,5.8935,5.8886,5.8916,5.8853,5.8817,5.8817,5.8817,5.8817,5.8817,5.8467,5.7926,5.7887,5.7887,5.7849,5.7849,5.8156,5.8735,5.8817,5.8817,5.8817,5.8817,5.8817,5.8739,5.7535,5.6835,5.6874,5.6874,5.6858,5.6781,5.6784,5.6663,5.6564,5.712,5.7436,5.7335,5.7934,5.8275,5.8275,5.8275,5.839,5.855,5.8588,5.8736,5.9165,5.9742,6.0742,6.2249,6.2364,6.2743,6.3429,6.3012,6.2897,6.3468,6.3583,6.3935,6.4705,6.4897,6.5243,6.6051,6.6173,6.6519,6.7244,6.7398,6.7628,6.8276,6.8391,6.843,6.8622,6.8699,6.8814,6.9084,6.9552,6.9937,7.0052,7.0552,7.0552,7.0206,6.9975,7.0129,7.0783,7.0821,7.0898,7.1091,7.1168,7.136,7.1514,7.1552,7.1514,7.1629,7.1552,7.1629,7.1552,7.1552,7.1591,7.1706,7.2129,7.2469,7.244,7.2762,7.2892,6.1513,6.1474,6.1397,6.1475,6.1397,6.1397,6.1396,6.1395,6.1428,6.1463,6.1221,5.9781,5.9125,5.8985,5.9063,5.9059,5.8985,5.8925,5.8895,5.8855,5.8817,5.8817,5.8891,5.8855,5.8774,5.87,5.87,5.87,5.87,5.8735,5.8774,5.8817,5.8817,5.8855,5.8855,5.8855,5.8852,5.8817,5.8658,5.858,5.8545,5.8583,5.8563,5.8566,5.849,5.8406,5.8177,5.8278,5.824,5.8215,5.8275,5.8313,5.8313,5.8313,5.8665,5.9358,5.9429,6.005,6.1518,6.1826,6.221,6.3045,6.3198,6.3545,6.4391,6.4397,6.4359,6.4512,6.4512,6.4859,6.5628,6.5788,6.6128,6.6904,6.7019,6.7321,6.8084,6.8276,6.8314,6.8353,6.8584,6.8699,6.9436,6.959,6.986,7.0321,7.0514,7.0629,7.0667,7.0783,7.086,7.0783,7.0783,7.0744,7.0898,7.0898,7.1245,7.186,7.2059,7.2322,7.2738,7.3046,7.3238,7.2738,7.3046,7.2969,7.3046,7.3238,7.3122,7.2892,7.3122,7.3378,7.3228,7.3346,7.3244,6.1717,6.1717,6.1719,6.1719,6.1718,6.1717,6.1716,6.1714,6.1708,6.1702,6.1617,6.0878,6.0577,6.0529,6.0525,6.0479,6.043,6.0418,6.0385,6.0332,6.0328,6.0367,6.0328,6.0328,6.0099,5.9593,5.9593,5.9555,5.9632,6.0056,6.0328,6.0328,6.0328,6.0328,6.0328,6.0367,6.0328,6.0328,6.0328,6.0328,6.0212,5.9318,5.8789,5.8731,5.8707,5.8622,5.8501,5.888,5.9127,5.9061,5.9511,5.9781,5.9781,6.0242,6.0671,6.1018,6.1473,6.205,6.2743,6.282,6.316,6.4006,6.4089,6.4436,6.5243,6.5359,6.5557,6.5936,6.5667,6.5705,6.6474,6.6635,6.6936,6.7667,6.7859,6.8205,6.9045,6.9161,6.9321,6.9783,6.9891,6.9975,7.0321,7.0398,7.0552,7.086,7.0898,7.0898,7.0898,7.0898,7.0898,7.0898,7.0898,7.0898,7.0937,7.1398,7.1783,7.2175,7.2629,7.3206,7.3392,7.3507,7.3469,7.3546,7.3623,7.3623,7.3392,7.3507,7.3507,7.3623,7.4046,7.4346,7.4779,7.4789,7.4664,6.2421,6.242,6.2415,6.2414,6.2418,6.2421,6.2422,6.2421,6.2416,6.241,6.2402,6.2323,6.2297,6.2253,6.1825,6.1578,6.1487,6.1481,6.1444,6.1419,6.1416,6.1416,6.1416,6.1416,6.1066,6.0565,6.0448,6.0448,6.0526,6.1027,6.1416,6.1416,6.1416,6.1416,6.1416,6.1416,6.1532,6.1727,6.1765,6.1882,6.1921,6.0875,5.9986,5.9487,5.9436,5.9314,5.9151,5.9907,6.0327,6.0248,6.1012,6.1473,6.1512,6.2089,6.2441,6.248,6.2968,6.3429,6.3622,6.366,6.4045,6.4859,6.5128,6.5557,6.6134,6.6436,6.6821,6.7282,6.6936,6.6898,6.7321,6.7475,6.7821,6.8622,6.8737,6.9084,6.9898,7.0014,7.0244,7.0783,7.0744,7.0898,7.0898,7.086,7.086,7.0898,7.0898,7.0898,7.0898,7.0898,7.0898,7.0898,7.1091,7.1168,7.1052,7.1591,7.2136,7.2706,7.3283,7.3892,7.4084,7.4199,7.4199,7.4668,7.4322,7.4245,7.4514,7.4353,7.4161,7.4276,7.4661,7.52,7.5615,7.5726,7.5638,6.4169,6.4169,6.4169,6.409,6.4169,6.4097,6.4138,6.3983,6.4098,6.4131,6.4048,6.4004,6.4051,6.3893,6.2409,6.1617,6.1565,6.1639,6.1603,6.1575,6.1532,6.1455,6.1416,6.1416,6.1416,6.1455,6.1455,6.1455,6.1416,6.1455,6.1416,6.1455,6.1571,6.1494,6.1532,6.161,6.1843,6.2585,6.2663,6.3012,6.3673,6.3715,6.2746,6.1348,6.1185,6.1095,6.0985,6.1648,6.2018,6.1985,6.2666,6.3121,6.316,6.3198,6.3275,6.3314,6.3352,6.3737,6.4436,6.4589,6.4974,6.5788,6.6519,6.6981,6.7058,6.7667,6.8122,6.8353,6.8237,6.8276,6.8391,6.8391,6.8699,6.9513,6.9629,7.0014,7.0706,7.0706,7.0821,7.0898,7.0898,7.0898,7.0898,7.0898,7.0905,7.0905,7.0905,7.095,7.1073,7.0989,7.1027,7.1265,7.1611,7.1867,7.1213,7.2014,7.2783,7.3329,7.4098,7.4861,7.5476,7.5899,7.5791,7.5745,7.5553,7.5515,7.5784,7.5784,7.563,7.5592,7.5553,7.5938,7.5947,7.5795,7.5699,6.4315,6.431,6.4316,6.4318,6.432,6.4291,6.4294,6.4295,6.4294,6.4288,6.4282,6.4239,6.4207,6.4166,6.3538,6.3175,6.316,6.3157,6.3123,6.3058,6.3051,6.3051,6.3051,6.3051,6.3051,6.3051,6.3051,6.3051,6.309,6.3051,6.3051,6.3051,6.3051,6.3051,6.3051,6.3051,6.3245,6.3521,6.3517,6.3676,6.3987,6.3983,6.3639,6.2977,6.2891,6.2799,6.2579,6.2882,6.2981,6.2864,6.316,6.3314,6.3352,6.3852,6.4391,6.4897,6.4974,6.5089,6.5436,6.5897,6.6327,6.6673,6.7436,6.7936,6.7968,6.8237,6.8622,6.9084,6.9237,6.9436,6.9783,6.9545,6.9545,7.0283,7.0475,7.0552,7.0783,7.0898,7.0898,7.0898,7.0898,7.0898,7.1034,7.0939,7.0965,7.0972,7.0998,7.1294,7.1731,7.1846,7.1994,7.254,7.2932,7.3048,7.2816,7.3339,7.3976,7.4382,7.4921,7.539,7.5967,7.6034,7.5933,7.5883,7.5991,7.5976,7.5938,7.5938,7.5976,7.5976,7.5976,7.5993,7.5948,7.5794,7.5649,6.5125,6.5119,6.5126,6.5129,6.5131,6.5108,6.5151,6.5153,6.5115,6.5146,6.5102,6.506,6.5026,6.5018,6.498,6.4935,6.4852,6.4369,6.4063,6.4005,6.3991,6.3983,6.3983,6.3983,6.3983,6.3983,6.3983,6.3983,6.3983,6.3983,6.3983,6.3983,6.3983,6.3983,6.3983,6.3983,6.4104,6.4333,6.4372,6.4527,6.4721,6.4799,6.4761,6.4653,6.4636,6.4236,6.3588,6.377,6.3868,6.3761,6.3968,6.4122,6.4237,6.4936,6.5667,6.6211,6.6551,6.6705,6.6782,6.7244,6.7513,6.7552,6.8321,6.8814,6.8814,6.9045,6.9513,6.9937,7.009,7.0437,7.0975,7.0821,7.0629,7.0937,7.1129,7.1321,7.1321,7.1618,7.1792,7.1903,7.191,7.1864,7.1826,7.1859,7.1923,7.1891,7.1929,7.2225,7.2655,7.2854,7.297,7.3588,7.3884,7.4038,7.4064,7.4538,7.4619,7.4934,7.5358,7.5884,7.6062,7.609,7.6076,7.6027,7.5998,7.5984,7.5976,7.5976,7.5976,7.5976,7.6007,7.5993,7.5872,7.5763,7.5591,6.6718,6.6679,6.6796,6.6602,6.6568,6.6625,6.6826,6.6714,6.6716,6.663,6.6547,6.6697,6.651,6.6656,6.6422,6.6577,6.6204,6.5007,6.4351,6.4273,6.4238,6.4224,6.4255,6.4294,6.4259,6.4255,6.41,6.4142,6.4255,6.4259,6.4255,6.4139,6.4255,6.4333,6.41,6.4298,6.4527,6.5067,6.5223,6.5611,6.6353,6.6314,6.6236,6.6239,6.623,6.5403,6.3748,6.4387,6.4716,6.4723,6.5397,6.5865,6.5974,6.6596,6.7096,6.7205,6.7859,6.8276,6.8314,6.8314,6.8391,6.8545,6.9206,6.9706,6.9783,7.036,7.0821,7.0898,7.1014,7.1328,7.2066,7.2143,7.1835,7.1206,7.1797,7.2188,7.2356,7.3013,7.3581,7.3479,7.3408,7.362,7.362,7.3427,7.3317,7.3356,7.3407,7.3458,7.3657,7.3735,7.3716,7.3986,7.4507,7.495,7.5266,7.5504,7.5356,7.5318,7.5767,7.6179,7.6145,7.6145,7.6111,7.6069,7.6037,7.6022,7.5976,7.5976,7.5976,7.5976,7.6007,7.597,7.5833,7.5707,7.5523,6.6796,6.6796,6.6796,6.6801,6.6808,6.686,6.6908,6.6913,6.691,6.6861,6.685,6.681,6.6822,6.6773,6.6734,6.6704,6.6657,6.6085,6.5848,6.5761,6.5743,6.5719,6.5658,6.5693,6.5693,6.5732,6.5732,6.5693,6.5693,6.5693,6.5732,6.5732,6.5693,6.5732,6.5654,6.5732,6.5883,6.6039,6.6077,6.6237,6.647,6.6508,6.6469,6.6394,6.6424,6.5993,6.5352,6.5528,6.5602,6.5525,6.6282,6.6974,6.7552,6.7859,6.8013,6.8052,6.8199,6.8391,6.8468,6.8968,6.9314,6.9436,7.0052,7.0475,7.0629,7.1283,7.1745,7.1867,7.2322,7.2874,7.3076,7.3174,7.302,7.2789,7.3013,7.3194,7.3311,7.3536,7.3639,7.3697,7.3703,7.3703,7.3755,7.3812,7.392,7.3887,7.3912,7.4051,7.4515,7.4664,7.4952,7.5455,7.5803,7.5791,7.5888,7.5953,7.5876,7.5754,7.605,7.6244,7.6218,7.6172,7.6138,7.6083,7.6058,7.6022,7.5976,7.5976,7.5976,7.5954,7.597,7.5864,7.5779,7.5625,7.5436,6.6796,6.6796,6.68,6.6806,6.6813,6.6864,6.6911,6.6914,6.6909,6.686,6.6807,6.6808,6.6822,6.6773,6.6734,6.6709,6.6707,6.6733,6.6699,6.6653,6.6594,6.6574,6.6514,6.6553,6.6553,6.6553,6.6514,6.6546,6.6531,6.6531,6.6524,6.6473,6.6508,6.647,6.6508,6.6508,6.6508,6.6508,6.647,6.6508,6.6508,6.6508,6.6633,6.6842,6.6855,6.6932,6.7072,6.7045,6.68,6.6608,6.7141,6.7821,6.8353,6.866,6.8891,6.893,6.9161,6.936,6.9398,6.9898,7.0167,7.0244,7.0629,7.1091,7.136,7.1982,7.2252,7.2745,7.3157,7.3647,7.3964,7.4082,7.4217,7.4591,7.4262,7.4282,7.4533,7.4661,7.4719,7.4814,7.4782,7.4699,7.4711,7.4729,7.4759,7.4765,7.4827,7.4928,7.5469,7.5579,7.5972,7.6243,7.6231,7.6225,7.6314,7.6353,7.6353,7.6302,7.6317,7.6313,7.6263,7.6212,7.6165,7.6069,7.6029,7.6022,7.5976,7.5976,7.5976,7.5978,7.5948,7.5833,7.5747,7.5549,7.5347,6.6796,6.6799,6.6808,6.6813,6.6817,6.6869,6.6913,6.6914,6.6869,6.6858,6.6805,6.681,6.6787,6.6777,6.6741,6.6717,6.6712,6.6707,6.6694,6.6669,6.6645,6.6624,6.6575,6.6572,6.6569,6.6575,6.6575,6.6601,6.657,6.6609,6.6553,6.652,6.6516,6.6508,6.6508,6.6508,6.6508,6.6508,6.6586,6.6664,6.6664,6.678,6.7068,6.7726,6.7726,6.7968,6.8411,6.8569,6.8247,6.7582,6.8155,6.8545,6.8737,6.9353,6.9744,6.9783,7.0475,7.0667,7.0821,7.0706,7.086,7.0975,7.1091,7.136,7.2168,7.2514,7.2906,7.349,7.3815,7.4171,7.4737,7.4938,7.535,7.5979,7.5452,7.5414,7.6101,7.6153,7.6022,7.6142,7.6359,7.632,7.6115,7.616,7.616,7.6204,7.6127,7.6133,7.6171,7.6165,7.632,7.6403,7.6403,7.6403,7.6403,7.6403,7.6397,7.6362,7.635,7.6326,7.6276,7.6218,7.6145,7.6087,7.6022,7.6015,7.5976,7.5976,7.5976,7.5962,7.591,7.5826,7.5682,7.548,7.5237,6.6801,6.6808,6.6811,6.682,6.6869,6.6913,6.6913,6.6908,6.69,6.6967,6.6837,6.6816,6.6922,6.6801,6.68,6.67,6.6773,6.6758,6.6709,6.6699,6.6694,6.6663,6.6591,6.6585,6.6585,6.6588,6.6591,6.6578,6.6611,6.6607,6.6591,6.6595,6.6549,6.6577,6.6512,6.6547,6.6508,6.6625,6.7208,6.748,6.7557,6.8059,6.847,6.8627,6.8649,6.8712,6.8926,6.9364,6.9476,6.9162,6.9239,6.9667,7.009,7.0398,7.0514,7.0552,7.0744,7.0937,7.0937,7.0975,7.1206,7.179,7.186,7.2206,7.3091,7.3707,7.412,7.4546,7.5011,7.5528,7.58,7.5877,7.6075,7.6246,7.6041,7.6041,7.6246,7.6374,7.6386,7.6403,7.6403,7.6403,7.6403,7.6403,7.6403,7.6403,7.6403,7.6403,7.6403,7.6403,7.6403,7.6403,7.6403,7.6403,7.6403,7.6403,7.638,7.6332,7.6313,7.6307,7.625,7.6192,7.6097,7.6037,7.6022,7.5976,7.5976,7.5976,7.5976,7.5969,7.5864,7.5763,7.5608,7.5409,7.5123,6.7349,6.7398,6.7715,6.7919,6.7966,6.7969,6.7966,6.7958,6.791,6.79,6.7888,6.7912,6.7906,6.7902,6.7834,6.7578,6.7296,6.7243,6.7034,6.6709,6.6707,6.6691,6.6669,6.6621,6.6663,6.666,6.6663,6.6657,6.6645,6.6645,6.6627,6.6594,6.6577,6.6712,6.7079,6.706,6.7247,6.7631,6.8101,6.8334,6.8412,6.8835,6.9255,6.9424,6.9563,6.9627,6.9953,7.0324,7.0438,7.0304,7.0272,7.047,7.0828,7.0898,7.0898,7.0898,7.1206,7.1437,7.1514,7.1745,7.2206,7.2629,7.2745,7.3206,7.3868,7.4497,7.4823,7.5351,7.5875,7.6186,7.6282,7.6326,7.6362,7.6392,7.6403,7.6403,7.6403,7.6397,7.6403,7.6403,7.6403,7.6403,7.6403,7.6403,7.6403,7.6403,7.6403,7.6403,7.6403,7.6403,7.6403,7.6403,7.6397,7.6397,7.638,7.6374,7.6344,7.6301,7.6231,7.6231,7.6198,7.6138,7.6069,7.5991,7.5984,7.5976,7.5976,7.5969,7.5985,7.5902,7.5764,7.5644,7.5532,7.5519,7.5188,6.821,6.8299,6.905,6.9408,6.9335,6.9374,6.9214,6.9364,6.9239,6.9229,6.9217,6.932,6.9159,6.939,6.8983,6.8847,6.8167,6.8158,6.7709,6.7382,6.7182,6.7221,6.7219,6.6818,6.6741,6.6741,6.6748,6.6891,6.7031,6.7028,6.701,6.7136,6.7061,6.7274,6.78,6.793,6.8373,6.8797,6.9069,6.9189,6.9267,6.9496,6.9923,7.0342,7.0421,7.0683,7.1068,7.1257,7.1153,7.1011,7.1018,7.0934,7.0919,7.0944,7.1091,7.1283,7.1867,7.2322,7.2437,7.293,7.3469,7.3553,7.3637,7.3983,7.4658,7.5061,7.534,7.5914,7.6192,7.6288,7.6326,7.6368,7.6392,7.6403,7.6403,7.6403,7.6403,7.6403,7.6403,7.6403,7.6403,7.6403,7.6403,7.6403,7.6403,7.6403,7.6403,7.6403,7.6403,7.6403,7.6403,7.6403,7.6397,7.6397,7.6368,7.6338,7.6301,7.625,7.6152,7.6111,7.6097,7.6055,7.6012,7.5976,7.5976,7.5976,7.5976,7.6,7.5963,7.5902,7.5771,7.5641,7.5527,7.5589,7.5461,6.912,6.9129,6.933,6.9451,6.9453,6.9413,6.9448,6.9442,6.9434,6.9542,6.9452,6.9447,6.9485,6.9485,6.9546,6.9263,6.9096,6.8995,6.8883,6.8824,6.8724,6.8732,6.8376,6.7467,6.6829,6.6946,6.745,6.7681,6.7831,6.8257,6.8678,6.8568,6.8417,6.8695,6.8787,6.8828,6.8878,6.9185,6.9733,7.0044,7.0199,7.0626,7.0976,7.1244,7.1245,7.1365,7.1445,7.1445,7.1324,7.1224,7.1144,7.1127,7.1165,7.1625,7.1905,7.2098,7.2706,7.3206,7.3276,7.3469,7.3815,7.4406,7.4526,7.4875,7.5691,7.583,7.5967,7.6244,7.6288,7.6332,7.6368,7.6392,7.6403,7.6403,7.6403,7.6403,7.6403,7.6403,7.6403,7.6403,7.6403,7.6403,7.6403,7.6403,7.6403,7.6403,7.6403,7.6403,7.6403,7.6403,7.6403,7.6403,7.638,7.6374,7.6338,7.6288,7.6225,7.6185,7.609,7.6027,7.6058,7.6051,7.5984,7.5976,7.5976,7.5976,7.5962,7.5955,7.5949,7.5848,7.5838,7.5834,7.5841,7.5827,7.5904,7.0021,7.0069,7.0464,7.0624,7.0664,7.0624,7.0621,7.0618,7.0611,7.0603,7.0633,7.0631,7.0627,7.0621,7.0614,7.045,6.993,6.9475,6.9298,6.925,6.9259,6.9263,6.9224,6.8472,6.7913,6.7981,6.8369,6.8595,6.8782,6.9053,6.9201,6.9262,6.9269,6.939,6.9706,6.9741,6.9947,7.032,7.0665,7.0898,7.1015,7.1326,7.1598,7.1598,7.1611,7.159,7.1598,7.1518,7.1683,7.1832,7.1837,7.1717,7.175,7.2397,7.2786,7.2944,7.3591,7.4007,7.4084,7.4476,7.4913,7.5302,7.5383,7.5642,7.6029,7.6205,7.6257,7.6301,7.6332,7.6368,7.6397,7.6403,7.6403,7.6403,7.6403,7.6403,7.6403,7.6403,7.6403,7.6403,7.6403,7.6403,7.6403,7.6403,7.6403,7.6403,7.6403,7.6403,7.6403,7.6403,7.6403,7.6392,7.6368,7.6338,7.6301,7.6238,7.6145,7.6097,7.6027,7.5998,7.5991,7.5984,7.5976,7.5969,7.6,7.5978,7.5955,7.5949,7.6101,7.632,7.6357,7.6294,7.637,7.6622,7.6596,7.0921,7.0929,7.1676,7.1991,7.1992,7.1952,7.1873,7.1911,7.1985,7.1782,7.1968,7.2006,7.1725,7.1912,7.187,7.151,7.087,7.0272,6.9984,7.0017,6.9984,6.9988,6.9912,6.9795,6.9711,6.969,6.9521,6.9507,6.9533,6.964,6.9985,6.9749,6.9685,7.0113,7.0583,7.0664,7.0821,7.1295,7.1403,7.1485,7.1485,7.1559,7.1598,7.1598,7.1598,7.1577,7.1668,7.1792,7.2066,7.268,7.2899,7.2898,7.2958,7.3298,7.3765,7.3728,7.4466,7.4889,7.505,7.5474,7.5918,7.6104,7.6093,7.612,7.6212,7.6269,7.6313,7.6338,7.6362,7.6392,7.6403,7.6403,7.6403,7.6403,7.6403,7.6403,7.6403,7.6403,7.6403,7.6403,7.6403,7.6403,7.6403,7.6403,7.6403,7.6403,7.6403,7.6403,7.6403,7.6397,7.6392,7.6374,7.6344,7.6276,7.6231,7.6165,7.6069,7.608,7.6022,7.6053,7.6046,7.5978,7.597,7.5978,7.597,7.5979,7.6041,7.617,7.6388,7.6786,7.6979,7.6939,7.714,7.7448,7.7371,7.1788,7.1794,7.1952,7.1992,7.1992,7.1992,7.1991,7.199,7.1989,7.1982,7.2008,7.2006,7.2,7.199,7.1987,7.1863,7.1577,7.1258,7.125,7.1279,7.125,7.1219,7.118,7.1189,7.1304,7.1287,7.0795,7.0381,7.0562,7.0973,7.1043,7.1266,7.1243,7.1365,7.1326,7.1485,7.1412,7.1567,7.1598,7.1598,7.1598,7.1598,7.1598,7.1598,7.1598,7.1671,7.1814,7.225,7.2646,7.2899,7.4136,7.4585,7.4583,7.4635,7.4661,7.478,7.5306,7.573,7.5768,7.5922,7.6111,7.6172,7.6225,7.6263,7.6295,7.6338,7.6368,7.638,7.6386,7.6403,7.6403,7.6403,7.6403,7.6403,7.6403,7.6403,7.6403,7.6403,7.6403,7.6403,7.6403,7.6403,7.6403,7.6403,7.6403,7.6403,7.6403,7.6403,7.6403,7.6386,7.6374,7.6344,7.6313,7.6231,7.6145,7.6076,7.6037,7.6082,7.6092,7.6245,7.6185,7.5979,7.5964,7.6379,7.6248,7.6056,7.6193,7.6435,7.685,7.7338,7.749,7.7627,7.7956,7.8224,7.817,7.1985,7.199,7.1992,7.1992,7.1992,7.1992,7.1992,7.1991,7.199,7.1985,7.1977,7.2008,7.2,7.199,7.1987,7.1983,7.1979,7.1938,7.1932,7.1966,7.1933,7.1938,7.1937,7.1984,7.1983,7.1816,7.1482,7.1218,7.1314,7.1612,7.183,7.1778,7.18,7.177,7.1725,7.1658,7.1657,7.1618,7.1602,7.1598,7.1598,7.1598,7.1598,7.1598,7.1675,7.1831,7.2293,7.2552,7.3298,7.413,7.4921,7.5449,7.5719,7.5746,7.5638,7.5607,7.592,7.6145,7.6152,7.6152,7.6179,7.6238,7.6288,7.6319,7.635,7.638,7.6436,7.6442,7.6403,7.6403,7.6403,7.6403,7.6403,7.6403,7.6403,7.6403,7.6403,7.6403,7.6403,7.6403,7.6403,7.6403,7.6403,7.6403,7.6403,7.6403,7.6403,7.6397,7.6397,7.6374,7.6344,7.6288,7.6244,7.6159,7.616,7.6181,7.6207,7.6207,7.6469,7.663,7.6747,7.6771,7.7024,7.7368,7.7037,7.6621,7.6657,7.7011,7.747,7.7888,7.817,7.8484,7.878,7.8971,7.8829,7.1986,7.199,7.1992,7.1992,7.1992,7.1992,7.1992,7.1992,7.199,7.1986,7.1978,7.2009,7.2,7.1991,7.1987,7.1987,7.1987,7.1987,7.1986,7.1984,7.1986,7.1987,7.1987,7.1987,7.1987,7.1983,7.1897,7.1909,7.1796,7.1858,7.1843,7.1825,7.1817,7.1794,7.1741,7.1718,7.1675,7.1634,7.1602,7.1598,7.1598,7.1598,7.1598,7.1675,7.1757,7.2219,7.272,7.3415,7.414,7.4972,7.5614,7.5983,7.6477,7.6547,7.6449,7.6307,7.6244,7.6218,7.6218,7.6244,7.6282,7.6344,7.6344,7.6374,7.6508,7.6641,7.6829,7.6829,7.6751,7.6751,7.6751,7.6519,7.6403,7.6403,7.6403,7.6403,7.6403,7.6403,7.6403,7.6403,7.6403,7.6403,7.6403,7.6403,7.6403,7.6403,7.6397,7.6374,7.6368,7.6338,7.6301,7.6231,7.6165,7.6076,7.6174,7.6429,7.6476,7.6599,7.7084,7.7507,7.7693,7.7823,7.8028,7.807,7.808,7.7731,7.7705,7.7708,7.8211,7.8646,7.8999,7.9252,7.9395,7.9372,7.9241,7.199,7.1992,7.1992,7.1992,7.2031,7.207,7.2031,7.2068,7.2067,7.1984,7.2009,7.2005,7.1999,7.199,7.1987,7.1987,7.1987,7.1987,7.1987,7.1987,7.1987,7.1987,7.1987,7.1987,7.1987,7.1987,7.1986,7.1966,7.193,7.1906,7.1845,7.1825,7.1817,7.18,7.18,7.1728,7.1697,7.1653,7.1618,7.1598,7.1598,7.1598,7.1598,7.1831,7.2258,7.2837,7.3303,7.4239,7.5206,7.5474,7.6207,7.6534,7.6691,7.6682,7.6642,7.6515,7.6409,7.6295,7.6313,7.635,7.6397,7.6482,7.6532,7.6505,7.6848,7.7322,7.7841,7.8641,7.8022,7.7597,7.7409,7.6906,7.6558,7.6481,7.6597,7.6519,7.6442,7.6403,7.6403,7.6403,7.6403,7.6403,7.6403,7.6403,7.6403,7.6403,7.6392,7.6368,7.6326,7.6288,7.6231,7.6152,7.6181,7.6142,7.6421,7.6676,7.6976,7.7099,7.7738,7.8339,7.8508,7.859,7.8453,7.8492,7.8615,7.8715,7.8544,7.8661,7.9017,7.9267,7.9474,7.9678,7.9899,7.9805,7.9512,7.2461,7.207,7.25,7.2734,7.2812,7.3241,7.3162,7.2809,7.2726,7.2444,7.2045,7.1999,7.1993,7.1989,7.1987,7.1987,7.1987,7.1987,7.1987,7.1987,7.1987,7.1987,7.1987,7.1987,7.1987,7.1987,7.1984,7.1968,7.194,7.1881,7.186,7.1822,7.1817,7.1803,7.1812,7.1735,7.1697,7.1661,7.1665,7.1602,7.1598,7.1641,7.1831,7.2297,7.272,7.338,7.4317,7.4939,7.5754,7.6065,7.6605,7.6678,7.669,7.671,7.6677,7.6657,7.6526,7.6472,7.6472,7.6494,7.6554,7.672,7.7002,7.7534,7.7849,7.8247,7.8561,7.8918,7.868,7.8448,7.8448,7.8099,7.7641,7.737,7.7138,7.6829,7.6674,7.6442,7.6403,7.6403,7.6481,7.6668,7.6746,7.6751,7.6635,7.6403,7.6386,7.6356,7.6288,7.6218,7.6145,7.6048,7.6135,7.6222,7.6676,7.7061,7.7561,7.7907,7.87,7.9169,7.9283,7.9317,7.9216,7.936,7.9718,7.9673,7.9398,7.9495,7.9753,7.9838,7.9919,7.9948,7.9897,7.969,7.9418,7.289,7.2422,7.3242,7.3633,7.3671,7.4334,7.4214,7.3664,7.3615,7.3138,7.2429,7.2149,7.1989,7.1987,7.1987,7.1987,7.1987,7.1987,7.1987,7.1987,7.1987,7.1987,7.1987,7.1987,7.1987,7.1987,7.1987,7.1969,7.1942,7.1885,7.1867,7.1822,7.1817,7.1806,7.1779,7.1738,7.1694,7.168,7.1614,7.1602,7.1636,7.187,7.2297,7.2802,7.3385,7.4162,7.5293,7.5793,7.6182,7.6488,7.6644,7.6682,7.6673,7.6694,7.669,7.6685,7.6648,7.6648,7.6638,7.6677,7.6735,7.7152,7.7718,7.8517,7.9194,7.941,7.9575,7.9799,7.9421,7.9343,7.926,7.9105,7.8564,7.8177,7.8022,7.7558,7.7248,7.7248,7.7326,7.7519,7.7558,7.7403,7.7442,7.7254,7.6984,7.6519,7.638,7.6338,7.6295,7.6229,7.616,7.6113,7.6491,7.663,7.7061,7.7522,7.8023,7.87,7.95,7.9907,7.9972,8.0111,8.0169,8.0396,8.0562,8.0353,7.9915,8.0163,8.0362,8.0159,8.002,7.9881,7.9783,7.9569,7.9311,7.3281,7.3281,7.418,7.4531,7.4529,7.4567,7.4601,7.451,7.4506,7.399,7.3162,7.2456,7.2104,7.2026,7.2026,7.1987,7.1987,7.1987,7.1987,7.1987,7.1987,7.1987,7.1987,7.1987,7.1987,7.1987,7.1987,7.1969,7.194,7.1891,7.1865,7.1825,7.1819,7.1817,7.1794,7.1748,7.1644,7.163,7.1602,7.1679,7.1908,7.2297,7.2837,7.3346,7.4395,7.5409,7.5526,7.6143,7.6488,7.6682,7.6682,7.6682,7.6682,7.6673,7.6721,7.6747,7.6756,7.6764,7.6785,7.6946,7.7222,7.7868,7.8656,7.9466,8.0218,8.0273,8.0555,8.0963,8.0451,8.0188,7.9918,7.9531,7.9337,7.8989,7.8834,7.8602,7.837,7.8409,7.8525,7.8718,7.8602,7.8254,7.8165,7.8043,7.7727,7.7296,7.6675,7.663,7.6403,7.6276,7.6188,7.6291,7.6868,7.7215,7.7522,7.8099,7.8977,7.9531,8.0123,8.0465,8.0605,8.0741,8.0623,8.0551,8.0525,8.0459,8.044,8.0382,8.0313,8.0205,8.0034,7.986,7.9589,7.9395,7.9129,7.4414,7.4961,7.5858,7.5896,7.5426,7.5931,7.5846,7.5365,7.5357,7.4843,7.4017,7.3196,7.2807,7.269,7.2182,7.1987,7.1987,7.1987,7.2065,7.1987,7.1987,7.1987,7.1987,7.2104,7.1987,7.2065,7.2064,7.1971,7.1895,7.2086,7.1901,7.1835,7.1975,7.1817,7.1797,7.1751,7.1679,7.1661,7.1679,7.1796,7.2413,7.272,7.3419,7.4589,7.4861,7.5793,7.6182,7.6488,7.6644,7.6682,7.6682,7.6682,7.6682,7.6682,7.6747,7.6789,7.6797,7.6871,7.7106,7.7381,7.8162,7.9334,7.9934,8.0398,8.1056,8.1187,8.1253,8.1368,8.1237,8.0891,8.0878,8.0685,8.0453,7.9989,7.9685,7.9492,7.9415,7.9415,7.9376,7.9453,7.9183,7.8834,7.8816,7.883,7.8509,7.811,7.7473,7.6916,7.6777,7.6611,7.6614,7.6823,7.7407,7.8092,7.8438,7.9208,8.0008,8.0361,8.0706,8.0732,8.0784,8.0676,8.0596,8.0523,8.0487,8.044,8.0411,8.0343,8.0225,8.0134,7.9956,7.9717,7.9477,7.9214,7.8966,7.5351,7.5976,7.6834,7.6832,7.6362,7.6864,7.6737,7.6257,7.617,7.5697,7.4837,7.4056,7.3664,7.3471,7.3119,7.2807,7.2885,7.2885,7.2807,7.2846,7.2885,7.2768,7.2768,7.2807,7.3002,7.2729,7.2765,7.279,7.2869,7.2713,7.2762,7.2768,7.2518,7.2479,7.1803,7.1754,7.1796,7.1929,7.2064,7.2413,7.3147,7.3652,7.4045,7.537,7.5716,7.6104,7.6493,7.6682,7.6682,7.6682,7.6682,7.6682,7.6682,7.6691,7.6756,7.6789,7.686,7.6968,7.7439,7.8136,7.9158,8.0221,8.0837,8.1225,8.1636,8.1765,8.1663,8.1602,8.1538,8.1522,8.151,8.1304,8.111,8.0646,8.0608,8.0453,8.0266,8.0188,8.0111,8.0072,7.9867,7.9874,7.9875,7.9881,7.921,7.8772,7.8146,7.7761,7.7665,7.7513,7.7376,7.763,7.8099,7.8823,7.9554,8.0054,8.05,8.0544,8.0803,8.0758,8.0749,8.0641,8.0569,8.0534,8.0478,8.0421,8.0324,8.0215,8.0134,8.0024,7.9876,7.9706,7.9323,7.9066,7.8864,7.5859,7.6013,7.6872,7.7143,7.698,7.7088,7.7038,7.691,7.6947,7.6516,7.5697,7.4876,7.4486,7.4447,7.4173,7.4017,7.4056,7.4134,7.4173,7.4056,7.3939,7.4212,7.4212,7.4134,7.3939,7.433,7.4131,7.4,7.4195,7.4,7.4051,7.4054,7.3765,7.337,7.1967,7.1793,7.2146,7.2771,7.2875,7.338,7.4123,7.4783,7.5215,7.5716,7.6182,7.657,7.6644,7.6682,7.6682,7.6682,7.6682,7.6687,7.6696,7.6734,7.6773,7.6847,7.6971,7.7439,7.827,7.9027,7.9941,8.0776,8.1388,8.1727,8.186,8.1835,8.1739,8.1674,8.1624,8.1559,8.1528,8.1497,8.142,8.1343,8.1265,8.1188,8.0956,8.084,8.0724,8.0318,8.0815,8.1233,8.1192,8.0905,8.0063,7.9411,7.8826,7.8558,7.8476,7.8222,7.8023,7.8438,7.8823,7.94,8.0092,8.0631,8.0954,8.0951,8.0868,8.0792,8.0705,8.0578,8.0552,8.0506,8.044,8.0373,8.0245,8.0113,8.0303,8.0466,7.997,7.9654,7.9253,7.9165,7.9271,7.6249,7.6793,7.7025,7.7137,7.7089,7.7085,7.7076,7.7103,7.7062,7.6945,7.6516,7.5736,7.5346,7.5229,7.4837,7.4603,7.4564,7.4486,7.4486,7.4564,7.4642,7.4486,7.4564,7.4681,7.4603,7.4525,7.4522,7.4625,7.4429,7.4663,7.4519,7.4405,7.4619,7.4053,7.363,7.343,7.3624,7.3712,7.3851,7.4162,7.4977,7.5409,7.5754,7.6221,7.6566,7.6682,7.6682,7.6682,7.6682,7.6687,7.6687,7.6739,7.676,7.6768,7.6809,7.7067,7.7322,7.8475,7.9481,8.0332,8.0708,8.1382,8.173,8.1955,8.1882,8.1835,8.1765,8.1702,8.1646,8.1583,8.1516,8.1497,8.1459,8.1459,8.142,8.142,8.1304,8.1304,8.1182,8.0486,8.0518,8.0547,8.0484,8.1073,8.0583,8.023,7.9691,7.9453,7.9377,7.883,7.8523,7.9092,7.9592,8.0054,8.0554,8.09,8.1007,8.0918,8.0843,8.0737,8.0641,8.0571,8.0525,8.0487,8.0411,8.0362,8.0393,8.053,8.0941,8.0961,8.0681,8.0453,8.0317,8.0348,8.0464,7.6678,7.7143,7.7137,7.7088,7.7078,7.7077,7.7071,7.7103,7.7101,7.7101,7.6945,7.6477,7.6244,7.6088,7.5696,7.5423,7.5423,7.5423,7.5423,7.5384,7.5423,7.554,7.5501,7.5345,7.5618,7.5384,7.5381,7.5444,7.5523,7.5404,7.5455,7.5455,7.5285,7.5366,7.5054,7.4707,7.4367,7.4498,7.4706,7.5055,7.5677,7.6026,7.6182,7.6531,7.6682,7.6682,7.6682,7.6682,7.6682,7.6687,7.67,7.676,7.6789,7.6856,7.6847,7.7124,7.8092,7.9277,8.0341,8.1127,8.1504,8.1916,8.2022,8.1979,8.1938,8.1868,8.1781,8.1713,8.1658,8.1589,8.1522,8.1504,8.1497,8.1497,8.1491,8.1491,8.1382,8.1375,8.0854,8.0235,7.9712,7.9706,7.9904,8.0607,8.0954,8.077,8.0592,8.04,8.0169,7.9708,7.9285,7.9785,8.0162,8.0516,8.0785,8.0977,8.0991,8.0893,8.0818,8.0702,8.0605,8.0534,8.0506,8.0459,8.0392,8.0416,8.067,8.0981,8.1559,8.1887,8.1806,8.162,8.1411,8.134,8.133,7.7182,7.7097,7.7088,7.7077,7.7103,7.7103,7.7101,7.7101,7.7101,7.7101,7.7062,7.7062,7.6945,7.7023,7.6984,7.6867,7.6789,7.6828,7.6789,7.6828,7.6594,7.675,7.6789,7.6789,7.6594,7.6828,7.6825,7.65,7.6854,7.6561,7.6612,7.6738,7.6532,7.6492,7.6062,7.5524,7.5137,7.5391,7.556,7.5871,7.6333,7.6531,7.6566,7.6682,7.6682,7.6682,7.6682,7.6682,7.6726,7.6743,7.6768,7.6789,7.6852,7.6875,7.6912,7.7491,7.8734,7.9874,8.0854,8.1636,8.1864,8.2039,8.2029,8.1999,8.1959,8.1929,8.1791,8.1718,8.1663,8.1595,8.1528,8.151,8.1491,8.1491,8.1485,8.1414,8.1253,8.0917,8.0272,7.9684,7.9114,7.9081,7.9607,8.0223,8.1124,8.1031,8.0862,8.0862,8.0708,8.0746,8.0439,8.0516,8.0823,8.0939,8.1085,8.1077,8.0997,8.086,8.0792,8.0676,8.0569,8.0506,8.0478,8.045,8.0351,8.0542,8.1111,8.1741,8.2435,8.2595,8.2749,8.2494,8.2216,8.1897,8.1736,7.7143,7.7097,7.7088,7.7076,7.7103,7.7101,7.7101,7.7101,7.7101,7.7101,7.7101,7.7101,7.7101,7.7101,7.7101,7.7101,7.7101,7.7101,7.7062,7.7101,7.7101,7.7101,7.7101,7.7101,7.7101,7.7101,7.7097,7.7045,7.6967,7.7017,7.6989,7.696,7.6999,7.6959,7.6728,7.6352,7.6257,7.6208,7.6221,7.6415,7.6605,7.6682,7.6682,7.6682,7.6682,7.6682,7.6682,7.6682,7.6734,7.6773,7.6785,7.6809,7.688,7.6965,7.718,7.8731,7.9838,8.0815,8.1558,8.1948,8.2098,8.2029,8.2014,8.1999,8.1959,8.1881,8.1775,8.1713,8.1658,8.1589,8.1522,8.1497,8.1472,8.1453,8.1433,8.1355,8.1154,8.0618,8.0011,7.9261,7.8688,7.896,7.9446,8.0323,8.11,8.1093,8.1093,8.1093,8.1093,8.1093,8.1093,8.1093,8.1093,8.1093,8.1061,8.1007,8.0918,8.0826,8.0758,8.0641,8.0571,8.0497,8.045,8.0573,8.0756,8.1203,8.1779,8.2484,8.3171,8.3489,8.3599,8.3338,8.3022,8.2613,8.2389,7.7334,7.7599,7.7628,7.7617,7.761,7.761,7.7453,7.714,7.7101,7.7101,7.7101,7.7101,7.7101,7.7101,7.7101,7.7101,7.7101,7.7101,7.7101,7.7101,7.7101,7.7101,7.7101,7.7101,7.7101,7.7101,7.7097,7.7045,7.7004,7.6997,7.6999,7.6999,7.6999,7.6959,7.688,7.6773,7.6731,7.6678,7.6644,7.6682,7.6682,7.6682,7.6682,7.6682,7.6682,7.6682,7.6682,7.6682,7.6752,7.6793,7.684,7.7081,7.7371,7.7777,7.8449,7.9838,8.0383,8.1169,8.1831,8.201,8.2033,8.1998,8.1945,8.1904,8.1908,8.1839,8.175,8.1674,8.1629,8.1577,8.1528,8.1472,8.144,8.14,8.136,8.1326,8.0898,8.04,7.9695,7.8912,7.8752,7.8999,7.9631,8.0554,8.1093,8.1093,8.1093,8.1093,8.1093,8.1093,8.1093,8.1093,8.1093,8.1085,8.1053,8.0975,8.0893,8.0809,8.0685,8.0605,8.0543,8.0555,8.0554,8.0921,8.1375,8.1902,8.2467,8.3207,8.384,8.4041,8.3956,8.3577,8.3298,8.3163,8.3049,7.7678,7.8369,7.8475,7.843,7.8391,7.8313,7.7844,7.714,7.7101,7.7101,7.7101,7.7101,7.7101,7.7101,7.7101,7.7101,7.7101,7.7101,7.7101,7.7101,7.7101,7.7101,7.7101,7.7101,7.7101,7.7101,7.7097,7.7045,7.7004,7.6994,7.6999,7.6999,7.699,7.6956,7.6905,7.6886,7.6801,7.6704,7.6682,7.6682,7.6682,7.6682,7.6682,7.6682,7.6682,7.6682,7.6682,7.6734,7.6752,7.6875,7.7112,7.7506,7.8241,7.9043,7.9952,8.0458,8.0883,8.1387,8.1887,8.2026,8.1998,8.1952,8.1891,8.1829,8.1776,8.1737,8.1686,8.1641,8.1595,8.1541,8.1478,8.144,8.14,8.1347,8.1291,8.128,8.1036,8.039,7.956,7.9014,7.9115,7.9361,7.9669,8.0554,8.1093,8.1093,8.1093,8.1093,8.1093,8.1093,8.1093,8.1093,8.1093,8.1085,8.1053,8.0967,8.0885,8.0801,8.0658,8.0578,8.0525,8.0593,8.0722,8.1199,8.1735,8.2479,8.3139,8.3725,8.3992,8.3911,8.3835,8.3602,8.3447,8.3413,8.3326,7.8217,7.8486,7.9098,7.9014,7.843,7.8391,7.7923,7.7101,7.7101,7.7101,7.7101,7.7101,7.7101,7.7101,7.7101,7.7101,7.7101,7.7101,7.7101,7.7101,7.7101,7.7101,7.7101,7.7101,7.7101,7.7101,7.7097,7.7041,7.7004,7.6997,7.6996,7.6996,7.6981,7.69,7.6897,7.6836,7.6785,7.6687,7.6838,7.6838,7.6838,7.676,7.6682,7.6682,7.6682,7.676,7.6769,7.6834,7.7225,7.7618,7.7814,7.8358,7.9127,8.0033,8.0542,8.0848,8.1335,8.1718,8.1895,8.1983,8.1941,8.1891,8.1819,8.1742,8.1679,8.1636,8.1635,8.1595,8.1553,8.1491,8.144,8.14,8.1353,8.1284,8.1212,8.1192,8.1139,8.0354,7.9538,7.9492,7.9554,7.9746,8.0054,8.04,8.09,8.1093,8.1093,8.1093,8.1093,8.1093,8.1093,8.1093,8.1093,8.1077,8.1053,8.0943,8.0852,8.0749,8.0652,8.058,8.0506,8.0783,8.1091,8.1571,8.2129,8.288,8.3483,8.3853,8.4028,8.3892,8.374,8.3518,8.3413,8.3326,8.3268,7.8874,7.9611,8.0462,8.0341,7.9562,7.9172,7.8468,7.7726,7.7257,7.7101,7.7101,7.7101,7.7101,7.7101,7.7101,7.7101,7.7101,7.7101,7.7101,7.7101,7.7101,7.7101,7.7101,7.7101,7.7101,7.71,7.7045,7.7022,7.6999,7.6994,7.6996,7.6993,7.6966,7.6929,7.6894,7.6852,7.6846,7.6726,7.7075,7.727,7.7231,7.7032,7.676,7.6682,7.6721,7.6877,7.7244,7.739,7.7902,7.8613,7.9127,7.9504,8.0188,8.0893,8.1315,8.1455,8.1746,8.2001,8.1975,8.1928,8.1874,8.1819,8.1726,8.1636,8.1613,8.1606,8.1571,8.1528,8.1485,8.1427,8.1387,8.1347,8.1323,8.1251,8.1192,8.1139,8.1116,8.0762,8.0331,8.0331,8.0362,8.0439,8.0669,8.0708,8.1093,8.1093,8.1093,8.1093,8.1093,8.1093,8.1093,8.1085,8.1077,8.1015,8.0967,8.0893,8.0801,8.0697,8.0607,8.0487,8.0459,8.1009,8.1524,8.1941,8.2532,8.3276,8.3826,8.4054,8.3922,8.373,8.3602,8.3433,8.337,8.3268,8.3224,7.9728,8.1202,8.1942,8.1786,8.0927,8.0029,7.917,7.8313,7.7492,7.7101,7.7101,7.7101,7.7101,7.7101,7.7101,7.7101,7.7101,7.7101,7.7101,7.7101,7.7101,7.7101,7.7101,7.7101,7.7098,7.7087,7.7028,7.7012,7.6995,7.6989,7.6996,7.699,7.704,7.7039,7.7046,7.7159,7.7343,7.7511,7.7813,7.8124,7.7852,7.7464,7.7308,7.7149,7.7071,7.7425,7.7943,7.8332,7.877,7.9508,8.0337,8.0711,8.0991,8.1536,8.1714,8.1927,8.1816,8.1952,8.192,8.1847,8.1805,8.1747,8.163,8.16,8.1577,8.1534,8.1497,8.1453,8.1407,8.1367,8.1326,8.1284,8.1251,8.1192,8.1139,8.11,8.1093,8.1054,8.1016,8.0977,8.0977,8.1016,8.1054,8.1093,8.1093,8.1093,8.1093,8.1093,8.1093,8.1093,8.1093,8.1077,8.1061,8.0983,8.0896,8.0813,8.0767,8.0641,8.0542,8.0411,8.0494,8.1251,8.1848,8.2259,8.2857,8.371,8.3954,8.4065,8.3916,8.3643,8.3518,8.339,8.3297,8.3224,8.321,8.1086,8.2058,8.2253,8.1825,8.0966,8.0068,7.9209,7.8352,7.7492,7.7101,7.7101,7.7101,7.7101,7.7101,7.7101,7.7101,7.7101,7.7101,7.7101,7.7101,7.7101,7.7101,7.7101,7.7101,7.7092,7.7077,7.7018,7.6999,7.7061,7.7061,7.7038,7.7074,7.7747,7.7909,7.7972,7.8197,7.8569,7.8629,7.8746,7.9061,7.9057,7.8862,7.8867,7.8789,7.8785,7.8901,7.904,7.9142,7.968,8.0411,8.1176,8.1548,8.1743,8.1845,8.194,8.1987,8.1912,8.1874,8.1824,8.1752,8.1706,8.1641,8.1577,8.1534,8.1497,8.144,8.14,8.1353,8.1312,8.1298,8.1263,8.1258,8.1192,8.1147,8.1093,8.1093,8.1093,8.1093,8.1054,8.1054,8.1054,8.1054,8.1093,8.1093,8.1093,8.1093,8.1093,8.1093,8.1093,8.1093,8.1093,8.1069,8.1045,8.0967,8.088,8.0835,8.0741,8.0623,8.0514,8.0392,8.0702,8.1645,8.2179,8.2381,8.3228,8.4141,8.4268,8.4061,8.3835,8.3602,8.3475,8.3384,8.3253,8.318,8.318]}]]